<?xml version="1.0" encoding="UTF-8" standalone="no" ?>
<gpx xmlns="http://www.topografix.com/GPX/1/1" xmlns:xsi="http://www.w3.org/2001/XMLSchema-instance" xsi:schemaLocation="http://www.topografix.com/GPX/1/1 http://www.topografix.com/GPX/1/1/gpx.xsd" version="1.1" creator="VisuGPX - https://www.visugpx.com">
  <metadata>
    <name>2 Gite de Plagnes-Saint Chély 03-JUIN-12 </name>
    <desc><![CDATA[Tour des Monts d\'Aubrac- Étape 2]]></desc>
  </metadata>
  <trk>
    <name><![CDATA[03-JUIN-12 16:34:34]]></name>
    <trkseg>
      <trkpt lat="44.54017" lon="3.09763">
        <ele>1208.03</ele>
        <time>2012-06-03T05:18:48Z</time>
      </trkpt>
      <trkpt lat="44.54021" lon="3.09758">
        <ele>1209</ele>
        <time>2012-06-03T05:20:19Z</time>
      </trkpt>
      <trkpt lat="44.54024" lon="3.09744">
        <ele>1205.63</ele>
        <time>2012-06-03T07:04:04Z</time>
      </trkpt>
      <trkpt lat="44.54003" lon="3.09759">
        <ele>1220.05</ele>
        <time>2012-06-03T07:06:28Z</time>
      </trkpt>
      <trkpt lat="44.53999" lon="3.09761">
        <ele>1234.95</ele>
        <time>2012-06-03T07:07:02Z</time>
      </trkpt>
      <trkpt lat="44.53989" lon="3.09758">
        <ele>1235.91</ele>
        <time>2012-06-03T07:07:11Z</time>
      </trkpt>
      <trkpt lat="44.5398" lon="3.09757">
        <ele>1235.91</ele>
        <time>2012-06-03T07:07:20Z</time>
      </trkpt>
      <trkpt lat="44.53971" lon="3.09759">
        <ele>1233.99</ele>
        <time>2012-06-03T07:07:29Z</time>
      </trkpt>
      <trkpt lat="44.5396" lon="3.0976">
        <ele>1231.59</ele>
        <time>2012-06-03T07:07:41Z</time>
      </trkpt>
      <trkpt lat="44.53952" lon="3.0975">
        <ele>1230.62</ele>
        <time>2012-06-03T07:07:49Z</time>
      </trkpt>
      <trkpt lat="44.53951" lon="3.09738">
        <ele>1229.66</ele>
        <time>2012-06-03T07:07:58Z</time>
      </trkpt>
      <trkpt lat="44.5395" lon="3.09724">
        <ele>1229.66</ele>
        <time>2012-06-03T07:08:06Z</time>
      </trkpt>
      <trkpt lat="44.53949" lon="3.0971">
        <ele>1228.7</ele>
        <time>2012-06-03T07:08:13Z</time>
      </trkpt>
      <trkpt lat="44.53948" lon="3.09695">
        <ele>1228.7</ele>
        <time>2012-06-03T07:08:20Z</time>
      </trkpt>
      <trkpt lat="44.53949" lon="3.09679">
        <ele>1228.7</ele>
        <time>2012-06-03T07:08:28Z</time>
      </trkpt>
      <trkpt lat="44.53949" lon="3.09666">
        <ele>1228.22</ele>
        <time>2012-06-03T07:08:35Z</time>
      </trkpt>
      <trkpt lat="44.53949" lon="3.09653">
        <ele>1228.22</ele>
        <time>2012-06-03T07:08:42Z</time>
      </trkpt>
      <trkpt lat="44.53951" lon="3.0964">
        <ele>1228.22</ele>
        <time>2012-06-03T07:08:50Z</time>
      </trkpt>
      <trkpt lat="44.53959" lon="3.09633">
        <ele>1228.22</ele>
        <time>2012-06-03T07:08:58Z</time>
      </trkpt>
      <trkpt lat="44.53968" lon="3.09634">
        <ele>1229.66</ele>
        <time>2012-06-03T07:09:08Z</time>
      </trkpt>
      <trkpt lat="44.53981" lon="3.09635">
        <ele>1230.62</ele>
        <time>2012-06-03T07:09:20Z</time>
      </trkpt>
      <trkpt lat="44.53996" lon="3.09634">
        <ele>1231.59</ele>
        <time>2012-06-03T07:09:29Z</time>
      </trkpt>
      <trkpt lat="44.54005" lon="3.09634">
        <ele>1231.59</ele>
        <time>2012-06-03T07:09:35Z</time>
      </trkpt>
      <trkpt lat="44.5401" lon="3.09626">
        <ele>1232.07</ele>
        <time>2012-06-03T07:09:43Z</time>
      </trkpt>
      <trkpt lat="44.54003" lon="3.09614">
        <ele>1231.59</ele>
        <time>2012-06-03T07:09:53Z</time>
      </trkpt>
      <trkpt lat="44.53998" lon="3.09602">
        <ele>1230.62</ele>
        <time>2012-06-03T07:10:01Z</time>
      </trkpt>
      <trkpt lat="44.53994" lon="3.0959">
        <ele>1229.18</ele>
        <time>2012-06-03T07:10:09Z</time>
      </trkpt>
      <trkpt lat="44.53992" lon="3.09575">
        <ele>1228.7</ele>
        <time>2012-06-03T07:10:19Z</time>
      </trkpt>
      <trkpt lat="44.53994" lon="3.09559">
        <ele>1227.74</ele>
        <time>2012-06-03T07:10:29Z</time>
      </trkpt>
      <trkpt lat="44.53996" lon="3.09543">
        <ele>1226.3</ele>
        <time>2012-06-03T07:10:37Z</time>
      </trkpt>
      <trkpt lat="44.54001" lon="3.09528">
        <ele>1226.78</ele>
        <time>2012-06-03T07:10:45Z</time>
      </trkpt>
      <trkpt lat="44.54007" lon="3.09518">
        <ele>1225.34</ele>
        <time>2012-06-03T07:10:53Z</time>
      </trkpt>
      <trkpt lat="44.54016" lon="3.09505">
        <ele>1223.9</ele>
        <time>2012-06-03T07:11:03Z</time>
      </trkpt>
      <trkpt lat="44.54024" lon="3.09494">
        <ele>1222.93</ele>
        <time>2012-06-03T07:11:12Z</time>
      </trkpt>
      <trkpt lat="44.5403" lon="3.09478">
        <ele>1221.97</ele>
        <time>2012-06-03T07:11:23Z</time>
      </trkpt>
      <trkpt lat="44.54033" lon="3.09463">
        <ele>1221.01</ele>
        <time>2012-06-03T07:11:32Z</time>
      </trkpt>
      <trkpt lat="44.54029" lon="3.09448">
        <ele>1220.05</ele>
        <time>2012-06-03T07:11:41Z</time>
      </trkpt>
      <trkpt lat="44.54022" lon="3.09436">
        <ele>1219.57</ele>
        <time>2012-06-03T07:11:50Z</time>
      </trkpt>
      <trkpt lat="44.54014" lon="3.09426">
        <ele>1218.61</ele>
        <time>2012-06-03T07:11:58Z</time>
      </trkpt>
      <trkpt lat="44.54007" lon="3.09416">
        <ele>1218.13</ele>
        <time>2012-06-03T07:12:06Z</time>
      </trkpt>
      <trkpt lat="44.54" lon="3.09406">
        <ele>1217.65</ele>
        <time>2012-06-03T07:12:13Z</time>
      </trkpt>
      <trkpt lat="44.53992" lon="3.09395">
        <ele>1216.21</ele>
        <time>2012-06-03T07:12:21Z</time>
      </trkpt>
      <trkpt lat="44.53985" lon="3.09386">
        <ele>1215.72</ele>
        <time>2012-06-03T07:12:30Z</time>
      </trkpt>
      <trkpt lat="44.53979" lon="3.09378">
        <ele>1214.76</ele>
        <time>2012-06-03T07:12:37Z</time>
      </trkpt>
      <trkpt lat="44.5397" lon="3.09371">
        <ele>1213.32</ele>
        <time>2012-06-03T07:12:45Z</time>
      </trkpt>
      <trkpt lat="44.53961" lon="3.09363">
        <ele>1212.84</ele>
        <time>2012-06-03T07:12:53Z</time>
      </trkpt>
      <trkpt lat="44.53954" lon="3.09355">
        <ele>1211.4</ele>
        <time>2012-06-03T07:13:00Z</time>
      </trkpt>
      <trkpt lat="44.53946" lon="3.09346">
        <ele>1210.44</ele>
        <time>2012-06-03T07:13:09Z</time>
      </trkpt>
      <trkpt lat="44.53937" lon="3.09337">
        <ele>1208.51</ele>
        <time>2012-06-03T07:13:18Z</time>
      </trkpt>
      <trkpt lat="44.53931" lon="3.09324">
        <ele>1207.55</ele>
        <time>2012-06-03T07:13:26Z</time>
      </trkpt>
      <trkpt lat="44.53928" lon="3.09311">
        <ele>1206.59</ele>
        <time>2012-06-03T07:13:33Z</time>
      </trkpt>
      <trkpt lat="44.53926" lon="3.09298">
        <ele>1206.11</ele>
        <time>2012-06-03T07:13:42Z</time>
      </trkpt>
      <trkpt lat="44.53924" lon="3.09284">
        <ele>1205.15</ele>
        <time>2012-06-03T07:13:51Z</time>
      </trkpt>
      <trkpt lat="44.53923" lon="3.0927">
        <ele>1203.23</ele>
        <time>2012-06-03T07:13:59Z</time>
      </trkpt>
      <trkpt lat="44.53921" lon="3.09256">
        <ele>1201.79</ele>
        <time>2012-06-03T07:14:07Z</time>
      </trkpt>
      <trkpt lat="44.5392" lon="3.09242">
        <ele>1200.34</ele>
        <time>2012-06-03T07:14:15Z</time>
      </trkpt>
      <trkpt lat="44.53919" lon="3.09227">
        <ele>1199.38</ele>
        <time>2012-06-03T07:14:23Z</time>
      </trkpt>
      <trkpt lat="44.53921" lon="3.09213">
        <ele>1198.42</ele>
        <time>2012-06-03T07:14:33Z</time>
      </trkpt>
      <trkpt lat="44.53923" lon="3.09199">
        <ele>1196.98</ele>
        <time>2012-06-03T07:14:42Z</time>
      </trkpt>
      <trkpt lat="44.53926" lon="3.09183">
        <ele>1196.02</ele>
        <time>2012-06-03T07:14:50Z</time>
      </trkpt>
      <trkpt lat="44.53929" lon="3.09168">
        <ele>1195.06</ele>
        <time>2012-06-03T07:14:59Z</time>
      </trkpt>
      <trkpt lat="44.5393" lon="3.09151">
        <ele>1194.09</ele>
        <time>2012-06-03T07:15:09Z</time>
      </trkpt>
      <trkpt lat="44.53927" lon="3.09136">
        <ele>1193.13</ele>
        <time>2012-06-03T07:15:17Z</time>
      </trkpt>
      <trkpt lat="44.53921" lon="3.09122">
        <ele>1192.17</ele>
        <time>2012-06-03T07:15:27Z</time>
      </trkpt>
      <trkpt lat="44.53914" lon="3.0911">
        <ele>1190.73</ele>
        <time>2012-06-03T07:15:35Z</time>
      </trkpt>
      <trkpt lat="44.53909" lon="3.09097">
        <ele>1189.29</ele>
        <time>2012-06-03T07:15:45Z</time>
      </trkpt>
      <trkpt lat="44.53903" lon="3.09084">
        <ele>1188.33</ele>
        <time>2012-06-03T07:15:53Z</time>
      </trkpt>
      <trkpt lat="44.53897" lon="3.09072">
        <ele>1188.33</ele>
        <time>2012-06-03T07:16:00Z</time>
      </trkpt>
      <trkpt lat="44.53891" lon="3.09062">
        <ele>1187.37</ele>
        <time>2012-06-03T07:16:07Z</time>
      </trkpt>
      <trkpt lat="44.53886" lon="3.09049">
        <ele>1186.88</ele>
        <time>2012-06-03T07:16:15Z</time>
      </trkpt>
      <trkpt lat="44.53881" lon="3.09037">
        <ele>1186.4</ele>
        <time>2012-06-03T07:16:23Z</time>
      </trkpt>
      <trkpt lat="44.53877" lon="3.09025">
        <ele>1186.4</ele>
        <time>2012-06-03T07:16:30Z</time>
      </trkpt>
      <trkpt lat="44.53873" lon="3.09013">
        <ele>1185.44</ele>
        <time>2012-06-03T07:16:37Z</time>
      </trkpt>
      <trkpt lat="44.53871" lon="3.09">
        <ele>1184.96</ele>
        <time>2012-06-03T07:16:44Z</time>
      </trkpt>
      <trkpt lat="44.53868" lon="3.08986">
        <ele>1184.48</ele>
        <time>2012-06-03T07:16:53Z</time>
      </trkpt>
      <trkpt lat="44.53863" lon="3.08973">
        <ele>1184</ele>
        <time>2012-06-03T07:17:00Z</time>
      </trkpt>
      <trkpt lat="44.5386" lon="3.08959">
        <ele>1183.52</ele>
        <time>2012-06-03T07:17:08Z</time>
      </trkpt>
      <trkpt lat="44.53855" lon="3.08947">
        <ele>1182.56</ele>
        <time>2012-06-03T07:17:16Z</time>
      </trkpt>
      <trkpt lat="44.5385" lon="3.08934">
        <ele>1181.12</ele>
        <time>2012-06-03T07:17:25Z</time>
      </trkpt>
      <trkpt lat="44.53842" lon="3.08923">
        <ele>1181.12</ele>
        <time>2012-06-03T07:17:32Z</time>
      </trkpt>
      <trkpt lat="44.53838" lon="3.0891">
        <ele>1180.64</ele>
        <time>2012-06-03T07:17:40Z</time>
      </trkpt>
      <trkpt lat="44.53831" lon="3.08899">
        <ele>1179.67</ele>
        <time>2012-06-03T07:17:48Z</time>
      </trkpt>
      <trkpt lat="44.53826" lon="3.08888">
        <ele>1178.71</ele>
        <time>2012-06-03T07:17:56Z</time>
      </trkpt>
      <trkpt lat="44.5382" lon="3.08876">
        <ele>1178.71</ele>
        <time>2012-06-03T07:18:02Z</time>
      </trkpt>
      <trkpt lat="44.53815" lon="3.08867">
        <ele>1178.23</ele>
        <time>2012-06-03T07:18:10Z</time>
      </trkpt>
      <trkpt lat="44.53809" lon="3.08858">
        <ele>1177.27</ele>
        <time>2012-06-03T07:18:17Z</time>
      </trkpt>
      <trkpt lat="44.53803" lon="3.0885">
        <ele>1176.31</ele>
        <time>2012-06-03T07:18:24Z</time>
      </trkpt>
      <trkpt lat="44.53796" lon="3.0884">
        <ele>1176.79</ele>
        <time>2012-06-03T07:18:32Z</time>
      </trkpt>
      <trkpt lat="44.53788" lon="3.08832">
        <ele>1176.31</ele>
        <time>2012-06-03T07:18:40Z</time>
      </trkpt>
      <trkpt lat="44.53781" lon="3.08823">
        <ele>1175.35</ele>
        <time>2012-06-03T07:18:47Z</time>
      </trkpt>
      <trkpt lat="44.53773" lon="3.08815">
        <ele>1175.83</ele>
        <time>2012-06-03T07:18:54Z</time>
      </trkpt>
      <trkpt lat="44.53766" lon="3.08807">
        <ele>1174.87</ele>
        <time>2012-06-03T07:19:02Z</time>
      </trkpt>
      <trkpt lat="44.53759" lon="3.088">
        <ele>1173.91</ele>
        <time>2012-06-03T07:19:10Z</time>
      </trkpt>
      <trkpt lat="44.5375" lon="3.08795">
        <ele>1172.47</ele>
        <time>2012-06-03T07:19:18Z</time>
      </trkpt>
      <trkpt lat="44.5374" lon="3.08791">
        <ele>1171.98</ele>
        <time>2012-06-03T07:19:27Z</time>
      </trkpt>
      <trkpt lat="44.5373" lon="3.0879">
        <ele>1171.98</ele>
        <time>2012-06-03T07:19:34Z</time>
      </trkpt>
      <trkpt lat="44.5372" lon="3.08787">
        <ele>1171.02</ele>
        <time>2012-06-03T07:19:42Z</time>
      </trkpt>
      <trkpt lat="44.53712" lon="3.08781">
        <ele>1169.58</ele>
        <time>2012-06-03T07:19:49Z</time>
      </trkpt>
      <trkpt lat="44.53702" lon="3.08775">
        <ele>1169.1</ele>
        <time>2012-06-03T07:19:57Z</time>
      </trkpt>
      <trkpt lat="44.53694" lon="3.08767">
        <ele>1167.66</ele>
        <time>2012-06-03T07:20:04Z</time>
      </trkpt>
      <trkpt lat="44.53688" lon="3.08756">
        <ele>1167.18</ele>
        <time>2012-06-03T07:20:11Z</time>
      </trkpt>
      <trkpt lat="44.53681" lon="3.08748">
        <ele>1167.18</ele>
        <time>2012-06-03T07:20:18Z</time>
      </trkpt>
      <trkpt lat="44.53675" lon="3.08738">
        <ele>1165.74</ele>
        <time>2012-06-03T07:20:24Z</time>
      </trkpt>
      <trkpt lat="44.53669" lon="3.08731">
        <ele>1165.74</ele>
        <time>2012-06-03T07:20:31Z</time>
      </trkpt>
      <trkpt lat="44.53661" lon="3.08722">
        <ele>1165.26</ele>
        <time>2012-06-03T07:20:38Z</time>
      </trkpt>
      <trkpt lat="44.53654" lon="3.08714">
        <ele>1163.33</ele>
        <time>2012-06-03T07:20:45Z</time>
      </trkpt>
      <trkpt lat="44.53646" lon="3.08707">
        <ele>1163.33</ele>
        <time>2012-06-03T07:20:52Z</time>
      </trkpt>
      <trkpt lat="44.53637" lon="3.08701">
        <ele>1163.81</ele>
        <time>2012-06-03T07:21:00Z</time>
      </trkpt>
      <trkpt lat="44.53628" lon="3.08701">
        <ele>1162.85</ele>
        <time>2012-06-03T07:21:08Z</time>
      </trkpt>
      <trkpt lat="44.53619" lon="3.08697">
        <ele>1162.85</ele>
        <time>2012-06-03T07:21:16Z</time>
      </trkpt>
      <trkpt lat="44.53617" lon="3.08691">
        <ele>1162.85</ele>
        <time>2012-06-03T07:22:24Z</time>
      </trkpt>
      <trkpt lat="44.53625" lon="3.08678">
        <ele>1162.37</ele>
        <time>2012-06-03T07:23:18Z</time>
      </trkpt>
      <trkpt lat="44.53634" lon="3.08666">
        <ele>1164.77</ele>
        <time>2012-06-03T07:23:31Z</time>
      </trkpt>
      <trkpt lat="44.53643" lon="3.08655">
        <ele>1166.22</ele>
        <time>2012-06-03T07:23:48Z</time>
      </trkpt>
      <trkpt lat="44.53647" lon="3.0864">
        <ele>1166.7</ele>
        <time>2012-06-03T07:24:29Z</time>
      </trkpt>
      <trkpt lat="44.53649" lon="3.08642">
        <ele>1165.26</ele>
        <time>2012-06-03T07:26:06Z</time>
      </trkpt>
      <trkpt lat="44.53642" lon="3.08653">
        <ele>1163.33</ele>
        <time>2012-06-03T07:26:27Z</time>
      </trkpt>
      <trkpt lat="44.53635" lon="3.08667">
        <ele>1162.37</ele>
        <time>2012-06-03T07:26:42Z</time>
      </trkpt>
      <trkpt lat="44.53624" lon="3.08681">
        <ele>1160.45</ele>
        <time>2012-06-03T07:26:55Z</time>
      </trkpt>
      <trkpt lat="44.53618" lon="3.08695">
        <ele>1160.45</ele>
        <time>2012-06-03T07:27:04Z</time>
      </trkpt>
      <trkpt lat="44.53612" lon="3.08706">
        <ele>1159.49</ele>
        <time>2012-06-03T07:27:21Z</time>
      </trkpt>
      <trkpt lat="44.53602" lon="3.08713">
        <ele>1160.45</ele>
        <time>2012-06-03T07:27:35Z</time>
      </trkpt>
      <trkpt lat="44.53595" lon="3.0872">
        <ele>1160.45</ele>
        <time>2012-06-03T07:27:43Z</time>
      </trkpt>
      <trkpt lat="44.53587" lon="3.08726">
        <ele>1159.49</ele>
        <time>2012-06-03T07:27:51Z</time>
      </trkpt>
      <trkpt lat="44.53579" lon="3.08733">
        <ele>1158.53</ele>
        <time>2012-06-03T07:28:00Z</time>
      </trkpt>
      <trkpt lat="44.5357" lon="3.08741">
        <ele>1159.01</ele>
        <time>2012-06-03T07:28:08Z</time>
      </trkpt>
      <trkpt lat="44.53561" lon="3.08749">
        <ele>1158.05</ele>
        <time>2012-06-03T07:28:18Z</time>
      </trkpt>
      <trkpt lat="44.53552" lon="3.08755">
        <ele>1158.05</ele>
        <time>2012-06-03T07:28:27Z</time>
      </trkpt>
      <trkpt lat="44.53541" lon="3.08762">
        <ele>1158.05</ele>
        <time>2012-06-03T07:28:37Z</time>
      </trkpt>
      <trkpt lat="44.53532" lon="3.08767">
        <ele>1157.56</ele>
        <time>2012-06-03T07:28:45Z</time>
      </trkpt>
      <trkpt lat="44.53522" lon="3.08772">
        <ele>1156.6</ele>
        <time>2012-06-03T07:28:53Z</time>
      </trkpt>
      <trkpt lat="44.53512" lon="3.08777">
        <ele>1156.6</ele>
        <time>2012-06-03T07:29:01Z</time>
      </trkpt>
      <trkpt lat="44.53503" lon="3.08782">
        <ele>1156.12</ele>
        <time>2012-06-03T07:29:08Z</time>
      </trkpt>
      <trkpt lat="44.53494" lon="3.08787">
        <ele>1155.64</ele>
        <time>2012-06-03T07:29:16Z</time>
      </trkpt>
      <trkpt lat="44.53485" lon="3.08795">
        <ele>1155.64</ele>
        <time>2012-06-03T07:29:24Z</time>
      </trkpt>
      <trkpt lat="44.53476" lon="3.08801">
        <ele>1155.64</ele>
        <time>2012-06-03T07:29:32Z</time>
      </trkpt>
      <trkpt lat="44.53467" lon="3.08808">
        <ele>1155.16</ele>
        <time>2012-06-03T07:29:40Z</time>
      </trkpt>
      <trkpt lat="44.53457" lon="3.08813">
        <ele>1154.68</ele>
        <time>2012-06-03T07:29:48Z</time>
      </trkpt>
      <trkpt lat="44.53448" lon="3.08815">
        <ele>1154.2</ele>
        <time>2012-06-03T07:29:55Z</time>
      </trkpt>
      <trkpt lat="44.53438" lon="3.0882">
        <ele>1155.16</ele>
        <time>2012-06-03T07:30:02Z</time>
      </trkpt>
      <trkpt lat="44.53428" lon="3.08821">
        <ele>1154.2</ele>
        <time>2012-06-03T07:30:10Z</time>
      </trkpt>
      <trkpt lat="44.53419" lon="3.08823">
        <ele>1154.2</ele>
        <time>2012-06-03T07:30:17Z</time>
      </trkpt>
      <trkpt lat="44.53408" lon="3.08828">
        <ele>1154.2</ele>
        <time>2012-06-03T07:30:25Z</time>
      </trkpt>
      <trkpt lat="44.53398" lon="3.08832">
        <ele>1153.24</ele>
        <time>2012-06-03T07:30:33Z</time>
      </trkpt>
      <trkpt lat="44.53388" lon="3.08834">
        <ele>1153.24</ele>
        <time>2012-06-03T07:30:41Z</time>
      </trkpt>
      <trkpt lat="44.53378" lon="3.08837">
        <ele>1152.76</ele>
        <time>2012-06-03T07:30:49Z</time>
      </trkpt>
      <trkpt lat="44.53367" lon="3.08842">
        <ele>1152.76</ele>
        <time>2012-06-03T07:30:57Z</time>
      </trkpt>
      <trkpt lat="44.53358" lon="3.08845">
        <ele>1152.28</ele>
        <time>2012-06-03T07:31:05Z</time>
      </trkpt>
      <trkpt lat="44.53349" lon="3.08849">
        <ele>1151.8</ele>
        <time>2012-06-03T07:31:12Z</time>
      </trkpt>
      <trkpt lat="44.53339" lon="3.08853">
        <ele>1151.8</ele>
        <time>2012-06-03T07:31:20Z</time>
      </trkpt>
      <trkpt lat="44.5333" lon="3.08856">
        <ele>1151.32</ele>
        <time>2012-06-03T07:31:27Z</time>
      </trkpt>
      <trkpt lat="44.53321" lon="3.08863">
        <ele>1150.35</ele>
        <time>2012-06-03T07:31:34Z</time>
      </trkpt>
      <trkpt lat="44.53312" lon="3.08868">
        <ele>1150.35</ele>
        <time>2012-06-03T07:31:41Z</time>
      </trkpt>
      <trkpt lat="44.53303" lon="3.08874">
        <ele>1150.35</ele>
        <time>2012-06-03T07:31:48Z</time>
      </trkpt>
      <trkpt lat="44.53295" lon="3.08882">
        <ele>1149.87</ele>
        <time>2012-06-03T07:31:55Z</time>
      </trkpt>
      <trkpt lat="44.53289" lon="3.08891">
        <ele>1149.39</ele>
        <time>2012-06-03T07:32:04Z</time>
      </trkpt>
      <trkpt lat="44.53282" lon="3.089">
        <ele>1148.91</ele>
        <time>2012-06-03T07:32:12Z</time>
      </trkpt>
      <trkpt lat="44.53273" lon="3.0891">
        <ele>1148.43</ele>
        <time>2012-06-03T07:32:20Z</time>
      </trkpt>
      <trkpt lat="44.53264" lon="3.08919">
        <ele>1147.95</ele>
        <time>2012-06-03T07:32:28Z</time>
      </trkpt>
      <trkpt lat="44.53254" lon="3.08923">
        <ele>1147.95</ele>
        <time>2012-06-03T07:32:36Z</time>
      </trkpt>
      <trkpt lat="44.53244" lon="3.08927">
        <ele>1148.43</ele>
        <time>2012-06-03T07:32:44Z</time>
      </trkpt>
      <trkpt lat="44.53233" lon="3.08928">
        <ele>1146.99</ele>
        <time>2012-06-03T07:32:52Z</time>
      </trkpt>
      <trkpt lat="44.53223" lon="3.08926">
        <ele>1147.47</ele>
        <time>2012-06-03T07:33:00Z</time>
      </trkpt>
      <trkpt lat="44.53213" lon="3.08924">
        <ele>1146.51</ele>
        <time>2012-06-03T07:33:08Z</time>
      </trkpt>
      <trkpt lat="44.53202" lon="3.08921">
        <ele>1146.51</ele>
        <time>2012-06-03T07:33:16Z</time>
      </trkpt>
      <trkpt lat="44.53193" lon="3.08921">
        <ele>1145.55</ele>
        <time>2012-06-03T07:33:25Z</time>
      </trkpt>
      <trkpt lat="44.53183" lon="3.08924">
        <ele>1145.07</ele>
        <time>2012-06-03T07:33:32Z</time>
      </trkpt>
      <trkpt lat="44.53173" lon="3.08925">
        <ele>1144.59</ele>
        <time>2012-06-03T07:33:40Z</time>
      </trkpt>
      <trkpt lat="44.53163" lon="3.08924">
        <ele>1144.11</ele>
        <time>2012-06-03T07:33:47Z</time>
      </trkpt>
      <trkpt lat="44.53153" lon="3.08926">
        <ele>1144.59</ele>
        <time>2012-06-03T07:33:55Z</time>
      </trkpt>
      <trkpt lat="44.53143" lon="3.0893">
        <ele>1143.63</ele>
        <time>2012-06-03T07:34:03Z</time>
      </trkpt>
      <trkpt lat="44.53133" lon="3.08931">
        <ele>1143.14</ele>
        <time>2012-06-03T07:34:11Z</time>
      </trkpt>
      <trkpt lat="44.53123" lon="3.08936">
        <ele>1142.66</ele>
        <time>2012-06-03T07:34:19Z</time>
      </trkpt>
      <trkpt lat="44.53112" lon="3.08937">
        <ele>1141.7</ele>
        <time>2012-06-03T07:34:27Z</time>
      </trkpt>
      <trkpt lat="44.53102" lon="3.08935">
        <ele>1141.7</ele>
        <time>2012-06-03T07:34:35Z</time>
      </trkpt>
      <trkpt lat="44.53092" lon="3.0893">
        <ele>1141.7</ele>
        <time>2012-06-03T07:34:44Z</time>
      </trkpt>
      <trkpt lat="44.53082" lon="3.08932">
        <ele>1141.7</ele>
        <time>2012-06-03T07:34:53Z</time>
      </trkpt>
      <trkpt lat="44.53072" lon="3.08932">
        <ele>1141.7</ele>
        <time>2012-06-03T07:35:02Z</time>
      </trkpt>
      <trkpt lat="44.53063" lon="3.08932">
        <ele>1141.7</ele>
        <time>2012-06-03T07:35:10Z</time>
      </trkpt>
      <trkpt lat="44.53054" lon="3.0893">
        <ele>1141.22</ele>
        <time>2012-06-03T07:35:19Z</time>
      </trkpt>
      <trkpt lat="44.53043" lon="3.08935">
        <ele>1142.18</ele>
        <time>2012-06-03T07:35:27Z</time>
      </trkpt>
      <trkpt lat="44.53034" lon="3.08933">
        <ele>1142.18</ele>
        <time>2012-06-03T07:35:37Z</time>
      </trkpt>
      <trkpt lat="44.53023" lon="3.08937">
        <ele>1142.66</ele>
        <time>2012-06-03T07:35:46Z</time>
      </trkpt>
      <trkpt lat="44.53012" lon="3.08937">
        <ele>1143.63</ele>
        <time>2012-06-03T07:35:56Z</time>
      </trkpt>
      <trkpt lat="44.53002" lon="3.08936">
        <ele>1144.11</ele>
        <time>2012-06-03T07:36:05Z</time>
      </trkpt>
      <trkpt lat="44.52992" lon="3.08938">
        <ele>1143.63</ele>
        <time>2012-06-03T07:36:14Z</time>
      </trkpt>
      <trkpt lat="44.52982" lon="3.08938">
        <ele>1144.59</ele>
        <time>2012-06-03T07:36:22Z</time>
      </trkpt>
      <trkpt lat="44.52973" lon="3.08936">
        <ele>1145.07</ele>
        <time>2012-06-03T07:36:31Z</time>
      </trkpt>
      <trkpt lat="44.52962" lon="3.08936">
        <ele>1145.55</ele>
        <time>2012-06-03T07:36:41Z</time>
      </trkpt>
      <trkpt lat="44.52951" lon="3.08932">
        <ele>1145.55</ele>
        <time>2012-06-03T07:36:50Z</time>
      </trkpt>
      <trkpt lat="44.5294" lon="3.0893">
        <ele>1146.03</ele>
        <time>2012-06-03T07:36:59Z</time>
      </trkpt>
      <trkpt lat="44.52932" lon="3.08926">
        <ele>1146.51</ele>
        <time>2012-06-03T07:37:07Z</time>
      </trkpt>
      <trkpt lat="44.52922" lon="3.08922">
        <ele>1146.51</ele>
        <time>2012-06-03T07:37:17Z</time>
      </trkpt>
      <trkpt lat="44.52912" lon="3.08918">
        <ele>1147.47</ele>
        <time>2012-06-03T07:37:26Z</time>
      </trkpt>
      <trkpt lat="44.52905" lon="3.08912">
        <ele>1147.95</ele>
        <time>2012-06-03T07:37:33Z</time>
      </trkpt>
      <trkpt lat="44.52895" lon="3.08907">
        <ele>1147.95</ele>
        <time>2012-06-03T07:37:42Z</time>
      </trkpt>
      <trkpt lat="44.52884" lon="3.08898">
        <ele>1148.91</ele>
        <time>2012-06-03T07:37:52Z</time>
      </trkpt>
      <trkpt lat="44.52876" lon="3.08889">
        <ele>1149.39</ele>
        <time>2012-06-03T07:38:01Z</time>
      </trkpt>
      <trkpt lat="44.52867" lon="3.08881">
        <ele>1149.87</ele>
        <time>2012-06-03T07:38:09Z</time>
      </trkpt>
      <trkpt lat="44.52858" lon="3.08874">
        <ele>1149.87</ele>
        <time>2012-06-03T07:38:18Z</time>
      </trkpt>
      <trkpt lat="44.5285" lon="3.08868">
        <ele>1150.35</ele>
        <time>2012-06-03T07:38:26Z</time>
      </trkpt>
      <trkpt lat="44.52841" lon="3.08862">
        <ele>1150.84</ele>
        <time>2012-06-03T07:38:35Z</time>
      </trkpt>
      <trkpt lat="44.52832" lon="3.0886">
        <ele>1150.84</ele>
        <time>2012-06-03T07:38:43Z</time>
      </trkpt>
      <trkpt lat="44.52823" lon="3.08857">
        <ele>1151.32</ele>
        <time>2012-06-03T07:38:52Z</time>
      </trkpt>
      <trkpt lat="44.52813" lon="3.08859">
        <ele>1151.8</ele>
        <time>2012-06-03T07:39:01Z</time>
      </trkpt>
      <trkpt lat="44.52803" lon="3.08861">
        <ele>1152.28</ele>
        <time>2012-06-03T07:39:09Z</time>
      </trkpt>
      <trkpt lat="44.52793" lon="3.08863">
        <ele>1153.24</ele>
        <time>2012-06-03T07:39:19Z</time>
      </trkpt>
      <trkpt lat="44.52783" lon="3.08865">
        <ele>1153.24</ele>
        <time>2012-06-03T07:39:28Z</time>
      </trkpt>
      <trkpt lat="44.52772" lon="3.08867">
        <ele>1154.68</ele>
        <time>2012-06-03T07:39:37Z</time>
      </trkpt>
      <trkpt lat="44.52761" lon="3.0887">
        <ele>1154.68</ele>
        <time>2012-06-03T07:39:46Z</time>
      </trkpt>
      <trkpt lat="44.5275" lon="3.08873">
        <ele>1154.68</ele>
        <time>2012-06-03T07:39:56Z</time>
      </trkpt>
      <trkpt lat="44.5274" lon="3.08875">
        <ele>1155.64</ele>
        <time>2012-06-03T07:40:04Z</time>
      </trkpt>
      <trkpt lat="44.5273" lon="3.08877">
        <ele>1155.64</ele>
        <time>2012-06-03T07:40:13Z</time>
      </trkpt>
      <trkpt lat="44.5272" lon="3.08882">
        <ele>1155.16</ele>
        <time>2012-06-03T07:40:22Z</time>
      </trkpt>
      <trkpt lat="44.5271" lon="3.08882">
        <ele>1156.6</ele>
        <time>2012-06-03T07:40:30Z</time>
      </trkpt>
      <trkpt lat="44.52701" lon="3.08885">
        <ele>1156.6</ele>
        <time>2012-06-03T07:40:39Z</time>
      </trkpt>
      <trkpt lat="44.52691" lon="3.08886">
        <ele>1157.56</ele>
        <time>2012-06-03T07:40:48Z</time>
      </trkpt>
      <trkpt lat="44.52681" lon="3.08887">
        <ele>1157.08</ele>
        <time>2012-06-03T07:40:56Z</time>
      </trkpt>
      <trkpt lat="44.52671" lon="3.08886">
        <ele>1158.05</ele>
        <time>2012-06-03T07:41:04Z</time>
      </trkpt>
      <trkpt lat="44.52661" lon="3.08886">
        <ele>1158.53</ele>
        <time>2012-06-03T07:41:12Z</time>
      </trkpt>
      <trkpt lat="44.52653" lon="3.08887">
        <ele>1158.53</ele>
        <time>2012-06-03T07:41:20Z</time>
      </trkpt>
      <trkpt lat="44.52642" lon="3.08887">
        <ele>1158.53</ele>
        <time>2012-06-03T07:41:28Z</time>
      </trkpt>
      <trkpt lat="44.52633" lon="3.08885">
        <ele>1159.97</ele>
        <time>2012-06-03T07:41:36Z</time>
      </trkpt>
      <trkpt lat="44.52629" lon="3.08874">
        <ele>1159.49</ele>
        <time>2012-06-03T07:42:11Z</time>
      </trkpt>
      <trkpt lat="44.52635" lon="3.08863">
        <ele>1159.97</ele>
        <time>2012-06-03T07:42:20Z</time>
      </trkpt>
      <trkpt lat="44.52642" lon="3.08854">
        <ele>1160.45</ele>
        <time>2012-06-03T07:42:28Z</time>
      </trkpt>
      <trkpt lat="44.52649" lon="3.08846">
        <ele>1160.93</ele>
        <time>2012-06-03T07:42:36Z</time>
      </trkpt>
      <trkpt lat="44.52657" lon="3.08838">
        <ele>1161.89</ele>
        <time>2012-06-03T07:42:44Z</time>
      </trkpt>
      <trkpt lat="44.52664" lon="3.08829">
        <ele>1161.89</ele>
        <time>2012-06-03T07:42:53Z</time>
      </trkpt>
      <trkpt lat="44.52672" lon="3.0882">
        <ele>1162.85</ele>
        <time>2012-06-03T07:43:02Z</time>
      </trkpt>
      <trkpt lat="44.52681" lon="3.0881">
        <ele>1163.81</ele>
        <time>2012-06-03T07:43:12Z</time>
      </trkpt>
      <trkpt lat="44.52688" lon="3.08802">
        <ele>1165.74</ele>
        <time>2012-06-03T07:43:23Z</time>
      </trkpt>
      <trkpt lat="44.52696" lon="3.08792">
        <ele>1167.18</ele>
        <time>2012-06-03T07:43:32Z</time>
      </trkpt>
      <trkpt lat="44.52705" lon="3.08783">
        <ele>1168.14</ele>
        <time>2012-06-03T07:43:41Z</time>
      </trkpt>
      <trkpt lat="44.52714" lon="3.08777">
        <ele>1168.62</ele>
        <time>2012-06-03T07:43:50Z</time>
      </trkpt>
      <trkpt lat="44.52722" lon="3.08771">
        <ele>1168.14</ele>
        <time>2012-06-03T07:43:58Z</time>
      </trkpt>
      <trkpt lat="44.52731" lon="3.08764">
        <ele>1169.58</ele>
        <time>2012-06-03T07:44:08Z</time>
      </trkpt>
      <trkpt lat="44.5274" lon="3.08756">
        <ele>1169.58</ele>
        <time>2012-06-03T07:44:17Z</time>
      </trkpt>
      <trkpt lat="44.52749" lon="3.0875">
        <ele>1170.06</ele>
        <time>2012-06-03T07:44:26Z</time>
      </trkpt>
      <trkpt lat="44.52758" lon="3.08743">
        <ele>1170.54</ele>
        <time>2012-06-03T07:44:35Z</time>
      </trkpt>
      <trkpt lat="44.52768" lon="3.08736">
        <ele>1170.54</ele>
        <time>2012-06-03T07:44:44Z</time>
      </trkpt>
      <trkpt lat="44.52777" lon="3.0873">
        <ele>1171.5</ele>
        <time>2012-06-03T07:44:53Z</time>
      </trkpt>
      <trkpt lat="44.52787" lon="3.08725">
        <ele>1171.98</ele>
        <time>2012-06-03T07:45:03Z</time>
      </trkpt>
      <trkpt lat="44.52796" lon="3.0872">
        <ele>1172.95</ele>
        <time>2012-06-03T07:45:11Z</time>
      </trkpt>
      <trkpt lat="44.52806" lon="3.08713">
        <ele>1174.39</ele>
        <time>2012-06-03T07:45:21Z</time>
      </trkpt>
      <trkpt lat="44.52815" lon="3.08708">
        <ele>1175.35</ele>
        <time>2012-06-03T07:45:31Z</time>
      </trkpt>
      <trkpt lat="44.52824" lon="3.08703">
        <ele>1176.79</ele>
        <time>2012-06-03T07:45:40Z</time>
      </trkpt>
      <trkpt lat="44.52833" lon="3.08696">
        <ele>1177.27</ele>
        <time>2012-06-03T07:45:49Z</time>
      </trkpt>
      <trkpt lat="44.52842" lon="3.0869">
        <ele>1178.23</ele>
        <time>2012-06-03T07:45:58Z</time>
      </trkpt>
      <trkpt lat="44.52851" lon="3.08685">
        <ele>1179.19</ele>
        <time>2012-06-03T07:46:07Z</time>
      </trkpt>
      <trkpt lat="44.52859" lon="3.08679">
        <ele>1180.64</ele>
        <time>2012-06-03T07:46:17Z</time>
      </trkpt>
      <trkpt lat="44.52869" lon="3.08675">
        <ele>1180.16</ele>
        <time>2012-06-03T07:46:27Z</time>
      </trkpt>
      <trkpt lat="44.52879" lon="3.0867">
        <ele>1182.08</ele>
        <time>2012-06-03T07:46:37Z</time>
      </trkpt>
      <trkpt lat="44.52888" lon="3.08665">
        <ele>1183.04</ele>
        <time>2012-06-03T07:46:46Z</time>
      </trkpt>
      <trkpt lat="44.52897" lon="3.08661">
        <ele>1183.52</ele>
        <time>2012-06-03T07:46:56Z</time>
      </trkpt>
      <trkpt lat="44.52907" lon="3.08657">
        <ele>1184.48</ele>
        <time>2012-06-03T07:47:06Z</time>
      </trkpt>
      <trkpt lat="44.52917" lon="3.08655">
        <ele>1185.44</ele>
        <time>2012-06-03T07:47:16Z</time>
      </trkpt>
      <trkpt lat="44.52926" lon="3.08653">
        <ele>1185.92</ele>
        <time>2012-06-03T07:47:26Z</time>
      </trkpt>
      <trkpt lat="44.52936" lon="3.0865">
        <ele>1187.85</ele>
        <time>2012-06-03T07:47:37Z</time>
      </trkpt>
      <trkpt lat="44.52946" lon="3.08645">
        <ele>1189.77</ele>
        <time>2012-06-03T07:47:48Z</time>
      </trkpt>
      <trkpt lat="44.52954" lon="3.0864">
        <ele>1191.21</ele>
        <time>2012-06-03T07:47:58Z</time>
      </trkpt>
      <trkpt lat="44.52963" lon="3.08636">
        <ele>1191.69</ele>
        <time>2012-06-03T07:48:07Z</time>
      </trkpt>
      <trkpt lat="44.52973" lon="3.08631">
        <ele>1193.13</ele>
        <time>2012-06-03T07:48:17Z</time>
      </trkpt>
      <trkpt lat="44.52981" lon="3.08626">
        <ele>1194.09</ele>
        <time>2012-06-03T07:48:25Z</time>
      </trkpt>
      <trkpt lat="44.52988" lon="3.0862">
        <ele>1194.09</ele>
        <time>2012-06-03T07:48:33Z</time>
      </trkpt>
      <trkpt lat="44.52996" lon="3.08612">
        <ele>1195.54</ele>
        <time>2012-06-03T07:48:43Z</time>
      </trkpt>
      <trkpt lat="44.53004" lon="3.08606">
        <ele>1195.06</ele>
        <time>2012-06-03T07:49:32Z</time>
      </trkpt>
      <trkpt lat="44.53013" lon="3.08601">
        <ele>1196.5</ele>
        <time>2012-06-03T07:49:42Z</time>
      </trkpt>
      <trkpt lat="44.53023" lon="3.08595">
        <ele>1196.98</ele>
        <time>2012-06-03T07:49:52Z</time>
      </trkpt>
      <trkpt lat="44.53032" lon="3.08588">
        <ele>1197.94</ele>
        <time>2012-06-03T07:50:02Z</time>
      </trkpt>
      <trkpt lat="44.53043" lon="3.0858">
        <ele>1198.42</ele>
        <time>2012-06-03T07:50:12Z</time>
      </trkpt>
      <trkpt lat="44.53052" lon="3.08575">
        <ele>1199.86</ele>
        <time>2012-06-03T07:50:22Z</time>
      </trkpt>
      <trkpt lat="44.53061" lon="3.08569">
        <ele>1199.86</ele>
        <time>2012-06-03T07:50:31Z</time>
      </trkpt>
      <trkpt lat="44.5307" lon="3.08563">
        <ele>1200.82</ele>
        <time>2012-06-03T07:50:40Z</time>
      </trkpt>
      <trkpt lat="44.53079" lon="3.08557">
        <ele>1201.79</ele>
        <time>2012-06-03T07:50:50Z</time>
      </trkpt>
      <trkpt lat="44.53088" lon="3.08551">
        <ele>1202.27</ele>
        <time>2012-06-03T07:50:59Z</time>
      </trkpt>
      <trkpt lat="44.53098" lon="3.08548">
        <ele>1203.23</ele>
        <time>2012-06-03T07:51:08Z</time>
      </trkpt>
      <trkpt lat="44.53107" lon="3.08543">
        <ele>1204.67</ele>
        <time>2012-06-03T07:51:17Z</time>
      </trkpt>
      <trkpt lat="44.53116" lon="3.08539">
        <ele>1204.19</ele>
        <time>2012-06-03T07:51:26Z</time>
      </trkpt>
      <trkpt lat="44.53127" lon="3.08534">
        <ele>1205.15</ele>
        <time>2012-06-03T07:51:36Z</time>
      </trkpt>
      <trkpt lat="44.53137" lon="3.0853">
        <ele>1205.63</ele>
        <time>2012-06-03T07:51:47Z</time>
      </trkpt>
      <trkpt lat="44.53146" lon="3.08524">
        <ele>1206.59</ele>
        <time>2012-06-03T07:51:56Z</time>
      </trkpt>
      <trkpt lat="44.53156" lon="3.08519">
        <ele>1207.07</ele>
        <time>2012-06-03T07:52:05Z</time>
      </trkpt>
      <trkpt lat="44.53165" lon="3.08513">
        <ele>1207.55</ele>
        <time>2012-06-03T07:52:14Z</time>
      </trkpt>
      <trkpt lat="44.53174" lon="3.08505">
        <ele>1208.51</ele>
        <time>2012-06-03T07:52:24Z</time>
      </trkpt>
      <trkpt lat="44.53183" lon="3.08497">
        <ele>1208.51</ele>
        <time>2012-06-03T07:52:34Z</time>
      </trkpt>
      <trkpt lat="44.53192" lon="3.08488">
        <ele>1209.48</ele>
        <time>2012-06-03T07:52:43Z</time>
      </trkpt>
      <trkpt lat="44.532" lon="3.08481">
        <ele>1209.96</ele>
        <time>2012-06-03T07:52:52Z</time>
      </trkpt>
      <trkpt lat="44.53208" lon="3.08473">
        <ele>1209.48</ele>
        <time>2012-06-03T07:53:01Z</time>
      </trkpt>
      <trkpt lat="44.53217" lon="3.08465">
        <ele>1209.96</ele>
        <time>2012-06-03T07:53:10Z</time>
      </trkpt>
      <trkpt lat="44.53226" lon="3.08455">
        <ele>1209.48</ele>
        <time>2012-06-03T07:53:19Z</time>
      </trkpt>
      <trkpt lat="44.53233" lon="3.08443">
        <ele>1210.44</ele>
        <time>2012-06-03T07:53:28Z</time>
      </trkpt>
      <trkpt lat="44.5324" lon="3.08433">
        <ele>1209.96</ele>
        <time>2012-06-03T07:53:39Z</time>
      </trkpt>
      <trkpt lat="44.53247" lon="3.08423">
        <ele>1210.44</ele>
        <time>2012-06-03T07:53:51Z</time>
      </trkpt>
      <trkpt lat="44.53254" lon="3.08413">
        <ele>1209.96</ele>
        <time>2012-06-03T07:54:01Z</time>
      </trkpt>
      <trkpt lat="44.53261" lon="3.08402">
        <ele>1210.44</ele>
        <time>2012-06-03T07:54:11Z</time>
      </trkpt>
      <trkpt lat="44.53266" lon="3.08391">
        <ele>1210.44</ele>
        <time>2012-06-03T07:54:19Z</time>
      </trkpt>
      <trkpt lat="44.53272" lon="3.0838">
        <ele>1210.44</ele>
        <time>2012-06-03T07:54:27Z</time>
      </trkpt>
      <trkpt lat="44.53278" lon="3.08369">
        <ele>1210.44</ele>
        <time>2012-06-03T07:54:34Z</time>
      </trkpt>
      <trkpt lat="44.53284" lon="3.08359">
        <ele>1210.92</ele>
        <time>2012-06-03T07:54:42Z</time>
      </trkpt>
      <trkpt lat="44.53291" lon="3.08351">
        <ele>1210.44</ele>
        <time>2012-06-03T07:54:51Z</time>
      </trkpt>
      <trkpt lat="44.53298" lon="3.08342">
        <ele>1211.4</ele>
        <time>2012-06-03T07:55:00Z</time>
      </trkpt>
      <trkpt lat="44.53306" lon="3.08333">
        <ele>1211.88</ele>
        <time>2012-06-03T07:55:10Z</time>
      </trkpt>
      <trkpt lat="44.53313" lon="3.08323">
        <ele>1211.4</ele>
        <time>2012-06-03T07:55:18Z</time>
      </trkpt>
      <trkpt lat="44.5332" lon="3.08312">
        <ele>1211.88</ele>
        <time>2012-06-03T07:55:26Z</time>
      </trkpt>
      <trkpt lat="44.53327" lon="3.08303">
        <ele>1212.36</ele>
        <time>2012-06-03T07:55:34Z</time>
      </trkpt>
      <trkpt lat="44.53334" lon="3.08293">
        <ele>1213.32</ele>
        <time>2012-06-03T07:55:44Z</time>
      </trkpt>
      <trkpt lat="44.53341" lon="3.08282">
        <ele>1212.84</ele>
        <time>2012-06-03T07:56:46Z</time>
      </trkpt>
      <trkpt lat="44.53348" lon="3.08273">
        <ele>1213.8</ele>
        <time>2012-06-03T07:56:54Z</time>
      </trkpt>
      <trkpt lat="44.53355" lon="3.08263">
        <ele>1214.28</ele>
        <time>2012-06-03T07:57:03Z</time>
      </trkpt>
      <trkpt lat="44.53363" lon="3.08254">
        <ele>1214.76</ele>
        <time>2012-06-03T07:57:11Z</time>
      </trkpt>
      <trkpt lat="44.53372" lon="3.08245">
        <ele>1216.21</ele>
        <time>2012-06-03T07:57:21Z</time>
      </trkpt>
      <trkpt lat="44.53381" lon="3.08237">
        <ele>1216.69</ele>
        <time>2012-06-03T07:57:31Z</time>
      </trkpt>
      <trkpt lat="44.53391" lon="3.08229">
        <ele>1217.65</ele>
        <time>2012-06-03T07:57:42Z</time>
      </trkpt>
      <trkpt lat="44.534" lon="3.08222">
        <ele>1218.61</ele>
        <time>2012-06-03T07:58:04Z</time>
      </trkpt>
      <trkpt lat="44.5341" lon="3.08215">
        <ele>1219.57</ele>
        <time>2012-06-03T07:58:15Z</time>
      </trkpt>
      <trkpt lat="44.53419" lon="3.08208">
        <ele>1220.05</ele>
        <time>2012-06-03T07:58:26Z</time>
      </trkpt>
      <trkpt lat="44.53429" lon="3.082">
        <ele>1221.49</ele>
        <time>2012-06-03T07:58:37Z</time>
      </trkpt>
      <trkpt lat="44.53439" lon="3.0819">
        <ele>1222.45</ele>
        <time>2012-06-03T07:58:49Z</time>
      </trkpt>
      <trkpt lat="44.53447" lon="3.08183">
        <ele>1222.93</ele>
        <time>2012-06-03T07:58:58Z</time>
      </trkpt>
      <trkpt lat="44.53456" lon="3.08177">
        <ele>1224.38</ele>
        <time>2012-06-03T07:59:09Z</time>
      </trkpt>
      <trkpt lat="44.53465" lon="3.0817">
        <ele>1225.34</ele>
        <time>2012-06-03T07:59:19Z</time>
      </trkpt>
      <trkpt lat="44.53474" lon="3.08163">
        <ele>1225.82</ele>
        <time>2012-06-03T07:59:29Z</time>
      </trkpt>
      <trkpt lat="44.53481" lon="3.08152">
        <ele>1226.78</ele>
        <time>2012-06-03T07:59:39Z</time>
      </trkpt>
      <trkpt lat="44.53485" lon="3.08139">
        <ele>1227.26</ele>
        <time>2012-06-03T07:59:49Z</time>
      </trkpt>
      <trkpt lat="44.5349" lon="3.08124">
        <ele>1228.7</ele>
        <time>2012-06-03T07:59:58Z</time>
      </trkpt>
      <trkpt lat="44.53495" lon="3.08113">
        <ele>1228.22</ele>
        <time>2012-06-03T08:00:07Z</time>
      </trkpt>
      <trkpt lat="44.53501" lon="3.08103">
        <ele>1228.22</ele>
        <time>2012-06-03T08:00:16Z</time>
      </trkpt>
      <trkpt lat="44.53509" lon="3.08092">
        <ele>1229.66</ele>
        <time>2012-06-03T08:00:26Z</time>
      </trkpt>
      <trkpt lat="44.53516" lon="3.08081">
        <ele>1229.66</ele>
        <time>2012-06-03T08:00:35Z</time>
      </trkpt>
      <trkpt lat="44.53524" lon="3.08069">
        <ele>1230.14</ele>
        <time>2012-06-03T08:00:46Z</time>
      </trkpt>
      <trkpt lat="44.5353" lon="3.08058">
        <ele>1230.62</ele>
        <time>2012-06-03T08:00:55Z</time>
      </trkpt>
      <trkpt lat="44.53537" lon="3.08047">
        <ele>1231.59</ele>
        <time>2012-06-03T08:01:04Z</time>
      </trkpt>
      <trkpt lat="44.53545" lon="3.08035">
        <ele>1232.07</ele>
        <time>2012-06-03T08:01:16Z</time>
      </trkpt>
      <trkpt lat="44.53554" lon="3.08024">
        <ele>1232.55</ele>
        <time>2012-06-03T08:01:27Z</time>
      </trkpt>
      <trkpt lat="44.53563" lon="3.08013">
        <ele>1233.51</ele>
        <time>2012-06-03T08:01:37Z</time>
      </trkpt>
      <trkpt lat="44.53571" lon="3.08001">
        <ele>1234.47</ele>
        <time>2012-06-03T08:01:48Z</time>
      </trkpt>
      <trkpt lat="44.53578" lon="3.07991">
        <ele>1235.43</ele>
        <time>2012-06-03T08:01:58Z</time>
      </trkpt>
      <trkpt lat="44.53584" lon="3.07979">
        <ele>1235.91</ele>
        <time>2012-06-03T08:02:31Z</time>
      </trkpt>
      <trkpt lat="44.5359" lon="3.07969">
        <ele>1236.87</ele>
        <time>2012-06-03T08:02:40Z</time>
      </trkpt>
      <trkpt lat="44.53596" lon="3.07957">
        <ele>1237.35</ele>
        <time>2012-06-03T08:02:50Z</time>
      </trkpt>
      <trkpt lat="44.53602" lon="3.07946">
        <ele>1237.83</ele>
        <time>2012-06-03T08:02:58Z</time>
      </trkpt>
      <trkpt lat="44.5361" lon="3.07934">
        <ele>1237.83</ele>
        <time>2012-06-03T08:03:06Z</time>
      </trkpt>
      <trkpt lat="44.53616" lon="3.07925">
        <ele>1238.32</ele>
        <time>2012-06-03T08:03:15Z</time>
      </trkpt>
      <trkpt lat="44.53623" lon="3.07913">
        <ele>1239.28</ele>
        <time>2012-06-03T08:03:26Z</time>
      </trkpt>
      <trkpt lat="44.5363" lon="3.07903">
        <ele>1240.24</ele>
        <time>2012-06-03T08:03:35Z</time>
      </trkpt>
      <trkpt lat="44.53637" lon="3.07893">
        <ele>1240.72</ele>
        <time>2012-06-03T08:03:45Z</time>
      </trkpt>
      <trkpt lat="44.53646" lon="3.07881">
        <ele>1241.68</ele>
        <time>2012-06-03T08:03:56Z</time>
      </trkpt>
      <trkpt lat="44.53653" lon="3.0787">
        <ele>1242.16</ele>
        <time>2012-06-03T08:04:06Z</time>
      </trkpt>
      <trkpt lat="44.5366" lon="3.07858">
        <ele>1242.16</ele>
        <time>2012-06-03T08:04:17Z</time>
      </trkpt>
      <trkpt lat="44.53668" lon="3.07845">
        <ele>1243.12</ele>
        <time>2012-06-03T08:04:28Z</time>
      </trkpt>
      <trkpt lat="44.53676" lon="3.07832">
        <ele>1243.6</ele>
        <time>2012-06-03T08:04:39Z</time>
      </trkpt>
      <trkpt lat="44.53683" lon="3.0782">
        <ele>1244.08</ele>
        <time>2012-06-03T08:04:49Z</time>
      </trkpt>
      <trkpt lat="44.5369" lon="3.07809">
        <ele>1245.53</ele>
        <time>2012-06-03T08:05:00Z</time>
      </trkpt>
      <trkpt lat="44.53696" lon="3.07797">
        <ele>1246.49</ele>
        <time>2012-06-03T08:05:10Z</time>
      </trkpt>
      <trkpt lat="44.53702" lon="3.07786">
        <ele>1247.45</ele>
        <time>2012-06-03T08:05:20Z</time>
      </trkpt>
      <trkpt lat="44.5371" lon="3.07774">
        <ele>1248.41</ele>
        <time>2012-06-03T08:05:32Z</time>
      </trkpt>
      <trkpt lat="44.53717" lon="3.07764">
        <ele>1249.37</ele>
        <time>2012-06-03T08:05:42Z</time>
      </trkpt>
      <trkpt lat="44.53726" lon="3.07753">
        <ele>1249.85</ele>
        <time>2012-06-03T08:05:53Z</time>
      </trkpt>
      <trkpt lat="44.53734" lon="3.07743">
        <ele>1250.33</ele>
        <time>2012-06-03T08:06:02Z</time>
      </trkpt>
      <trkpt lat="44.53743" lon="3.07732">
        <ele>1249.85</ele>
        <time>2012-06-03T08:06:12Z</time>
      </trkpt>
      <trkpt lat="44.53751" lon="3.07725">
        <ele>1251.29</ele>
        <time>2012-06-03T08:06:20Z</time>
      </trkpt>
      <trkpt lat="44.53761" lon="3.0772">
        <ele>1251.29</ele>
        <time>2012-06-03T08:06:29Z</time>
      </trkpt>
      <trkpt lat="44.53771" lon="3.07716">
        <ele>1250.81</ele>
        <time>2012-06-03T08:06:38Z</time>
      </trkpt>
      <trkpt lat="44.53781" lon="3.07711">
        <ele>1250.81</ele>
        <time>2012-06-03T08:06:47Z</time>
      </trkpt>
      <trkpt lat="44.53791" lon="3.0771">
        <ele>1251.29</ele>
        <time>2012-06-03T08:06:56Z</time>
      </trkpt>
      <trkpt lat="44.53802" lon="3.07709">
        <ele>1251.29</ele>
        <time>2012-06-03T08:07:07Z</time>
      </trkpt>
      <trkpt lat="44.53814" lon="3.07709">
        <ele>1251.77</ele>
        <time>2012-06-03T08:07:18Z</time>
      </trkpt>
      <trkpt lat="44.53825" lon="3.07706">
        <ele>1251.77</ele>
        <time>2012-06-03T08:07:27Z</time>
      </trkpt>
      <trkpt lat="44.53837" lon="3.07704">
        <ele>1252.25</ele>
        <time>2012-06-03T08:07:40Z</time>
      </trkpt>
      <trkpt lat="44.5385" lon="3.07702">
        <ele>1252.25</ele>
        <time>2012-06-03T08:07:52Z</time>
      </trkpt>
      <trkpt lat="44.53862" lon="3.07701">
        <ele>1252.25</ele>
        <time>2012-06-03T08:08:00Z</time>
      </trkpt>
      <trkpt lat="44.53872" lon="3.07699">
        <ele>1252.74</ele>
        <time>2012-06-03T08:08:08Z</time>
      </trkpt>
      <trkpt lat="44.53882" lon="3.07697">
        <ele>1252.74</ele>
        <time>2012-06-03T08:08:16Z</time>
      </trkpt>
      <trkpt lat="44.53893" lon="3.07694">
        <ele>1252.25</ele>
        <time>2012-06-03T08:08:24Z</time>
      </trkpt>
      <trkpt lat="44.53902" lon="3.07693">
        <ele>1251.77</ele>
        <time>2012-06-03T08:08:32Z</time>
      </trkpt>
      <trkpt lat="44.5391" lon="3.07689">
        <ele>1251.77</ele>
        <time>2012-06-03T08:08:40Z</time>
      </trkpt>
      <trkpt lat="44.5392" lon="3.07687">
        <ele>1252.74</ele>
        <time>2012-06-03T08:08:49Z</time>
      </trkpt>
      <trkpt lat="44.53931" lon="3.07683">
        <ele>1251.29</ele>
        <time>2012-06-03T08:08:58Z</time>
      </trkpt>
      <trkpt lat="44.53941" lon="3.07679">
        <ele>1251.29</ele>
        <time>2012-06-03T08:09:06Z</time>
      </trkpt>
      <trkpt lat="44.53951" lon="3.07676">
        <ele>1251.77</ele>
        <time>2012-06-03T08:09:13Z</time>
      </trkpt>
      <trkpt lat="44.53961" lon="3.07673">
        <ele>1251.29</ele>
        <time>2012-06-03T08:09:23Z</time>
      </trkpt>
      <trkpt lat="44.53972" lon="3.0767">
        <ele>1251.29</ele>
        <time>2012-06-03T08:09:33Z</time>
      </trkpt>
      <trkpt lat="44.53982" lon="3.07668">
        <ele>1251.29</ele>
        <time>2012-06-03T08:09:41Z</time>
      </trkpt>
      <trkpt lat="44.53993" lon="3.07667">
        <ele>1251.29</ele>
        <time>2012-06-03T08:09:50Z</time>
      </trkpt>
      <trkpt lat="44.54005" lon="3.07663">
        <ele>1251.77</ele>
        <time>2012-06-03T08:10:00Z</time>
      </trkpt>
      <trkpt lat="44.54017" lon="3.0766">
        <ele>1251.29</ele>
        <time>2012-06-03T08:10:10Z</time>
      </trkpt>
      <trkpt lat="44.54028" lon="3.07657">
        <ele>1251.29</ele>
        <time>2012-06-03T08:10:20Z</time>
      </trkpt>
      <trkpt lat="44.54039" lon="3.07655">
        <ele>1251.29</ele>
        <time>2012-06-03T08:10:39Z</time>
      </trkpt>
      <trkpt lat="44.54049" lon="3.07652">
        <ele>1251.29</ele>
        <time>2012-06-03T08:10:49Z</time>
      </trkpt>
      <trkpt lat="44.54059" lon="3.07651">
        <ele>1251.77</ele>
        <time>2012-06-03T08:10:58Z</time>
      </trkpt>
      <trkpt lat="44.54069" lon="3.07652">
        <ele>1251.29</ele>
        <time>2012-06-03T08:11:08Z</time>
      </trkpt>
      <trkpt lat="44.54082" lon="3.07652">
        <ele>1251.29</ele>
        <time>2012-06-03T08:11:19Z</time>
      </trkpt>
      <trkpt lat="44.54092" lon="3.07655">
        <ele>1252.25</ele>
        <time>2012-06-03T08:11:30Z</time>
      </trkpt>
      <trkpt lat="44.54103" lon="3.07658">
        <ele>1253.22</ele>
        <time>2012-06-03T08:11:39Z</time>
      </trkpt>
      <trkpt lat="44.54111" lon="3.07667">
        <ele>1252.74</ele>
        <time>2012-06-03T08:11:48Z</time>
      </trkpt>
      <trkpt lat="44.54118" lon="3.07679">
        <ele>1253.22</ele>
        <time>2012-06-03T08:11:57Z</time>
      </trkpt>
      <trkpt lat="44.54125" lon="3.07689">
        <ele>1254.18</ele>
        <time>2012-06-03T08:12:06Z</time>
      </trkpt>
      <trkpt lat="44.54136" lon="3.07694">
        <ele>1254.66</ele>
        <time>2012-06-03T08:12:16Z</time>
      </trkpt>
      <trkpt lat="44.54146" lon="3.07697">
        <ele>1255.62</ele>
        <time>2012-06-03T08:12:25Z</time>
      </trkpt>
      <trkpt lat="44.54156" lon="3.07701">
        <ele>1256.58</ele>
        <time>2012-06-03T08:12:36Z</time>
      </trkpt>
      <trkpt lat="44.54168" lon="3.07703">
        <ele>1258.02</ele>
        <time>2012-06-03T08:12:51Z</time>
      </trkpt>
      <trkpt lat="44.54179" lon="3.07709">
        <ele>1260.43</ele>
        <time>2012-06-03T08:13:05Z</time>
      </trkpt>
      <trkpt lat="44.5419" lon="3.07717">
        <ele>1261.39</ele>
        <time>2012-06-03T08:13:20Z</time>
      </trkpt>
      <trkpt lat="44.54202" lon="3.0772">
        <ele>1263.31</ele>
        <time>2012-06-03T08:13:39Z</time>
      </trkpt>
      <trkpt lat="44.54213" lon="3.07725">
        <ele>1264.75</ele>
        <time>2012-06-03T08:13:52Z</time>
      </trkpt>
      <trkpt lat="44.54226" lon="3.07731">
        <ele>1265.23</ele>
        <time>2012-06-03T08:14:05Z</time>
      </trkpt>
      <trkpt lat="44.54239" lon="3.07737">
        <ele>1266.67</ele>
        <time>2012-06-03T08:14:19Z</time>
      </trkpt>
      <trkpt lat="44.54253" lon="3.07744">
        <ele>1269.08</ele>
        <time>2012-06-03T08:14:38Z</time>
      </trkpt>
      <trkpt lat="44.54268" lon="3.07755">
        <ele>1270.04</ele>
        <time>2012-06-03T08:14:57Z</time>
      </trkpt>
      <trkpt lat="44.54281" lon="3.07765">
        <ele>1272.92</ele>
        <time>2012-06-03T08:15:15Z</time>
      </trkpt>
      <trkpt lat="44.54294" lon="3.07775">
        <ele>1273.88</ele>
        <time>2012-06-03T08:15:34Z</time>
      </trkpt>
      <trkpt lat="44.54304" lon="3.07783">
        <ele>1275.33</ele>
        <time>2012-06-03T08:15:50Z</time>
      </trkpt>
      <trkpt lat="44.54316" lon="3.07792">
        <ele>1276.77</ele>
        <time>2012-06-03T08:16:04Z</time>
      </trkpt>
      <trkpt lat="44.54328" lon="3.07802">
        <ele>1277.73</ele>
        <time>2012-06-03T08:16:16Z</time>
      </trkpt>
      <trkpt lat="44.54337" lon="3.0781">
        <ele>1279.17</ele>
        <time>2012-06-03T08:16:28Z</time>
      </trkpt>
      <trkpt lat="44.5435" lon="3.07819">
        <ele>1280.61</ele>
        <time>2012-06-03T08:16:43Z</time>
      </trkpt>
      <trkpt lat="44.5436" lon="3.07825">
        <ele>1281.09</ele>
        <time>2012-06-03T08:16:56Z</time>
      </trkpt>
      <trkpt lat="44.54368" lon="3.07832">
        <ele>1282.06</ele>
        <time>2012-06-03T08:17:09Z</time>
      </trkpt>
      <trkpt lat="44.54382" lon="3.07839">
        <ele>1282.54</ele>
        <time>2012-06-03T08:17:23Z</time>
      </trkpt>
      <trkpt lat="44.54392" lon="3.07845">
        <ele>1283.98</ele>
        <time>2012-06-03T08:17:37Z</time>
      </trkpt>
      <trkpt lat="44.54409" lon="3.07854">
        <ele>1285.42</ele>
        <time>2012-06-03T08:19:00Z</time>
      </trkpt>
      <trkpt lat="44.5442" lon="3.07859">
        <ele>1286.38</ele>
        <time>2012-06-03T08:19:11Z</time>
      </trkpt>
      <trkpt lat="44.54432" lon="3.07864">
        <ele>1288.78</ele>
        <time>2012-06-03T08:19:27Z</time>
      </trkpt>
      <trkpt lat="44.54444" lon="3.07866">
        <ele>1289.75</ele>
        <time>2012-06-03T08:19:38Z</time>
      </trkpt>
      <trkpt lat="44.54456" lon="3.07868">
        <ele>1290.71</ele>
        <time>2012-06-03T08:19:51Z</time>
      </trkpt>
      <trkpt lat="44.54468" lon="3.07872">
        <ele>1292.15</ele>
        <time>2012-06-03T08:20:03Z</time>
      </trkpt>
      <trkpt lat="44.54479" lon="3.07872">
        <ele>1292.63</ele>
        <time>2012-06-03T08:20:12Z</time>
      </trkpt>
      <trkpt lat="44.54489" lon="3.07872">
        <ele>1294.07</ele>
        <time>2012-06-03T08:20:22Z</time>
      </trkpt>
      <trkpt lat="44.545" lon="3.07871">
        <ele>1294.55</ele>
        <time>2012-06-03T08:20:32Z</time>
      </trkpt>
      <trkpt lat="44.54512" lon="3.0787">
        <ele>1294.55</ele>
        <time>2012-06-03T08:20:42Z</time>
      </trkpt>
      <trkpt lat="44.54522" lon="3.07867">
        <ele>1295.03</ele>
        <time>2012-06-03T08:20:51Z</time>
      </trkpt>
      <trkpt lat="44.54533" lon="3.07865">
        <ele>1295.99</ele>
        <time>2012-06-03T08:21:01Z</time>
      </trkpt>
      <trkpt lat="44.54548" lon="3.07863">
        <ele>1295.99</ele>
        <time>2012-06-03T08:21:15Z</time>
      </trkpt>
      <trkpt lat="44.5456" lon="3.07862">
        <ele>1297.44</ele>
        <time>2012-06-03T08:21:24Z</time>
      </trkpt>
      <trkpt lat="44.54571" lon="3.07861">
        <ele>1297.92</ele>
        <time>2012-06-03T08:21:34Z</time>
      </trkpt>
      <trkpt lat="44.54583" lon="3.0786">
        <ele>1298.4</ele>
        <time>2012-06-03T08:21:44Z</time>
      </trkpt>
      <trkpt lat="44.54595" lon="3.07863">
        <ele>1298.88</ele>
        <time>2012-06-03T08:21:53Z</time>
      </trkpt>
      <trkpt lat="44.54606" lon="3.07863">
        <ele>1299.84</ele>
        <time>2012-06-03T08:22:03Z</time>
      </trkpt>
      <trkpt lat="44.54618" lon="3.07866">
        <ele>1300.8</ele>
        <time>2012-06-03T08:22:14Z</time>
      </trkpt>
      <trkpt lat="44.5463" lon="3.0787">
        <ele>1301.28</ele>
        <time>2012-06-03T08:22:26Z</time>
      </trkpt>
      <trkpt lat="44.5464" lon="3.07876">
        <ele>1303.2</ele>
        <time>2012-06-03T08:22:35Z</time>
      </trkpt>
      <trkpt lat="44.54649" lon="3.07882">
        <ele>1303.69</ele>
        <time>2012-06-03T08:22:45Z</time>
      </trkpt>
      <trkpt lat="44.54658" lon="3.07888">
        <ele>1305.61</ele>
        <time>2012-06-03T08:22:54Z</time>
      </trkpt>
      <trkpt lat="44.54668" lon="3.07894">
        <ele>1305.61</ele>
        <time>2012-06-03T08:23:05Z</time>
      </trkpt>
      <trkpt lat="44.54678" lon="3.07902">
        <ele>1306.09</ele>
        <time>2012-06-03T08:23:14Z</time>
      </trkpt>
      <trkpt lat="44.54687" lon="3.07906">
        <ele>1308.01</ele>
        <time>2012-06-03T08:23:24Z</time>
      </trkpt>
      <trkpt lat="44.54698" lon="3.0791">
        <ele>1308.01</ele>
        <time>2012-06-03T08:23:34Z</time>
      </trkpt>
      <trkpt lat="44.54709" lon="3.07913">
        <ele>1308.01</ele>
        <time>2012-06-03T08:23:43Z</time>
      </trkpt>
      <trkpt lat="44.54718" lon="3.07915">
        <ele>1307.05</ele>
        <time>2012-06-03T08:23:52Z</time>
      </trkpt>
      <trkpt lat="44.5473" lon="3.07915">
        <ele>1308.01</ele>
        <time>2012-06-03T08:24:05Z</time>
      </trkpt>
      <trkpt lat="44.54742" lon="3.07919">
        <ele>1307.53</ele>
        <time>2012-06-03T08:24:16Z</time>
      </trkpt>
      <trkpt lat="44.54755" lon="3.07923">
        <ele>1308.01</ele>
        <time>2012-06-03T08:24:28Z</time>
      </trkpt>
      <trkpt lat="44.54768" lon="3.07927">
        <ele>1307.05</ele>
        <time>2012-06-03T08:24:38Z</time>
      </trkpt>
      <trkpt lat="44.54778" lon="3.07928">
        <ele>1308.01</ele>
        <time>2012-06-03T08:24:47Z</time>
      </trkpt>
      <trkpt lat="44.54789" lon="3.07932">
        <ele>1308.01</ele>
        <time>2012-06-03T08:24:58Z</time>
      </trkpt>
      <trkpt lat="44.54802" lon="3.07936">
        <ele>1307.53</ele>
        <time>2012-06-03T08:25:11Z</time>
      </trkpt>
      <trkpt lat="44.54814" lon="3.0794">
        <ele>1307.53</ele>
        <time>2012-06-03T08:25:21Z</time>
      </trkpt>
      <trkpt lat="44.54827" lon="3.07945">
        <ele>1308.01</ele>
        <time>2012-06-03T08:25:33Z</time>
      </trkpt>
      <trkpt lat="44.54839" lon="3.0795">
        <ele>1308.49</ele>
        <time>2012-06-03T08:25:43Z</time>
      </trkpt>
      <trkpt lat="44.54851" lon="3.07954">
        <ele>1308.97</ele>
        <time>2012-06-03T08:25:53Z</time>
      </trkpt>
      <trkpt lat="44.54862" lon="3.07958">
        <ele>1309.45</ele>
        <time>2012-06-03T08:26:03Z</time>
      </trkpt>
      <trkpt lat="44.54873" lon="3.07963">
        <ele>1310.41</ele>
        <time>2012-06-03T08:26:16Z</time>
      </trkpt>
      <trkpt lat="44.54885" lon="3.07967">
        <ele>1310.41</ele>
        <time>2012-06-03T08:26:27Z</time>
      </trkpt>
      <trkpt lat="44.54896" lon="3.07971">
        <ele>1311.86</ele>
        <time>2012-06-03T08:26:37Z</time>
      </trkpt>
      <trkpt lat="44.54906" lon="3.07976">
        <ele>1312.82</ele>
        <time>2012-06-03T08:26:49Z</time>
      </trkpt>
      <trkpt lat="44.54915" lon="3.07981">
        <ele>1313.3</ele>
        <time>2012-06-03T08:27:00Z</time>
      </trkpt>
      <trkpt lat="44.54925" lon="3.07987">
        <ele>1314.74</ele>
        <time>2012-06-03T08:27:13Z</time>
      </trkpt>
      <trkpt lat="44.54936" lon="3.07991">
        <ele>1315.7</ele>
        <time>2012-06-03T08:27:24Z</time>
      </trkpt>
      <trkpt lat="44.54947" lon="3.07996">
        <ele>1316.66</ele>
        <time>2012-06-03T08:27:35Z</time>
      </trkpt>
      <trkpt lat="44.54959" lon="3.08001">
        <ele>1317.62</ele>
        <time>2012-06-03T08:27:50Z</time>
      </trkpt>
      <trkpt lat="44.5497" lon="3.08005">
        <ele>1319.55</ele>
        <time>2012-06-03T08:28:04Z</time>
      </trkpt>
      <trkpt lat="44.54983" lon="3.0801">
        <ele>1319.55</ele>
        <time>2012-06-03T08:28:16Z</time>
      </trkpt>
      <trkpt lat="44.54993" lon="3.08015">
        <ele>1321.47</ele>
        <time>2012-06-03T08:28:27Z</time>
      </trkpt>
      <trkpt lat="44.55004" lon="3.08018">
        <ele>1322.43</ele>
        <time>2012-06-03T08:28:38Z</time>
      </trkpt>
      <trkpt lat="44.55014" lon="3.08023">
        <ele>1322.43</ele>
        <time>2012-06-03T08:28:49Z</time>
      </trkpt>
      <trkpt lat="44.55024" lon="3.08027">
        <ele>1324.35</ele>
        <time>2012-06-03T08:29:00Z</time>
      </trkpt>
      <trkpt lat="44.55035" lon="3.08032">
        <ele>1325.8</ele>
        <time>2012-06-03T08:29:13Z</time>
      </trkpt>
      <trkpt lat="44.55045" lon="3.08037">
        <ele>1326.76</ele>
        <time>2012-06-03T08:29:22Z</time>
      </trkpt>
      <trkpt lat="44.55055" lon="3.08042">
        <ele>1327.24</ele>
        <time>2012-06-03T08:29:34Z</time>
      </trkpt>
      <trkpt lat="44.55065" lon="3.08045">
        <ele>1327.72</ele>
        <time>2012-06-03T08:29:47Z</time>
      </trkpt>
      <trkpt lat="44.55076" lon="3.08046">
        <ele>1328.68</ele>
        <time>2012-06-03T08:30:11Z</time>
      </trkpt>
      <trkpt lat="44.55089" lon="3.08044">
        <ele>1329.16</ele>
        <time>2012-06-03T08:30:23Z</time>
      </trkpt>
      <trkpt lat="44.55103" lon="3.08044">
        <ele>1331.08</ele>
        <time>2012-06-03T08:30:37Z</time>
      </trkpt>
      <trkpt lat="44.55113" lon="3.08039">
        <ele>1332.52</ele>
        <time>2012-06-03T08:30:47Z</time>
      </trkpt>
      <trkpt lat="44.55122" lon="3.08035">
        <ele>1333.01</ele>
        <time>2012-06-03T08:30:57Z</time>
      </trkpt>
      <trkpt lat="44.55129" lon="3.08026">
        <ele>1334.45</ele>
        <time>2012-06-03T08:31:07Z</time>
      </trkpt>
      <trkpt lat="44.55133" lon="3.08014">
        <ele>1335.41</ele>
        <time>2012-06-03T08:31:17Z</time>
      </trkpt>
      <trkpt lat="44.55139" lon="3.08">
        <ele>1335.89</ele>
        <time>2012-06-03T08:31:27Z</time>
      </trkpt>
      <trkpt lat="44.55142" lon="3.07986">
        <ele>1335.41</ele>
        <time>2012-06-03T08:31:37Z</time>
      </trkpt>
      <trkpt lat="44.55145" lon="3.07971">
        <ele>1335.89</ele>
        <time>2012-06-03T08:31:46Z</time>
      </trkpt>
      <trkpt lat="44.55149" lon="3.07957">
        <ele>1335.89</ele>
        <time>2012-06-03T08:31:56Z</time>
      </trkpt>
      <trkpt lat="44.55152" lon="3.07944">
        <ele>1335.41</ele>
        <time>2012-06-03T08:32:05Z</time>
      </trkpt>
      <trkpt lat="44.55154" lon="3.07928">
        <ele>1334.45</ele>
        <time>2012-06-03T08:32:15Z</time>
      </trkpt>
      <trkpt lat="44.55155" lon="3.0791">
        <ele>1333.01</ele>
        <time>2012-06-03T08:33:27Z</time>
      </trkpt>
      <trkpt lat="44.55155" lon="3.07895">
        <ele>1333.01</ele>
        <time>2012-06-03T08:33:36Z</time>
      </trkpt>
      <trkpt lat="44.55155" lon="3.0788">
        <ele>1332.52</ele>
        <time>2012-06-03T08:33:45Z</time>
      </trkpt>
      <trkpt lat="44.55156" lon="3.07865">
        <ele>1332.04</ele>
        <time>2012-06-03T08:33:54Z</time>
      </trkpt>
      <trkpt lat="44.55156" lon="3.07851">
        <ele>1331.56</ele>
        <time>2012-06-03T08:34:02Z</time>
      </trkpt>
      <trkpt lat="44.55157" lon="3.07836">
        <ele>1330.6</ele>
        <time>2012-06-03T08:34:10Z</time>
      </trkpt>
      <trkpt lat="44.55158" lon="3.07823">
        <ele>1330.6</ele>
        <time>2012-06-03T08:34:17Z</time>
      </trkpt>
      <trkpt lat="44.5516" lon="3.07809">
        <ele>1329.64</ele>
        <time>2012-06-03T08:34:26Z</time>
      </trkpt>
      <trkpt lat="44.55161" lon="3.07796">
        <ele>1328.2</ele>
        <time>2012-06-03T08:34:32Z</time>
      </trkpt>
      <trkpt lat="44.55161" lon="3.07783">
        <ele>1327.72</ele>
        <time>2012-06-03T08:34:39Z</time>
      </trkpt>
      <trkpt lat="44.55164" lon="3.07771">
        <ele>1327.72</ele>
        <time>2012-06-03T08:34:47Z</time>
      </trkpt>
      <trkpt lat="44.55168" lon="3.07757">
        <ele>1328.2</ele>
        <time>2012-06-03T08:34:57Z</time>
      </trkpt>
      <trkpt lat="44.55175" lon="3.07746">
        <ele>1328.2</ele>
        <time>2012-06-03T08:35:05Z</time>
      </trkpt>
      <trkpt lat="44.55181" lon="3.07735">
        <ele>1328.68</ele>
        <time>2012-06-03T08:35:15Z</time>
      </trkpt>
      <trkpt lat="44.55187" lon="3.07722">
        <ele>1328.2</ele>
        <time>2012-06-03T08:35:24Z</time>
      </trkpt>
      <trkpt lat="44.55193" lon="3.0771">
        <ele>1329.64</ele>
        <time>2012-06-03T08:35:33Z</time>
      </trkpt>
      <trkpt lat="44.552" lon="3.07696">
        <ele>1330.6</ele>
        <time>2012-06-03T08:35:42Z</time>
      </trkpt>
      <trkpt lat="44.55206" lon="3.07685">
        <ele>1330.6</ele>
        <time>2012-06-03T08:35:51Z</time>
      </trkpt>
      <trkpt lat="44.55214" lon="3.07674">
        <ele>1330.6</ele>
        <time>2012-06-03T08:36:00Z</time>
      </trkpt>
      <trkpt lat="44.55222" lon="3.07666">
        <ele>1330.6</ele>
        <time>2012-06-03T08:36:08Z</time>
      </trkpt>
      <trkpt lat="44.55231" lon="3.07658">
        <ele>1331.08</ele>
        <time>2012-06-03T08:36:17Z</time>
      </trkpt>
      <trkpt lat="44.55239" lon="3.07647">
        <ele>1331.56</ele>
        <time>2012-06-03T08:36:29Z</time>
      </trkpt>
      <trkpt lat="44.55247" lon="3.07637">
        <ele>1332.52</ele>
        <time>2012-06-03T08:36:39Z</time>
      </trkpt>
      <trkpt lat="44.55255" lon="3.07627">
        <ele>1332.52</ele>
        <time>2012-06-03T08:36:48Z</time>
      </trkpt>
      <trkpt lat="44.55263" lon="3.07617">
        <ele>1333.01</ele>
        <time>2012-06-03T08:36:58Z</time>
      </trkpt>
      <trkpt lat="44.55271" lon="3.07607">
        <ele>1333.97</ele>
        <time>2012-06-03T08:37:08Z</time>
      </trkpt>
      <trkpt lat="44.5528" lon="3.07601">
        <ele>1334.93</ele>
        <time>2012-06-03T08:37:17Z</time>
      </trkpt>
      <trkpt lat="44.55289" lon="3.07593">
        <ele>1334.45</ele>
        <time>2012-06-03T08:37:25Z</time>
      </trkpt>
      <trkpt lat="44.55297" lon="3.07585">
        <ele>1334.93</ele>
        <time>2012-06-03T08:37:34Z</time>
      </trkpt>
      <trkpt lat="44.55305" lon="3.07577">
        <ele>1336.37</ele>
        <time>2012-06-03T08:37:44Z</time>
      </trkpt>
      <trkpt lat="44.55311" lon="3.07565">
        <ele>1336.37</ele>
        <time>2012-06-03T08:37:54Z</time>
      </trkpt>
      <trkpt lat="44.55317" lon="3.07554">
        <ele>1336.37</ele>
        <time>2012-06-03T08:38:03Z</time>
      </trkpt>
      <trkpt lat="44.55324" lon="3.07543">
        <ele>1335.89</ele>
        <time>2012-06-03T08:38:12Z</time>
      </trkpt>
      <trkpt lat="44.55332" lon="3.07533">
        <ele>1335.89</ele>
        <time>2012-06-03T08:38:23Z</time>
      </trkpt>
      <trkpt lat="44.55337" lon="3.07521">
        <ele>1335.89</ele>
        <time>2012-06-03T08:38:32Z</time>
      </trkpt>
      <trkpt lat="44.55344" lon="3.07511">
        <ele>1335.89</ele>
        <time>2012-06-03T08:38:41Z</time>
      </trkpt>
      <trkpt lat="44.55351" lon="3.07501">
        <ele>1335.89</ele>
        <time>2012-06-03T08:38:50Z</time>
      </trkpt>
      <trkpt lat="44.55358" lon="3.0749">
        <ele>1336.37</ele>
        <time>2012-06-03T08:39:00Z</time>
      </trkpt>
      <trkpt lat="44.55366" lon="3.07479">
        <ele>1335.89</ele>
        <time>2012-06-03T08:39:10Z</time>
      </trkpt>
      <trkpt lat="44.55374" lon="3.07468">
        <ele>1336.37</ele>
        <time>2012-06-03T08:39:20Z</time>
      </trkpt>
      <trkpt lat="44.55381" lon="3.07458">
        <ele>1335.41</ele>
        <time>2012-06-03T08:39:29Z</time>
      </trkpt>
      <trkpt lat="44.5539" lon="3.07447">
        <ele>1335.89</ele>
        <time>2012-06-03T08:39:39Z</time>
      </trkpt>
      <trkpt lat="44.55399" lon="3.07437">
        <ele>1336.37</ele>
        <time>2012-06-03T08:39:49Z</time>
      </trkpt>
      <trkpt lat="44.55408" lon="3.07428">
        <ele>1336.85</ele>
        <time>2012-06-03T08:39:59Z</time>
      </trkpt>
      <trkpt lat="44.55418" lon="3.07418">
        <ele>1335.89</ele>
        <time>2012-06-03T08:40:11Z</time>
      </trkpt>
      <trkpt lat="44.55427" lon="3.07409">
        <ele>1335.89</ele>
        <time>2012-06-03T08:40:20Z</time>
      </trkpt>
      <trkpt lat="44.55435" lon="3.07399">
        <ele>1335.89</ele>
        <time>2012-06-03T08:40:31Z</time>
      </trkpt>
      <trkpt lat="44.55443" lon="3.07389">
        <ele>1335.89</ele>
        <time>2012-06-03T08:40:42Z</time>
      </trkpt>
      <trkpt lat="44.5545" lon="3.07378">
        <ele>1336.85</ele>
        <time>2012-06-03T08:40:53Z</time>
      </trkpt>
      <trkpt lat="44.5546" lon="3.07369">
        <ele>1336.85</ele>
        <time>2012-06-03T08:41:05Z</time>
      </trkpt>
      <trkpt lat="44.55469" lon="3.07361">
        <ele>1337.81</ele>
        <time>2012-06-03T08:41:15Z</time>
      </trkpt>
      <trkpt lat="44.55475" lon="3.07349">
        <ele>1336.85</ele>
        <time>2012-06-03T08:41:27Z</time>
      </trkpt>
      <trkpt lat="44.55481" lon="3.07337">
        <ele>1336.37</ele>
        <time>2012-06-03T08:41:37Z</time>
      </trkpt>
      <trkpt lat="44.55488" lon="3.07327">
        <ele>1336.85</ele>
        <time>2012-06-03T08:41:47Z</time>
      </trkpt>
      <trkpt lat="44.55493" lon="3.07313">
        <ele>1336.37</ele>
        <time>2012-06-03T08:41:58Z</time>
      </trkpt>
      <trkpt lat="44.555" lon="3.07301">
        <ele>1337.33</ele>
        <time>2012-06-03T08:42:08Z</time>
      </trkpt>
      <trkpt lat="44.55502" lon="3.07286">
        <ele>1337.33</ele>
        <time>2012-06-03T08:42:27Z</time>
      </trkpt>
      <trkpt lat="44.55509" lon="3.07275">
        <ele>1338.77</ele>
        <time>2012-06-03T08:42:38Z</time>
      </trkpt>
      <trkpt lat="44.55515" lon="3.07262">
        <ele>1337.81</ele>
        <time>2012-06-03T08:42:53Z</time>
      </trkpt>
      <trkpt lat="44.5552" lon="3.07248">
        <ele>1337.81</ele>
        <time>2012-06-03T08:43:02Z</time>
      </trkpt>
      <trkpt lat="44.55526" lon="3.07234">
        <ele>1338.29</ele>
        <time>2012-06-03T08:43:15Z</time>
      </trkpt>
      <trkpt lat="44.55531" lon="3.0722">
        <ele>1337.81</ele>
        <time>2012-06-03T08:43:30Z</time>
      </trkpt>
      <trkpt lat="44.55539" lon="3.0721">
        <ele>1337.33</ele>
        <time>2012-06-03T08:43:43Z</time>
      </trkpt>
      <trkpt lat="44.55546" lon="3.072">
        <ele>1337.33</ele>
        <time>2012-06-03T08:43:52Z</time>
      </trkpt>
      <trkpt lat="44.55552" lon="3.0719">
        <ele>1336.85</ele>
        <time>2012-06-03T08:44:02Z</time>
      </trkpt>
      <trkpt lat="44.55559" lon="3.07179">
        <ele>1337.33</ele>
        <time>2012-06-03T08:44:15Z</time>
      </trkpt>
      <trkpt lat="44.55566" lon="3.07168">
        <ele>1338.29</ele>
        <time>2012-06-03T08:44:26Z</time>
      </trkpt>
      <trkpt lat="44.55574" lon="3.07156">
        <ele>1339.25</ele>
        <time>2012-06-03T08:44:39Z</time>
      </trkpt>
      <trkpt lat="44.55581" lon="3.07146">
        <ele>1341.18</ele>
        <time>2012-06-03T08:44:53Z</time>
      </trkpt>
      <trkpt lat="44.55582" lon="3.07138">
        <ele>1341.66</ele>
        <time>2012-06-03T08:45:06Z</time>
      </trkpt>
      <trkpt lat="44.55585" lon="3.07137">
        <ele>1342.14</ele>
        <time>2012-06-03T08:45:23Z</time>
      </trkpt>
      <trkpt lat="44.55595" lon="3.07136">
        <ele>1343.58</ele>
        <time>2012-06-03T08:45:34Z</time>
      </trkpt>
      <trkpt lat="44.55608" lon="3.07134">
        <ele>1344.54</ele>
        <time>2012-06-03T08:45:48Z</time>
      </trkpt>
      <trkpt lat="44.55619" lon="3.07133">
        <ele>1345.5</ele>
        <time>2012-06-03T08:46:02Z</time>
      </trkpt>
      <trkpt lat="44.55633" lon="3.0713">
        <ele>1346.46</ele>
        <time>2012-06-03T08:46:16Z</time>
      </trkpt>
      <trkpt lat="44.55645" lon="3.07127">
        <ele>1347.43</ele>
        <time>2012-06-03T08:46:30Z</time>
      </trkpt>
      <trkpt lat="44.55657" lon="3.07127">
        <ele>1348.39</ele>
        <time>2012-06-03T08:46:39Z</time>
      </trkpt>
      <trkpt lat="44.55668" lon="3.07127">
        <ele>1349.35</ele>
        <time>2012-06-03T08:46:47Z</time>
      </trkpt>
      <trkpt lat="44.55679" lon="3.07128">
        <ele>1349.35</ele>
        <time>2012-06-03T08:46:59Z</time>
      </trkpt>
      <trkpt lat="44.5569" lon="3.0713">
        <ele>1349.83</ele>
        <time>2012-06-03T08:47:07Z</time>
      </trkpt>
      <trkpt lat="44.55702" lon="3.07132">
        <ele>1350.31</ele>
        <time>2012-06-03T08:47:17Z</time>
      </trkpt>
      <trkpt lat="44.55711" lon="3.07138">
        <ele>1351.27</ele>
        <time>2012-06-03T08:47:28Z</time>
      </trkpt>
      <trkpt lat="44.5572" lon="3.07144">
        <ele>1352.23</ele>
        <time>2012-06-03T08:47:39Z</time>
      </trkpt>
      <trkpt lat="44.55735" lon="3.07147">
        <ele>1352.23</ele>
        <time>2012-06-03T08:48:52Z</time>
      </trkpt>
      <trkpt lat="44.55742" lon="3.07153">
        <ele>1351.75</ele>
        <time>2012-06-03T08:49:02Z</time>
      </trkpt>
      <trkpt lat="44.55753" lon="3.07161">
        <ele>1351.75</ele>
        <time>2012-06-03T08:49:12Z</time>
      </trkpt>
      <trkpt lat="44.55762" lon="3.07168">
        <ele>1352.23</ele>
        <time>2012-06-03T08:49:21Z</time>
      </trkpt>
      <trkpt lat="44.55771" lon="3.07175">
        <ele>1353.19</ele>
        <time>2012-06-03T08:49:30Z</time>
      </trkpt>
      <trkpt lat="44.55781" lon="3.07182">
        <ele>1353.67</ele>
        <time>2012-06-03T08:49:39Z</time>
      </trkpt>
      <trkpt lat="44.55789" lon="3.07188">
        <ele>1353.19</ele>
        <time>2012-06-03T08:49:51Z</time>
      </trkpt>
      <trkpt lat="44.558" lon="3.07198">
        <ele>1354.15</ele>
        <time>2012-06-03T08:50:04Z</time>
      </trkpt>
      <trkpt lat="44.55809" lon="3.07205">
        <ele>1354.63</ele>
        <time>2012-06-03T08:50:13Z</time>
      </trkpt>
      <trkpt lat="44.55816" lon="3.07213">
        <ele>1354.63</ele>
        <time>2012-06-03T08:50:22Z</time>
      </trkpt>
      <trkpt lat="44.55824" lon="3.07221">
        <ele>1354.63</ele>
        <time>2012-06-03T08:50:37Z</time>
      </trkpt>
      <trkpt lat="44.55835" lon="3.07227">
        <ele>1354.63</ele>
        <time>2012-06-03T08:50:45Z</time>
      </trkpt>
      <trkpt lat="44.55843" lon="3.07236">
        <ele>1355.6</ele>
        <time>2012-06-03T08:50:54Z</time>
      </trkpt>
      <trkpt lat="44.55851" lon="3.07246">
        <ele>1355.6</ele>
        <time>2012-06-03T08:51:03Z</time>
      </trkpt>
      <trkpt lat="44.55861" lon="3.07255">
        <ele>1354.63</ele>
        <time>2012-06-03T08:51:11Z</time>
      </trkpt>
      <trkpt lat="44.55872" lon="3.07264">
        <ele>1354.63</ele>
        <time>2012-06-03T08:51:20Z</time>
      </trkpt>
      <trkpt lat="44.5588" lon="3.07273">
        <ele>1354.15</ele>
        <time>2012-06-03T08:51:29Z</time>
      </trkpt>
      <trkpt lat="44.55885" lon="3.07285">
        <ele>1354.63</ele>
        <time>2012-06-03T08:51:40Z</time>
      </trkpt>
      <trkpt lat="44.55892" lon="3.07297">
        <ele>1353.67</ele>
        <time>2012-06-03T08:51:49Z</time>
      </trkpt>
      <trkpt lat="44.55899" lon="3.07307">
        <ele>1354.15</ele>
        <time>2012-06-03T08:51:59Z</time>
      </trkpt>
      <trkpt lat="44.55906" lon="3.07313">
        <ele>1353.67</ele>
        <time>2012-06-03T08:52:24Z</time>
      </trkpt>
      <trkpt lat="44.55917" lon="3.07326">
        <ele>1353.19</ele>
        <time>2012-06-03T08:52:43Z</time>
      </trkpt>
      <trkpt lat="44.55926" lon="3.07342">
        <ele>1353.19</ele>
        <time>2012-06-03T08:52:59Z</time>
      </trkpt>
      <trkpt lat="44.55935" lon="3.07357">
        <ele>1353.67</ele>
        <time>2012-06-03T08:53:11Z</time>
      </trkpt>
      <trkpt lat="44.55946" lon="3.07362">
        <ele>1354.15</ele>
        <time>2012-06-03T08:53:22Z</time>
      </trkpt>
      <trkpt lat="44.55955" lon="3.07371">
        <ele>1354.15</ele>
        <time>2012-06-03T08:53:33Z</time>
      </trkpt>
      <trkpt lat="44.55966" lon="3.07379">
        <ele>1354.15</ele>
        <time>2012-06-03T08:53:45Z</time>
      </trkpt>
      <trkpt lat="44.55975" lon="3.07386">
        <ele>1354.63</ele>
        <time>2012-06-03T08:53:55Z</time>
      </trkpt>
      <trkpt lat="44.55986" lon="3.07395">
        <ele>1354.63</ele>
        <time>2012-06-03T08:54:04Z</time>
      </trkpt>
      <trkpt lat="44.55994" lon="3.07405">
        <ele>1354.15</ele>
        <time>2012-06-03T08:54:13Z</time>
      </trkpt>
      <trkpt lat="44.56001" lon="3.07417">
        <ele>1354.63</ele>
        <time>2012-06-03T08:54:22Z</time>
      </trkpt>
      <trkpt lat="44.56007" lon="3.0743">
        <ele>1354.63</ele>
        <time>2012-06-03T08:54:31Z</time>
      </trkpt>
      <trkpt lat="44.56017" lon="3.07439">
        <ele>1355.12</ele>
        <time>2012-06-03T08:54:41Z</time>
      </trkpt>
      <trkpt lat="44.56028" lon="3.07448">
        <ele>1355.6</ele>
        <time>2012-06-03T08:54:52Z</time>
      </trkpt>
      <trkpt lat="44.56039" lon="3.07453">
        <ele>1357.04</ele>
        <time>2012-06-03T08:55:03Z</time>
      </trkpt>
      <trkpt lat="44.56049" lon="3.0746">
        <ele>1358.48</ele>
        <time>2012-06-03T08:55:15Z</time>
      </trkpt>
      <trkpt lat="44.5606" lon="3.07468">
        <ele>1360.88</ele>
        <time>2012-06-03T08:55:32Z</time>
      </trkpt>
      <trkpt lat="44.56072" lon="3.0747">
        <ele>1362.33</ele>
        <time>2012-06-03T08:55:46Z</time>
      </trkpt>
      <trkpt lat="44.56083" lon="3.07472">
        <ele>1363.77</ele>
        <time>2012-06-03T08:55:57Z</time>
      </trkpt>
      <trkpt lat="44.56092" lon="3.07477">
        <ele>1364.25</ele>
        <time>2012-06-03T08:56:07Z</time>
      </trkpt>
      <trkpt lat="44.56102" lon="3.07479">
        <ele>1365.21</ele>
        <time>2012-06-03T08:56:20Z</time>
      </trkpt>
      <trkpt lat="44.56112" lon="3.0747">
        <ele>1365.21</ele>
        <time>2012-06-03T08:56:32Z</time>
      </trkpt>
      <trkpt lat="44.56123" lon="3.07463">
        <ele>1366.17</ele>
        <time>2012-06-03T08:56:50Z</time>
      </trkpt>
      <trkpt lat="44.56132" lon="3.07455">
        <ele>1367.13</ele>
        <time>2012-06-03T08:57:00Z</time>
      </trkpt>
      <trkpt lat="44.56142" lon="3.07448">
        <ele>1367.61</ele>
        <time>2012-06-03T08:57:11Z</time>
      </trkpt>
      <trkpt lat="44.56151" lon="3.07439">
        <ele>1368.57</ele>
        <time>2012-06-03T08:57:25Z</time>
      </trkpt>
      <trkpt lat="44.56158" lon="3.07432">
        <ele>1369.54</ele>
        <time>2012-06-03T08:57:39Z</time>
      </trkpt>
      <trkpt lat="44.56168" lon="3.07427">
        <ele>1371.94</ele>
        <time>2012-06-03T08:58:01Z</time>
      </trkpt>
      <trkpt lat="44.56179" lon="3.07422">
        <ele>1372.9</ele>
        <time>2012-06-03T08:59:33Z</time>
      </trkpt>
      <trkpt lat="44.5619" lon="3.0742">
        <ele>1374.34</ele>
        <time>2012-06-03T08:59:50Z</time>
      </trkpt>
      <trkpt lat="44.56199" lon="3.0741">
        <ele>1374.34</ele>
        <time>2012-06-03T09:00:09Z</time>
      </trkpt>
      <trkpt lat="44.56207" lon="3.07401">
        <ele>1374.82</ele>
        <time>2012-06-03T09:00:19Z</time>
      </trkpt>
      <trkpt lat="44.56216" lon="3.07394">
        <ele>1375.3</ele>
        <time>2012-06-03T09:00:26Z</time>
      </trkpt>
      <trkpt lat="44.56224" lon="3.07389">
        <ele>1375.78</ele>
        <time>2012-06-03T09:00:37Z</time>
      </trkpt>
      <trkpt lat="44.56232" lon="3.07381">
        <ele>1376.75</ele>
        <time>2012-06-03T09:00:48Z</time>
      </trkpt>
      <trkpt lat="44.56238" lon="3.0737">
        <ele>1377.23</ele>
        <time>2012-06-03T09:00:58Z</time>
      </trkpt>
      <trkpt lat="44.56242" lon="3.0736">
        <ele>1377.71</ele>
        <time>2012-06-03T09:01:10Z</time>
      </trkpt>
      <trkpt lat="44.56253" lon="3.07348">
        <ele>1377.71</ele>
        <time>2012-06-03T09:01:21Z</time>
      </trkpt>
      <trkpt lat="44.56263" lon="3.07338">
        <ele>1378.19</ele>
        <time>2012-06-03T09:01:30Z</time>
      </trkpt>
      <trkpt lat="44.56266" lon="3.07324">
        <ele>1378.67</ele>
        <time>2012-06-03T09:01:42Z</time>
      </trkpt>
      <trkpt lat="44.56272" lon="3.07311">
        <ele>1379.15</ele>
        <time>2012-06-03T09:01:51Z</time>
      </trkpt>
      <trkpt lat="44.56279" lon="3.07297">
        <ele>1379.15</ele>
        <time>2012-06-03T09:02:02Z</time>
      </trkpt>
      <trkpt lat="44.56284" lon="3.07282">
        <ele>1380.59</ele>
        <time>2012-06-03T09:02:17Z</time>
      </trkpt>
      <trkpt lat="44.56294" lon="3.07266">
        <ele>1381.07</ele>
        <time>2012-06-03T09:02:36Z</time>
      </trkpt>
      <trkpt lat="44.56304" lon="3.07249">
        <ele>1382.03</ele>
        <time>2012-06-03T09:02:57Z</time>
      </trkpt>
      <trkpt lat="44.56305" lon="3.07238">
        <ele>1382.51</ele>
        <time>2012-06-03T09:03:08Z</time>
      </trkpt>
      <trkpt lat="44.56316" lon="3.07225">
        <ele>1382.99</ele>
        <time>2012-06-03T09:03:21Z</time>
      </trkpt>
      <trkpt lat="44.56328" lon="3.07215">
        <ele>1383.96</ele>
        <time>2012-06-03T09:03:41Z</time>
      </trkpt>
      <trkpt lat="44.56336" lon="3.07204">
        <ele>1385.4</ele>
        <time>2012-06-03T09:03:55Z</time>
      </trkpt>
      <trkpt lat="44.56343" lon="3.07191">
        <ele>1386.84</ele>
        <time>2012-06-03T09:04:11Z</time>
      </trkpt>
      <trkpt lat="44.56345" lon="3.07176">
        <ele>1387.8</ele>
        <time>2012-06-03T09:04:30Z</time>
      </trkpt>
      <trkpt lat="44.56351" lon="3.07163">
        <ele>1388.76</ele>
        <time>2012-06-03T09:05:28Z</time>
      </trkpt>
      <trkpt lat="44.56354" lon="3.07149">
        <ele>1387.8</ele>
        <time>2012-06-03T09:08:42Z</time>
      </trkpt>
      <trkpt lat="44.56356" lon="3.0714">
        <ele>1387.8</ele>
        <time>2012-06-03T09:08:50Z</time>
      </trkpt>
      <trkpt lat="44.56358" lon="3.07128">
        <ele>1387.8</ele>
        <time>2012-06-03T09:09:00Z</time>
      </trkpt>
      <trkpt lat="44.56361" lon="3.07115">
        <ele>1388.76</ele>
        <time>2012-06-03T09:09:10Z</time>
      </trkpt>
      <trkpt lat="44.56363" lon="3.07102">
        <ele>1388.76</ele>
        <time>2012-06-03T09:09:20Z</time>
      </trkpt>
      <trkpt lat="44.56367" lon="3.07086">
        <ele>1389.72</ele>
        <time>2012-06-03T09:09:31Z</time>
      </trkpt>
      <trkpt lat="44.56372" lon="3.07072">
        <ele>1390.68</ele>
        <time>2012-06-03T09:09:42Z</time>
      </trkpt>
      <trkpt lat="44.56376" lon="3.07058">
        <ele>1390.2</ele>
        <time>2012-06-03T09:09:52Z</time>
      </trkpt>
      <trkpt lat="44.5638" lon="3.07045">
        <ele>1390.2</ele>
        <time>2012-06-03T09:09:59Z</time>
      </trkpt>
      <trkpt lat="44.56382" lon="3.07032">
        <ele>1390.68</ele>
        <time>2012-06-03T09:10:08Z</time>
      </trkpt>
      <trkpt lat="44.56385" lon="3.07018">
        <ele>1390.68</ele>
        <time>2012-06-03T09:10:17Z</time>
      </trkpt>
      <trkpt lat="44.56387" lon="3.07005">
        <ele>1390.2</ele>
        <time>2012-06-03T09:10:27Z</time>
      </trkpt>
      <trkpt lat="44.56387" lon="3.06989">
        <ele>1391.17</ele>
        <time>2012-06-03T09:10:35Z</time>
      </trkpt>
      <trkpt lat="44.56388" lon="3.06975">
        <ele>1391.17</ele>
        <time>2012-06-03T09:10:42Z</time>
      </trkpt>
      <trkpt lat="44.5639" lon="3.06962">
        <ele>1391.65</ele>
        <time>2012-06-03T09:10:50Z</time>
      </trkpt>
      <trkpt lat="44.56392" lon="3.06948">
        <ele>1391.65</ele>
        <time>2012-06-03T09:10:59Z</time>
      </trkpt>
      <trkpt lat="44.56395" lon="3.06934">
        <ele>1390.2</ele>
        <time>2012-06-03T09:11:08Z</time>
      </trkpt>
      <trkpt lat="44.56399" lon="3.0692">
        <ele>1390.2</ele>
        <time>2012-06-03T09:11:16Z</time>
      </trkpt>
      <trkpt lat="44.56403" lon="3.06906">
        <ele>1389.72</ele>
        <time>2012-06-03T09:11:25Z</time>
      </trkpt>
      <trkpt lat="44.56409" lon="3.06895">
        <ele>1390.2</ele>
        <time>2012-06-03T09:11:33Z</time>
      </trkpt>
      <trkpt lat="44.56415" lon="3.06884">
        <ele>1390.2</ele>
        <time>2012-06-03T09:11:40Z</time>
      </trkpt>
      <trkpt lat="44.56419" lon="3.06871">
        <ele>1389.24</ele>
        <time>2012-06-03T09:11:50Z</time>
      </trkpt>
      <trkpt lat="44.56426" lon="3.0686">
        <ele>1388.76</ele>
        <time>2012-06-03T09:11:58Z</time>
      </trkpt>
      <trkpt lat="44.56433" lon="3.0685">
        <ele>1389.72</ele>
        <time>2012-06-03T09:12:06Z</time>
      </trkpt>
      <trkpt lat="44.5644" lon="3.0684">
        <ele>1388.76</ele>
        <time>2012-06-03T09:12:15Z</time>
      </trkpt>
      <trkpt lat="44.5645" lon="3.06833">
        <ele>1390.2</ele>
        <time>2012-06-03T09:12:24Z</time>
      </trkpt>
      <trkpt lat="44.56458" lon="3.06822">
        <ele>1392.13</ele>
        <time>2012-06-03T09:12:39Z</time>
      </trkpt>
      <trkpt lat="44.56467" lon="3.06811">
        <ele>1393.57</ele>
        <time>2012-06-03T09:12:51Z</time>
      </trkpt>
      <trkpt lat="44.5647" lon="3.06803">
        <ele>1394.05</ele>
        <time>2012-06-03T09:13:07Z</time>
      </trkpt>
      <trkpt lat="44.56479" lon="3.06793">
        <ele>1394.53</ele>
        <time>2012-06-03T09:13:17Z</time>
      </trkpt>
      <trkpt lat="44.56488" lon="3.06785">
        <ele>1395.01</ele>
        <time>2012-06-03T09:13:27Z</time>
      </trkpt>
      <trkpt lat="44.56495" lon="3.06773">
        <ele>1393.57</ele>
        <time>2012-06-03T09:13:39Z</time>
      </trkpt>
      <trkpt lat="44.56501" lon="3.0676">
        <ele>1394.53</ele>
        <time>2012-06-03T09:13:47Z</time>
      </trkpt>
      <trkpt lat="44.56507" lon="3.06748">
        <ele>1394.05</ele>
        <time>2012-06-03T09:13:58Z</time>
      </trkpt>
      <trkpt lat="44.56516" lon="3.06738">
        <ele>1393.57</ele>
        <time>2012-06-03T09:14:07Z</time>
      </trkpt>
      <trkpt lat="44.56525" lon="3.06728">
        <ele>1393.57</ele>
        <time>2012-06-03T09:14:17Z</time>
      </trkpt>
      <trkpt lat="44.56532" lon="3.06719">
        <ele>1392.13</ele>
        <time>2012-06-03T09:14:26Z</time>
      </trkpt>
      <trkpt lat="44.56543" lon="3.06712">
        <ele>1392.61</ele>
        <time>2012-06-03T09:14:35Z</time>
      </trkpt>
      <trkpt lat="44.56552" lon="3.06704">
        <ele>1392.13</ele>
        <time>2012-06-03T09:14:43Z</time>
      </trkpt>
      <trkpt lat="44.56561" lon="3.06701">
        <ele>1391.17</ele>
        <time>2012-06-03T09:14:52Z</time>
      </trkpt>
      <trkpt lat="44.56571" lon="3.06701">
        <ele>1391.17</ele>
        <time>2012-06-03T09:15:02Z</time>
      </trkpt>
      <trkpt lat="44.5658" lon="3.06691">
        <ele>1392.13</ele>
        <time>2012-06-03T09:15:13Z</time>
      </trkpt>
      <trkpt lat="44.56588" lon="3.06678">
        <ele>1393.09</ele>
        <time>2012-06-03T09:15:22Z</time>
      </trkpt>
      <trkpt lat="44.56595" lon="3.06667">
        <ele>1393.57</ele>
        <time>2012-06-03T09:15:31Z</time>
      </trkpt>
      <trkpt lat="44.56603" lon="3.06662">
        <ele>1394.53</ele>
        <time>2012-06-03T09:15:41Z</time>
      </trkpt>
      <trkpt lat="44.56613" lon="3.06658">
        <ele>1394.53</ele>
        <time>2012-06-03T09:15:47Z</time>
      </trkpt>
      <trkpt lat="44.56623" lon="3.06652">
        <ele>1395.49</ele>
        <time>2012-06-03T09:15:56Z</time>
      </trkpt>
      <trkpt lat="44.56633" lon="3.06648">
        <ele>1395.97</ele>
        <time>2012-06-03T09:16:04Z</time>
      </trkpt>
      <trkpt lat="44.56643" lon="3.06645">
        <ele>1395.97</ele>
        <time>2012-06-03T09:16:50Z</time>
      </trkpt>
      <trkpt lat="44.56652" lon="3.06644">
        <ele>1396.45</ele>
        <time>2012-06-03T09:16:59Z</time>
      </trkpt>
      <trkpt lat="44.56661" lon="3.06645">
        <ele>1395.49</ele>
        <time>2012-06-03T09:17:08Z</time>
      </trkpt>
      <trkpt lat="44.5667" lon="3.06647">
        <ele>1395.49</ele>
        <time>2012-06-03T09:17:15Z</time>
      </trkpt>
      <trkpt lat="44.56679" lon="3.0665">
        <ele>1394.05</ele>
        <time>2012-06-03T09:17:21Z</time>
      </trkpt>
      <trkpt lat="44.56688" lon="3.06653">
        <ele>1393.57</ele>
        <time>2012-06-03T09:17:28Z</time>
      </trkpt>
      <trkpt lat="44.56697" lon="3.06659">
        <ele>1393.09</ele>
        <time>2012-06-03T09:17:36Z</time>
      </trkpt>
      <trkpt lat="44.56707" lon="3.06664">
        <ele>1392.61</ele>
        <time>2012-06-03T09:17:44Z</time>
      </trkpt>
      <trkpt lat="44.56716" lon="3.06669">
        <ele>1392.13</ele>
        <time>2012-06-03T09:17:52Z</time>
      </trkpt>
      <trkpt lat="44.56725" lon="3.06675">
        <ele>1392.13</ele>
        <time>2012-06-03T09:17:59Z</time>
      </trkpt>
      <trkpt lat="44.56734" lon="3.06681">
        <ele>1392.61</ele>
        <time>2012-06-03T09:18:07Z</time>
      </trkpt>
      <trkpt lat="44.56743" lon="3.06685">
        <ele>1393.09</ele>
        <time>2012-06-03T09:18:16Z</time>
      </trkpt>
      <trkpt lat="44.56754" lon="3.06692">
        <ele>1393.57</ele>
        <time>2012-06-03T09:18:26Z</time>
      </trkpt>
      <trkpt lat="44.56763" lon="3.06698">
        <ele>1395.97</ele>
        <time>2012-06-03T09:18:36Z</time>
      </trkpt>
      <trkpt lat="44.56775" lon="3.06701">
        <ele>1396.45</ele>
        <time>2012-06-03T09:18:46Z</time>
      </trkpt>
      <trkpt lat="44.56786" lon="3.06708">
        <ele>1396.93</ele>
        <time>2012-06-03T09:18:57Z</time>
      </trkpt>
      <trkpt lat="44.56796" lon="3.06714">
        <ele>1397.41</ele>
        <time>2012-06-03T09:19:06Z</time>
      </trkpt>
      <trkpt lat="44.56807" lon="3.06717">
        <ele>1397.41</ele>
        <time>2012-06-03T09:19:14Z</time>
      </trkpt>
      <trkpt lat="44.5682" lon="3.06721">
        <ele>1397.89</ele>
        <time>2012-06-03T09:19:25Z</time>
      </trkpt>
      <trkpt lat="44.5683" lon="3.06727">
        <ele>1398.86</ele>
        <time>2012-06-03T09:19:34Z</time>
      </trkpt>
      <trkpt lat="44.56839" lon="3.06733">
        <ele>1398.37</ele>
        <time>2012-06-03T09:19:45Z</time>
      </trkpt>
      <trkpt lat="44.56849" lon="3.06741">
        <ele>1396.93</ele>
        <time>2012-06-03T09:19:55Z</time>
      </trkpt>
      <trkpt lat="44.56856" lon="3.06752">
        <ele>1396.93</ele>
        <time>2012-06-03T09:20:07Z</time>
      </trkpt>
      <trkpt lat="44.56866" lon="3.06762">
        <ele>1395.97</ele>
        <time>2012-06-03T09:20:17Z</time>
      </trkpt>
      <trkpt lat="44.56874" lon="3.06773">
        <ele>1394.53</ele>
        <time>2012-06-03T09:20:27Z</time>
      </trkpt>
      <trkpt lat="44.56884" lon="3.06784">
        <ele>1394.53</ele>
        <time>2012-06-03T09:20:37Z</time>
      </trkpt>
      <trkpt lat="44.56894" lon="3.0679">
        <ele>1395.01</ele>
        <time>2012-06-03T09:20:47Z</time>
      </trkpt>
      <trkpt lat="44.56903" lon="3.06793">
        <ele>1395.49</ele>
        <time>2012-06-03T09:20:56Z</time>
      </trkpt>
      <trkpt lat="44.56916" lon="3.06795">
        <ele>1395.97</ele>
        <time>2012-06-03T09:21:03Z</time>
      </trkpt>
      <trkpt lat="44.56928" lon="3.06793">
        <ele>1396.45</ele>
        <time>2012-06-03T09:21:12Z</time>
      </trkpt>
      <trkpt lat="44.5694" lon="3.0679">
        <ele>1395.97</ele>
        <time>2012-06-03T09:21:22Z</time>
      </trkpt>
      <trkpt lat="44.56951" lon="3.06786">
        <ele>1396.93</ele>
        <time>2012-06-03T09:21:31Z</time>
      </trkpt>
      <trkpt lat="44.56961" lon="3.06783">
        <ele>1396.93</ele>
        <time>2012-06-03T09:21:43Z</time>
      </trkpt>
      <trkpt lat="44.5697" lon="3.06781">
        <ele>1396.93</ele>
        <time>2012-06-03T09:21:52Z</time>
      </trkpt>
      <trkpt lat="44.56984" lon="3.06778">
        <ele>1395.97</ele>
        <time>2012-06-03T09:22:41Z</time>
      </trkpt>
      <trkpt lat="44.56993" lon="3.06776">
        <ele>1394.05</ele>
        <time>2012-06-03T09:22:53Z</time>
      </trkpt>
      <trkpt lat="44.57004" lon="3.06773">
        <ele>1393.57</ele>
        <time>2012-06-03T09:23:02Z</time>
      </trkpt>
      <trkpt lat="44.57015" lon="3.06771">
        <ele>1393.09</ele>
        <time>2012-06-03T09:23:13Z</time>
      </trkpt>
      <trkpt lat="44.57027" lon="3.0677">
        <ele>1393.09</ele>
        <time>2012-06-03T09:23:21Z</time>
      </trkpt>
      <trkpt lat="44.57039" lon="3.06768">
        <ele>1393.09</ele>
        <time>2012-06-03T09:23:28Z</time>
      </trkpt>
      <trkpt lat="44.57051" lon="3.06765">
        <ele>1393.09</ele>
        <time>2012-06-03T09:23:38Z</time>
      </trkpt>
      <trkpt lat="44.57062" lon="3.06763">
        <ele>1393.57</ele>
        <time>2012-06-03T09:23:49Z</time>
      </trkpt>
      <trkpt lat="44.57075" lon="3.0676">
        <ele>1393.09</ele>
        <time>2012-06-03T09:24:18Z</time>
      </trkpt>
      <trkpt lat="44.57083" lon="3.06758">
        <ele>1393.57</ele>
        <time>2012-06-03T09:24:32Z</time>
      </trkpt>
      <trkpt lat="44.57094" lon="3.06757">
        <ele>1393.09</ele>
        <time>2012-06-03T09:24:41Z</time>
      </trkpt>
      <trkpt lat="44.57105" lon="3.06752">
        <ele>1394.05</ele>
        <time>2012-06-03T09:24:48Z</time>
      </trkpt>
      <trkpt lat="44.5712" lon="3.06746">
        <ele>1394.05</ele>
        <time>2012-06-03T09:24:59Z</time>
      </trkpt>
      <trkpt lat="44.57132" lon="3.06741">
        <ele>1393.09</ele>
        <time>2012-06-03T09:25:09Z</time>
      </trkpt>
      <trkpt lat="44.57148" lon="3.06737">
        <ele>1393.09</ele>
        <time>2012-06-03T09:25:21Z</time>
      </trkpt>
      <trkpt lat="44.57157" lon="3.06734">
        <ele>1391.65</ele>
        <time>2012-06-03T09:25:31Z</time>
      </trkpt>
      <trkpt lat="44.57167" lon="3.06734">
        <ele>1391.65</ele>
        <time>2012-06-03T09:25:42Z</time>
      </trkpt>
      <trkpt lat="44.5718" lon="3.06728">
        <ele>1392.13</ele>
        <time>2012-06-03T09:25:52Z</time>
      </trkpt>
      <trkpt lat="44.5719" lon="3.06722">
        <ele>1392.13</ele>
        <time>2012-06-03T09:26:00Z</time>
      </trkpt>
      <trkpt lat="44.57204" lon="3.0672">
        <ele>1392.61</ele>
        <time>2012-06-03T09:26:15Z</time>
      </trkpt>
      <trkpt lat="44.57212" lon="3.06713">
        <ele>1393.09</ele>
        <time>2012-06-03T09:26:26Z</time>
      </trkpt>
      <trkpt lat="44.57225" lon="3.06703">
        <ele>1392.13</ele>
        <time>2012-06-03T09:26:42Z</time>
      </trkpt>
      <trkpt lat="44.57234" lon="3.06694">
        <ele>1392.61</ele>
        <time>2012-06-03T09:26:53Z</time>
      </trkpt>
      <trkpt lat="44.57241" lon="3.06685">
        <ele>1393.09</ele>
        <time>2012-06-03T09:27:03Z</time>
      </trkpt>
      <trkpt lat="44.57251" lon="3.06677">
        <ele>1393.09</ele>
        <time>2012-06-03T09:27:13Z</time>
      </trkpt>
      <trkpt lat="44.5726" lon="3.0667">
        <ele>1393.57</ele>
        <time>2012-06-03T09:27:23Z</time>
      </trkpt>
      <trkpt lat="44.57269" lon="3.06664">
        <ele>1393.09</ele>
        <time>2012-06-03T09:27:34Z</time>
      </trkpt>
      <trkpt lat="44.57283" lon="3.06657">
        <ele>1394.05</ele>
        <time>2012-06-03T09:27:43Z</time>
      </trkpt>
      <trkpt lat="44.57292" lon="3.06649">
        <ele>1394.53</ele>
        <time>2012-06-03T09:27:56Z</time>
      </trkpt>
      <trkpt lat="44.57299" lon="3.06639">
        <ele>1395.01</ele>
        <time>2012-06-03T09:28:05Z</time>
      </trkpt>
      <trkpt lat="44.57308" lon="3.0663">
        <ele>1394.53</ele>
        <time>2012-06-03T09:28:16Z</time>
      </trkpt>
      <trkpt lat="44.57315" lon="3.06621">
        <ele>1393.57</ele>
        <time>2012-06-03T09:28:25Z</time>
      </trkpt>
      <trkpt lat="44.57326" lon="3.06614">
        <ele>1393.57</ele>
        <time>2012-06-03T09:28:33Z</time>
      </trkpt>
      <trkpt lat="44.57339" lon="3.06617">
        <ele>1393.57</ele>
        <time>2012-06-03T09:28:44Z</time>
      </trkpt>
      <trkpt lat="44.57352" lon="3.0662">
        <ele>1394.53</ele>
        <time>2012-06-03T09:28:54Z</time>
      </trkpt>
      <trkpt lat="44.57363" lon="3.06624">
        <ele>1395.49</ele>
        <time>2012-06-03T09:29:04Z</time>
      </trkpt>
      <trkpt lat="44.57372" lon="3.06629">
        <ele>1395.97</ele>
        <time>2012-06-03T09:29:13Z</time>
      </trkpt>
      <trkpt lat="44.57382" lon="3.06632">
        <ele>1396.93</ele>
        <time>2012-06-03T09:29:23Z</time>
      </trkpt>
      <trkpt lat="44.57393" lon="3.06634">
        <ele>1397.89</ele>
        <time>2012-06-03T09:29:33Z</time>
      </trkpt>
      <trkpt lat="44.57405" lon="3.06636">
        <ele>1396.93</ele>
        <time>2012-06-03T09:29:45Z</time>
      </trkpt>
      <trkpt lat="44.57418" lon="3.06638">
        <ele>1396.45</ele>
        <time>2012-06-03T09:29:56Z</time>
      </trkpt>
      <trkpt lat="44.57431" lon="3.0664">
        <ele>1395.97</ele>
        <time>2012-06-03T09:30:07Z</time>
      </trkpt>
      <trkpt lat="44.57441" lon="3.06638">
        <ele>1396.93</ele>
        <time>2012-06-03T09:30:16Z</time>
      </trkpt>
      <trkpt lat="44.57452" lon="3.06639">
        <ele>1396.93</ele>
        <time>2012-06-03T09:30:25Z</time>
      </trkpt>
      <trkpt lat="44.57464" lon="3.0664">
        <ele>1395.97</ele>
        <time>2012-06-03T09:30:37Z</time>
      </trkpt>
      <trkpt lat="44.57475" lon="3.06641">
        <ele>1394.53</ele>
        <time>2012-06-03T09:30:47Z</time>
      </trkpt>
      <trkpt lat="44.57486" lon="3.06642">
        <ele>1394.05</ele>
        <time>2012-06-03T09:30:57Z</time>
      </trkpt>
      <trkpt lat="44.575" lon="3.06643">
        <ele>1392.61</ele>
        <time>2012-06-03T09:31:11Z</time>
      </trkpt>
      <trkpt lat="44.57514" lon="3.06643">
        <ele>1391.65</ele>
        <time>2012-06-03T09:31:22Z</time>
      </trkpt>
      <trkpt lat="44.57528" lon="3.06641">
        <ele>1389.72</ele>
        <time>2012-06-03T09:31:34Z</time>
      </trkpt>
      <trkpt lat="44.57541" lon="3.06638">
        <ele>1389.24</ele>
        <time>2012-06-03T09:31:45Z</time>
      </trkpt>
      <trkpt lat="44.57551" lon="3.06636">
        <ele>1388.28</ele>
        <time>2012-06-03T09:31:56Z</time>
      </trkpt>
      <trkpt lat="44.57566" lon="3.06635">
        <ele>1387.8</ele>
        <time>2012-06-03T09:32:09Z</time>
      </trkpt>
      <trkpt lat="44.57578" lon="3.0663">
        <ele>1386.84</ele>
        <time>2012-06-03T09:32:18Z</time>
      </trkpt>
      <trkpt lat="44.5759" lon="3.06626">
        <ele>1385.88</ele>
        <time>2012-06-03T09:32:28Z</time>
      </trkpt>
      <trkpt lat="44.57603" lon="3.0662">
        <ele>1383.96</ele>
        <time>2012-06-03T09:32:40Z</time>
      </trkpt>
      <trkpt lat="44.57614" lon="3.06611">
        <ele>1382.99</ele>
        <time>2012-06-03T09:32:50Z</time>
      </trkpt>
      <trkpt lat="44.57627" lon="3.06603">
        <ele>1382.03</ele>
        <time>2012-06-03T09:33:01Z</time>
      </trkpt>
      <trkpt lat="44.57637" lon="3.06595">
        <ele>1382.03</ele>
        <time>2012-06-03T09:33:10Z</time>
      </trkpt>
      <trkpt lat="44.57646" lon="3.06589">
        <ele>1380.59</ele>
        <time>2012-06-03T09:33:19Z</time>
      </trkpt>
      <trkpt lat="44.57656" lon="3.06583">
        <ele>1380.59</ele>
        <time>2012-06-03T09:34:18Z</time>
      </trkpt>
      <trkpt lat="44.57663" lon="3.06571">
        <ele>1379.63</ele>
        <time>2012-06-03T09:35:22Z</time>
      </trkpt>
      <trkpt lat="44.5767" lon="3.06562">
        <ele>1379.15</ele>
        <time>2012-06-03T09:35:31Z</time>
      </trkpt>
      <trkpt lat="44.57678" lon="3.06553">
        <ele>1379.63</ele>
        <time>2012-06-03T09:35:39Z</time>
      </trkpt>
      <trkpt lat="44.57686" lon="3.06545">
        <ele>1379.15</ele>
        <time>2012-06-03T09:35:47Z</time>
      </trkpt>
      <trkpt lat="44.57693" lon="3.06537">
        <ele>1379.15</ele>
        <time>2012-06-03T09:35:55Z</time>
      </trkpt>
      <trkpt lat="44.577" lon="3.06527">
        <ele>1378.19</ele>
        <time>2012-06-03T09:36:03Z</time>
      </trkpt>
      <trkpt lat="44.57707" lon="3.0652">
        <ele>1378.19</ele>
        <time>2012-06-03T09:36:11Z</time>
      </trkpt>
      <trkpt lat="44.57715" lon="3.06512">
        <ele>1377.71</ele>
        <time>2012-06-03T09:36:20Z</time>
      </trkpt>
      <trkpt lat="44.57723" lon="3.06503">
        <ele>1376.26</ele>
        <time>2012-06-03T09:36:29Z</time>
      </trkpt>
      <trkpt lat="44.57732" lon="3.06494">
        <ele>1375.78</ele>
        <time>2012-06-03T09:36:38Z</time>
      </trkpt>
      <trkpt lat="44.5774" lon="3.06486">
        <ele>1375.78</ele>
        <time>2012-06-03T09:36:46Z</time>
      </trkpt>
      <trkpt lat="44.57747" lon="3.06477">
        <ele>1374.34</ele>
        <time>2012-06-03T09:36:56Z</time>
      </trkpt>
      <trkpt lat="44.57755" lon="3.06468">
        <ele>1373.38</ele>
        <time>2012-06-03T09:37:05Z</time>
      </trkpt>
      <trkpt lat="44.57762" lon="3.06457">
        <ele>1371.94</ele>
        <time>2012-06-03T09:37:13Z</time>
      </trkpt>
      <trkpt lat="44.5777" lon="3.06447">
        <ele>1371.46</ele>
        <time>2012-06-03T09:37:22Z</time>
      </trkpt>
      <trkpt lat="44.5778" lon="3.06438">
        <ele>1370.98</ele>
        <time>2012-06-03T09:37:31Z</time>
      </trkpt>
      <trkpt lat="44.57787" lon="3.0643">
        <ele>1370.02</ele>
        <time>2012-06-03T09:37:38Z</time>
      </trkpt>
      <trkpt lat="44.57796" lon="3.0642">
        <ele>1370.02</ele>
        <time>2012-06-03T09:37:46Z</time>
      </trkpt>
      <trkpt lat="44.57801" lon="3.0641">
        <ele>1370.02</ele>
        <time>2012-06-03T09:37:53Z</time>
      </trkpt>
      <trkpt lat="44.57808" lon="3.06403">
        <ele>1369.05</ele>
        <time>2012-06-03T09:38:03Z</time>
      </trkpt>
      <trkpt lat="44.57816" lon="3.06398">
        <ele>1369.05</ele>
        <time>2012-06-03T09:38:12Z</time>
      </trkpt>
      <trkpt lat="44.57824" lon="3.0639">
        <ele>1369.05</ele>
        <time>2012-06-03T09:38:20Z</time>
      </trkpt>
      <trkpt lat="44.57832" lon="3.0638">
        <ele>1368.09</ele>
        <time>2012-06-03T09:38:54Z</time>
      </trkpt>
      <trkpt lat="44.57838" lon="3.06368">
        <ele>1368.57</ele>
        <time>2012-06-03T09:39:03Z</time>
      </trkpt>
      <trkpt lat="44.57842" lon="3.06356">
        <ele>1368.09</ele>
        <time>2012-06-03T09:39:11Z</time>
      </trkpt>
      <trkpt lat="44.57847" lon="3.06345">
        <ele>1368.09</ele>
        <time>2012-06-03T09:39:19Z</time>
      </trkpt>
      <trkpt lat="44.57853" lon="3.06332">
        <ele>1368.09</ele>
        <time>2012-06-03T09:39:27Z</time>
      </trkpt>
      <trkpt lat="44.57858" lon="3.0632">
        <ele>1367.61</ele>
        <time>2012-06-03T09:39:35Z</time>
      </trkpt>
      <trkpt lat="44.57862" lon="3.06308">
        <ele>1367.61</ele>
        <time>2012-06-03T09:39:44Z</time>
      </trkpt>
      <trkpt lat="44.57867" lon="3.06296">
        <ele>1367.13</ele>
        <time>2012-06-03T09:39:52Z</time>
      </trkpt>
      <trkpt lat="44.57872" lon="3.06286">
        <ele>1366.65</ele>
        <time>2012-06-03T09:39:59Z</time>
      </trkpt>
      <trkpt lat="44.57877" lon="3.06275">
        <ele>1366.65</ele>
        <time>2012-06-03T09:40:07Z</time>
      </trkpt>
      <trkpt lat="44.57882" lon="3.06264">
        <ele>1366.65</ele>
        <time>2012-06-03T09:40:14Z</time>
      </trkpt>
      <trkpt lat="44.57887" lon="3.06252">
        <ele>1365.69</ele>
        <time>2012-06-03T09:40:22Z</time>
      </trkpt>
      <trkpt lat="44.57893" lon="3.06242">
        <ele>1366.17</ele>
        <time>2012-06-03T09:40:29Z</time>
      </trkpt>
      <trkpt lat="44.57897" lon="3.0623">
        <ele>1365.69</ele>
        <time>2012-06-03T09:40:37Z</time>
      </trkpt>
      <trkpt lat="44.57903" lon="3.06219">
        <ele>1365.21</ele>
        <time>2012-06-03T09:40:45Z</time>
      </trkpt>
      <trkpt lat="44.57908" lon="3.06209">
        <ele>1365.21</ele>
        <time>2012-06-03T09:40:53Z</time>
      </trkpt>
      <trkpt lat="44.57913" lon="3.06196">
        <ele>1364.73</ele>
        <time>2012-06-03T09:41:02Z</time>
      </trkpt>
      <trkpt lat="44.57919" lon="3.06185">
        <ele>1364.25</ele>
        <time>2012-06-03T09:41:10Z</time>
      </trkpt>
      <trkpt lat="44.57925" lon="3.06174">
        <ele>1364.25</ele>
        <time>2012-06-03T09:41:18Z</time>
      </trkpt>
      <trkpt lat="44.57932" lon="3.06163">
        <ele>1364.25</ele>
        <time>2012-06-03T09:41:26Z</time>
      </trkpt>
      <trkpt lat="44.57938" lon="3.06152">
        <ele>1363.77</ele>
        <time>2012-06-03T09:41:34Z</time>
      </trkpt>
      <trkpt lat="44.57944" lon="3.06141">
        <ele>1363.29</ele>
        <time>2012-06-03T09:41:42Z</time>
      </trkpt>
      <trkpt lat="44.5795" lon="3.06131">
        <ele>1362.81</ele>
        <time>2012-06-03T09:41:51Z</time>
      </trkpt>
      <trkpt lat="44.57958" lon="3.0612">
        <ele>1363.29</ele>
        <time>2012-06-03T09:41:59Z</time>
      </trkpt>
      <trkpt lat="44.57965" lon="3.0611">
        <ele>1363.29</ele>
        <time>2012-06-03T09:42:07Z</time>
      </trkpt>
      <trkpt lat="44.57973" lon="3.061">
        <ele>1362.81</ele>
        <time>2012-06-03T09:42:15Z</time>
      </trkpt>
      <trkpt lat="44.57982" lon="3.06092">
        <ele>1362.33</ele>
        <time>2012-06-03T09:42:24Z</time>
      </trkpt>
      <trkpt lat="44.57991" lon="3.06087">
        <ele>1362.33</ele>
        <time>2012-06-03T09:42:31Z</time>
      </trkpt>
      <trkpt lat="44.58001" lon="3.06079">
        <ele>1362.33</ele>
        <time>2012-06-03T09:42:40Z</time>
      </trkpt>
      <trkpt lat="44.58009" lon="3.06073">
        <ele>1362.33</ele>
        <time>2012-06-03T09:42:49Z</time>
      </trkpt>
      <trkpt lat="44.58018" lon="3.06066">
        <ele>1362.33</ele>
        <time>2012-06-03T09:42:58Z</time>
      </trkpt>
      <trkpt lat="44.58028" lon="3.06059">
        <ele>1361.84</ele>
        <time>2012-06-03T09:43:07Z</time>
      </trkpt>
      <trkpt lat="44.58039" lon="3.06052">
        <ele>1361.84</ele>
        <time>2012-06-03T09:43:16Z</time>
      </trkpt>
      <trkpt lat="44.58049" lon="3.06046">
        <ele>1361.84</ele>
        <time>2012-06-03T09:43:25Z</time>
      </trkpt>
      <trkpt lat="44.58058" lon="3.06038">
        <ele>1361.36</ele>
        <time>2012-06-03T09:43:34Z</time>
      </trkpt>
      <trkpt lat="44.58067" lon="3.06033">
        <ele>1360.88</ele>
        <time>2012-06-03T09:43:46Z</time>
      </trkpt>
      <trkpt lat="44.58075" lon="3.06026">
        <ele>1361.36</ele>
        <time>2012-06-03T09:43:54Z</time>
      </trkpt>
      <trkpt lat="44.58084" lon="3.0602">
        <ele>1360.88</ele>
        <time>2012-06-03T09:44:02Z</time>
      </trkpt>
      <trkpt lat="44.58094" lon="3.06015">
        <ele>1360.88</ele>
        <time>2012-06-03T09:44:10Z</time>
      </trkpt>
      <trkpt lat="44.58102" lon="3.06008">
        <ele>1360.88</ele>
        <time>2012-06-03T09:44:18Z</time>
      </trkpt>
      <trkpt lat="44.58111" lon="3.06001">
        <ele>1360.4</ele>
        <time>2012-06-03T09:44:26Z</time>
      </trkpt>
      <trkpt lat="44.58119" lon="3.05994">
        <ele>1360.4</ele>
        <time>2012-06-03T09:44:34Z</time>
      </trkpt>
      <trkpt lat="44.58128" lon="3.05988">
        <ele>1359.92</ele>
        <time>2012-06-03T09:44:41Z</time>
      </trkpt>
      <trkpt lat="44.58137" lon="3.05983">
        <ele>1359.44</ele>
        <time>2012-06-03T09:44:48Z</time>
      </trkpt>
      <trkpt lat="44.58146" lon="3.05976">
        <ele>1359.92</ele>
        <time>2012-06-03T09:44:56Z</time>
      </trkpt>
      <trkpt lat="44.58154" lon="3.05969">
        <ele>1360.4</ele>
        <time>2012-06-03T09:45:04Z</time>
      </trkpt>
      <trkpt lat="44.58163" lon="3.05963">
        <ele>1359.92</ele>
        <time>2012-06-03T09:45:12Z</time>
      </trkpt>
      <trkpt lat="44.58171" lon="3.05957">
        <ele>1359.44</ele>
        <time>2012-06-03T09:45:20Z</time>
      </trkpt>
      <trkpt lat="44.5818" lon="3.05952">
        <ele>1360.4</ele>
        <time>2012-06-03T09:45:27Z</time>
      </trkpt>
      <trkpt lat="44.58188" lon="3.05945">
        <ele>1360.88</ele>
        <time>2012-06-03T09:45:36Z</time>
      </trkpt>
      <trkpt lat="44.58198" lon="3.05937">
        <ele>1360.4</ele>
        <time>2012-06-03T09:45:45Z</time>
      </trkpt>
      <trkpt lat="44.58207" lon="3.0593">
        <ele>1360.4</ele>
        <time>2012-06-03T09:45:54Z</time>
      </trkpt>
      <trkpt lat="44.58216" lon="3.05923">
        <ele>1360.88</ele>
        <time>2012-06-03T09:46:02Z</time>
      </trkpt>
      <trkpt lat="44.58225" lon="3.05917">
        <ele>1360.88</ele>
        <time>2012-06-03T09:46:10Z</time>
      </trkpt>
      <trkpt lat="44.58234" lon="3.05911">
        <ele>1361.36</ele>
        <time>2012-06-03T09:46:18Z</time>
      </trkpt>
      <trkpt lat="44.58244" lon="3.05904">
        <ele>1362.33</ele>
        <time>2012-06-03T09:46:27Z</time>
      </trkpt>
      <trkpt lat="44.58252" lon="3.05896">
        <ele>1362.33</ele>
        <time>2012-06-03T09:46:37Z</time>
      </trkpt>
      <trkpt lat="44.58262" lon="3.05889">
        <ele>1362.81</ele>
        <time>2012-06-03T09:46:46Z</time>
      </trkpt>
      <trkpt lat="44.58272" lon="3.05882">
        <ele>1363.29</ele>
        <time>2012-06-03T09:46:55Z</time>
      </trkpt>
      <trkpt lat="44.58281" lon="3.05877">
        <ele>1362.81</ele>
        <time>2012-06-03T09:47:03Z</time>
      </trkpt>
      <trkpt lat="44.58291" lon="3.05869">
        <ele>1363.29</ele>
        <time>2012-06-03T09:47:11Z</time>
      </trkpt>
      <trkpt lat="44.583" lon="3.05862">
        <ele>1363.29</ele>
        <time>2012-06-03T09:47:20Z</time>
      </trkpt>
      <trkpt lat="44.5831" lon="3.05855">
        <ele>1363.77</ele>
        <time>2012-06-03T09:47:28Z</time>
      </trkpt>
      <trkpt lat="44.5832" lon="3.05848">
        <ele>1363.77</ele>
        <time>2012-06-03T09:47:36Z</time>
      </trkpt>
      <trkpt lat="44.5833" lon="3.0584">
        <ele>1363.77</ele>
        <time>2012-06-03T09:47:46Z</time>
      </trkpt>
      <trkpt lat="44.5834" lon="3.05833">
        <ele>1364.25</ele>
        <time>2012-06-03T09:47:54Z</time>
      </trkpt>
      <trkpt lat="44.58348" lon="3.05826">
        <ele>1364.25</ele>
        <time>2012-06-03T09:48:02Z</time>
      </trkpt>
      <trkpt lat="44.58358" lon="3.0582">
        <ele>1364.25</ele>
        <time>2012-06-03T09:48:10Z</time>
      </trkpt>
      <trkpt lat="44.58367" lon="3.05812">
        <ele>1364.73</ele>
        <time>2012-06-03T09:48:18Z</time>
      </trkpt>
      <trkpt lat="44.58376" lon="3.05806">
        <ele>1364.73</ele>
        <time>2012-06-03T09:48:26Z</time>
      </trkpt>
      <trkpt lat="44.58385" lon="3.05799">
        <ele>1364.73</ele>
        <time>2012-06-03T09:48:34Z</time>
      </trkpt>
      <trkpt lat="44.58394" lon="3.05793">
        <ele>1364.25</ele>
        <time>2012-06-03T09:48:43Z</time>
      </trkpt>
      <trkpt lat="44.58404" lon="3.05787">
        <ele>1364.73</ele>
        <time>2012-06-03T09:48:51Z</time>
      </trkpt>
      <trkpt lat="44.58413" lon="3.05781">
        <ele>1364.73</ele>
        <time>2012-06-03T09:48:59Z</time>
      </trkpt>
      <trkpt lat="44.58423" lon="3.05774">
        <ele>1363.77</ele>
        <time>2012-06-03T09:49:08Z</time>
      </trkpt>
      <trkpt lat="44.58433" lon="3.05769">
        <ele>1364.25</ele>
        <time>2012-06-03T09:49:16Z</time>
      </trkpt>
      <trkpt lat="44.58443" lon="3.05764">
        <ele>1363.77</ele>
        <time>2012-06-03T09:49:24Z</time>
      </trkpt>
      <trkpt lat="44.58452" lon="3.05759">
        <ele>1363.77</ele>
        <time>2012-06-03T09:49:31Z</time>
      </trkpt>
      <trkpt lat="44.58461" lon="3.05754">
        <ele>1363.77</ele>
        <time>2012-06-03T09:49:39Z</time>
      </trkpt>
      <trkpt lat="44.5847" lon="3.05749">
        <ele>1363.29</ele>
        <time>2012-06-03T09:49:46Z</time>
      </trkpt>
      <trkpt lat="44.58479" lon="3.05743">
        <ele>1363.77</ele>
        <time>2012-06-03T09:49:54Z</time>
      </trkpt>
      <trkpt lat="44.58488" lon="3.05737">
        <ele>1363.29</ele>
        <time>2012-06-03T09:50:03Z</time>
      </trkpt>
      <trkpt lat="44.58498" lon="3.05731">
        <ele>1363.29</ele>
        <time>2012-06-03T09:50:11Z</time>
      </trkpt>
      <trkpt lat="44.58506" lon="3.05725">
        <ele>1362.81</ele>
        <time>2012-06-03T09:50:19Z</time>
      </trkpt>
      <trkpt lat="44.58515" lon="3.05718">
        <ele>1362.33</ele>
        <time>2012-06-03T09:50:26Z</time>
      </trkpt>
      <trkpt lat="44.58524" lon="3.05711">
        <ele>1362.33</ele>
        <time>2012-06-03T09:50:34Z</time>
      </trkpt>
      <trkpt lat="44.58532" lon="3.05704">
        <ele>1362.33</ele>
        <time>2012-06-03T09:50:42Z</time>
      </trkpt>
      <trkpt lat="44.58541" lon="3.05696">
        <ele>1362.33</ele>
        <time>2012-06-03T09:50:50Z</time>
      </trkpt>
      <trkpt lat="44.58549" lon="3.05689">
        <ele>1361.84</ele>
        <time>2012-06-03T09:50:57Z</time>
      </trkpt>
      <trkpt lat="44.58558" lon="3.05682">
        <ele>1361.84</ele>
        <time>2012-06-03T09:51:04Z</time>
      </trkpt>
      <trkpt lat="44.58566" lon="3.05674">
        <ele>1362.33</ele>
        <time>2012-06-03T09:51:12Z</time>
      </trkpt>
      <trkpt lat="44.58576" lon="3.05668">
        <ele>1361.36</ele>
        <time>2012-06-03T09:51:20Z</time>
      </trkpt>
      <trkpt lat="44.58585" lon="3.05661">
        <ele>1361.84</ele>
        <time>2012-06-03T09:51:28Z</time>
      </trkpt>
      <trkpt lat="44.58593" lon="3.05654">
        <ele>1361.84</ele>
        <time>2012-06-03T09:51:35Z</time>
      </trkpt>
      <trkpt lat="44.58603" lon="3.05648">
        <ele>1361.84</ele>
        <time>2012-06-03T09:51:43Z</time>
      </trkpt>
      <trkpt lat="44.58611" lon="3.0564">
        <ele>1361.36</ele>
        <time>2012-06-03T09:51:51Z</time>
      </trkpt>
      <trkpt lat="44.5862" lon="3.05633">
        <ele>1361.36</ele>
        <time>2012-06-03T09:51:59Z</time>
      </trkpt>
      <trkpt lat="44.58628" lon="3.05627">
        <ele>1361.36</ele>
        <time>2012-06-03T09:52:06Z</time>
      </trkpt>
      <trkpt lat="44.58637" lon="3.05619">
        <ele>1361.36</ele>
        <time>2012-06-03T09:52:14Z</time>
      </trkpt>
      <trkpt lat="44.58646" lon="3.05611">
        <ele>1360.88</ele>
        <time>2012-06-03T09:52:22Z</time>
      </trkpt>
      <trkpt lat="44.58654" lon="3.05604">
        <ele>1361.36</ele>
        <time>2012-06-03T09:52:30Z</time>
      </trkpt>
      <trkpt lat="44.58664" lon="3.05597">
        <ele>1360.88</ele>
        <time>2012-06-03T09:52:38Z</time>
      </trkpt>
      <trkpt lat="44.58671" lon="3.05588">
        <ele>1359.92</ele>
        <time>2012-06-03T09:52:46Z</time>
      </trkpt>
      <trkpt lat="44.58681" lon="3.05581">
        <ele>1359.44</ele>
        <time>2012-06-03T09:52:54Z</time>
      </trkpt>
      <trkpt lat="44.58689" lon="3.05571">
        <ele>1358.48</ele>
        <time>2012-06-03T09:53:02Z</time>
      </trkpt>
      <trkpt lat="44.58696" lon="3.0556">
        <ele>1358</ele>
        <time>2012-06-03T09:53:09Z</time>
      </trkpt>
      <trkpt lat="44.58703" lon="3.05552">
        <ele>1358</ele>
        <time>2012-06-03T09:53:16Z</time>
      </trkpt>
      <trkpt lat="44.58711" lon="3.05542">
        <ele>1358</ele>
        <time>2012-06-03T09:53:24Z</time>
      </trkpt>
      <trkpt lat="44.58718" lon="3.05533">
        <ele>1356.08</ele>
        <time>2012-06-03T09:53:32Z</time>
      </trkpt>
      <trkpt lat="44.58725" lon="3.05524">
        <ele>1355.6</ele>
        <time>2012-06-03T09:53:39Z</time>
      </trkpt>
      <trkpt lat="44.58731" lon="3.05513">
        <ele>1356.08</ele>
        <time>2012-06-03T09:53:47Z</time>
      </trkpt>
      <trkpt lat="44.58739" lon="3.05503">
        <ele>1355.12</ele>
        <time>2012-06-03T09:53:55Z</time>
      </trkpt>
      <trkpt lat="44.58747" lon="3.05493">
        <ele>1355.12</ele>
        <time>2012-06-03T09:54:03Z</time>
      </trkpt>
      <trkpt lat="44.58755" lon="3.05482">
        <ele>1354.15</ele>
        <time>2012-06-03T09:54:11Z</time>
      </trkpt>
      <trkpt lat="44.58762" lon="3.05472">
        <ele>1354.63</ele>
        <time>2012-06-03T09:54:18Z</time>
      </trkpt>
      <trkpt lat="44.58769" lon="3.05461">
        <ele>1354.15</ele>
        <time>2012-06-03T09:54:26Z</time>
      </trkpt>
      <trkpt lat="44.58776" lon="3.05451">
        <ele>1353.19</ele>
        <time>2012-06-03T09:54:34Z</time>
      </trkpt>
      <trkpt lat="44.58783" lon="3.0544">
        <ele>1353.19</ele>
        <time>2012-06-03T09:54:42Z</time>
      </trkpt>
      <trkpt lat="44.5879" lon="3.05429">
        <ele>1353.19</ele>
        <time>2012-06-03T09:54:50Z</time>
      </trkpt>
      <trkpt lat="44.58797" lon="3.05419">
        <ele>1352.71</ele>
        <time>2012-06-03T09:54:58Z</time>
      </trkpt>
      <trkpt lat="44.58804" lon="3.05408">
        <ele>1353.19</ele>
        <time>2012-06-03T09:55:06Z</time>
      </trkpt>
      <trkpt lat="44.58812" lon="3.05397">
        <ele>1352.23</ele>
        <time>2012-06-03T09:55:14Z</time>
      </trkpt>
      <trkpt lat="44.58818" lon="3.05386">
        <ele>1352.23</ele>
        <time>2012-06-03T09:55:22Z</time>
      </trkpt>
      <trkpt lat="44.58825" lon="3.05376">
        <ele>1352.23</ele>
        <time>2012-06-03T09:55:29Z</time>
      </trkpt>
      <trkpt lat="44.58832" lon="3.05365">
        <ele>1352.23</ele>
        <time>2012-06-03T09:55:37Z</time>
      </trkpt>
      <trkpt lat="44.58839" lon="3.05356">
        <ele>1352.23</ele>
        <time>2012-06-03T09:55:45Z</time>
      </trkpt>
      <trkpt lat="44.58847" lon="3.05345">
        <ele>1352.23</ele>
        <time>2012-06-03T09:55:53Z</time>
      </trkpt>
      <trkpt lat="44.58854" lon="3.05335">
        <ele>1351.75</ele>
        <time>2012-06-03T09:56:01Z</time>
      </trkpt>
      <trkpt lat="44.58861" lon="3.05324">
        <ele>1351.27</ele>
        <time>2012-06-03T09:56:08Z</time>
      </trkpt>
      <trkpt lat="44.58869" lon="3.05314">
        <ele>1351.27</ele>
        <time>2012-06-03T09:56:16Z</time>
      </trkpt>
      <trkpt lat="44.58876" lon="3.05304">
        <ele>1351.27</ele>
        <time>2012-06-03T09:56:23Z</time>
      </trkpt>
      <trkpt lat="44.58882" lon="3.05294">
        <ele>1351.27</ele>
        <time>2012-06-03T09:56:30Z</time>
      </trkpt>
      <trkpt lat="44.58889" lon="3.05284">
        <ele>1350.79</ele>
        <time>2012-06-03T09:56:38Z</time>
      </trkpt>
      <trkpt lat="44.58896" lon="3.05273">
        <ele>1349.83</ele>
        <time>2012-06-03T09:56:46Z</time>
      </trkpt>
      <trkpt lat="44.58903" lon="3.05263">
        <ele>1349.35</ele>
        <time>2012-06-03T09:56:55Z</time>
      </trkpt>
      <trkpt lat="44.58909" lon="3.05252">
        <ele>1348.87</ele>
        <time>2012-06-03T09:57:06Z</time>
      </trkpt>
      <trkpt lat="44.58916" lon="3.05242">
        <ele>1348.87</ele>
        <time>2012-06-03T09:57:13Z</time>
      </trkpt>
      <trkpt lat="44.58924" lon="3.05232">
        <ele>1348.39</ele>
        <time>2012-06-03T09:57:21Z</time>
      </trkpt>
      <trkpt lat="44.5893" lon="3.05222">
        <ele>1347.91</ele>
        <time>2012-06-03T09:57:28Z</time>
      </trkpt>
      <trkpt lat="44.58936" lon="3.05212">
        <ele>1347.91</ele>
        <time>2012-06-03T09:57:35Z</time>
      </trkpt>
      <trkpt lat="44.58943" lon="3.05202">
        <ele>1346.94</ele>
        <time>2012-06-03T09:57:43Z</time>
      </trkpt>
      <trkpt lat="44.5895" lon="3.0519">
        <ele>1346.46</ele>
        <time>2012-06-03T09:57:52Z</time>
      </trkpt>
      <trkpt lat="44.58956" lon="3.0518">
        <ele>1345.5</ele>
        <time>2012-06-03T09:58:00Z</time>
      </trkpt>
      <trkpt lat="44.58964" lon="3.0517">
        <ele>1345.5</ele>
        <time>2012-06-03T09:58:08Z</time>
      </trkpt>
      <trkpt lat="44.58971" lon="3.05159">
        <ele>1345.5</ele>
        <time>2012-06-03T09:58:16Z</time>
      </trkpt>
      <trkpt lat="44.58977" lon="3.05148">
        <ele>1345.02</ele>
        <time>2012-06-03T09:58:24Z</time>
      </trkpt>
      <trkpt lat="44.58985" lon="3.05137">
        <ele>1344.06</ele>
        <time>2012-06-03T09:58:32Z</time>
      </trkpt>
      <trkpt lat="44.58992" lon="3.05126">
        <ele>1344.06</ele>
        <time>2012-06-03T09:58:40Z</time>
      </trkpt>
      <trkpt lat="44.58999" lon="3.05117">
        <ele>1343.58</ele>
        <time>2012-06-03T09:58:47Z</time>
      </trkpt>
      <trkpt lat="44.59005" lon="3.05107">
        <ele>1343.1</ele>
        <time>2012-06-03T09:58:54Z</time>
      </trkpt>
      <trkpt lat="44.59013" lon="3.05096">
        <ele>1342.62</ele>
        <time>2012-06-03T09:59:02Z</time>
      </trkpt>
      <trkpt lat="44.59019" lon="3.05087">
        <ele>1342.14</ele>
        <time>2012-06-03T09:59:09Z</time>
      </trkpt>
      <trkpt lat="44.59027" lon="3.05077">
        <ele>1341.66</ele>
        <time>2012-06-03T09:59:17Z</time>
      </trkpt>
      <trkpt lat="44.59035" lon="3.05067">
        <ele>1341.18</ele>
        <time>2012-06-03T09:59:25Z</time>
      </trkpt>
      <trkpt lat="44.59042" lon="3.05058">
        <ele>1340.7</ele>
        <time>2012-06-03T09:59:32Z</time>
      </trkpt>
      <trkpt lat="44.59049" lon="3.05049">
        <ele>1340.22</ele>
        <time>2012-06-03T09:59:39Z</time>
      </trkpt>
      <trkpt lat="44.59056" lon="3.05038">
        <ele>1339.73</ele>
        <time>2012-06-03T09:59:47Z</time>
      </trkpt>
      <trkpt lat="44.59062" lon="3.05028">
        <ele>1338.77</ele>
        <time>2012-06-03T09:59:54Z</time>
      </trkpt>
      <trkpt lat="44.59068" lon="3.05018">
        <ele>1338.77</ele>
        <time>2012-06-03T10:00:02Z</time>
      </trkpt>
      <trkpt lat="44.59074" lon="3.05006">
        <ele>1337.33</ele>
        <time>2012-06-03T10:00:10Z</time>
      </trkpt>
      <trkpt lat="44.5908" lon="3.04995">
        <ele>1337.33</ele>
        <time>2012-06-03T10:00:18Z</time>
      </trkpt>
      <trkpt lat="44.59086" lon="3.04983">
        <ele>1336.85</ele>
        <time>2012-06-03T10:00:26Z</time>
      </trkpt>
      <trkpt lat="44.59091" lon="3.04971">
        <ele>1335.89</ele>
        <time>2012-06-03T10:00:34Z</time>
      </trkpt>
      <trkpt lat="44.59096" lon="3.04958">
        <ele>1335.41</ele>
        <time>2012-06-03T10:00:42Z</time>
      </trkpt>
      <trkpt lat="44.59101" lon="3.04945">
        <ele>1334.93</ele>
        <time>2012-06-03T10:00:50Z</time>
      </trkpt>
      <trkpt lat="44.59107" lon="3.04932">
        <ele>1334.45</ele>
        <time>2012-06-03T10:00:58Z</time>
      </trkpt>
      <trkpt lat="44.59111" lon="3.04919">
        <ele>1333.97</ele>
        <time>2012-06-03T10:01:06Z</time>
      </trkpt>
      <trkpt lat="44.59116" lon="3.04906">
        <ele>1333.49</ele>
        <time>2012-06-03T10:01:14Z</time>
      </trkpt>
      <trkpt lat="44.5912" lon="3.04893">
        <ele>1333.01</ele>
        <time>2012-06-03T10:01:22Z</time>
      </trkpt>
      <trkpt lat="44.59126" lon="3.04881">
        <ele>1333.01</ele>
        <time>2012-06-03T10:01:30Z</time>
      </trkpt>
      <trkpt lat="44.59131" lon="3.04868">
        <ele>1332.52</ele>
        <time>2012-06-03T10:01:38Z</time>
      </trkpt>
      <trkpt lat="44.59136" lon="3.04855">
        <ele>1331.56</ele>
        <time>2012-06-03T10:01:46Z</time>
      </trkpt>
      <trkpt lat="44.5914" lon="3.04842">
        <ele>1331.08</ele>
        <time>2012-06-03T10:01:54Z</time>
      </trkpt>
      <trkpt lat="44.59146" lon="3.04829">
        <ele>1330.12</ele>
        <time>2012-06-03T10:02:02Z</time>
      </trkpt>
      <trkpt lat="44.5915" lon="3.04816">
        <ele>1329.64</ele>
        <time>2012-06-03T10:02:10Z</time>
      </trkpt>
      <trkpt lat="44.59155" lon="3.04804">
        <ele>1328.68</ele>
        <time>2012-06-03T10:02:18Z</time>
      </trkpt>
      <trkpt lat="44.59159" lon="3.04792">
        <ele>1328.2</ele>
        <time>2012-06-03T10:02:26Z</time>
      </trkpt>
      <trkpt lat="44.59164" lon="3.04779">
        <ele>1327.24</ele>
        <time>2012-06-03T10:02:34Z</time>
      </trkpt>
      <trkpt lat="44.59168" lon="3.04767">
        <ele>1326.28</ele>
        <time>2012-06-03T10:02:42Z</time>
      </trkpt>
      <trkpt lat="44.59172" lon="3.04755">
        <ele>1325.31</ele>
        <time>2012-06-03T10:02:50Z</time>
      </trkpt>
      <trkpt lat="44.59177" lon="3.04743">
        <ele>1324.35</ele>
        <time>2012-06-03T10:02:59Z</time>
      </trkpt>
      <trkpt lat="44.59181" lon="3.04731">
        <ele>1323.39</ele>
        <time>2012-06-03T10:03:07Z</time>
      </trkpt>
      <trkpt lat="44.59185" lon="3.04717">
        <ele>1322.91</ele>
        <time>2012-06-03T10:03:15Z</time>
      </trkpt>
      <trkpt lat="44.5919" lon="3.04705">
        <ele>1321.47</ele>
        <time>2012-06-03T10:03:23Z</time>
      </trkpt>
      <trkpt lat="44.59195" lon="3.04692">
        <ele>1320.99</ele>
        <time>2012-06-03T10:03:31Z</time>
      </trkpt>
      <trkpt lat="44.592" lon="3.0468">
        <ele>1319.55</ele>
        <time>2012-06-03T10:03:39Z</time>
      </trkpt>
      <trkpt lat="44.59206" lon="3.04668">
        <ele>1319.07</ele>
        <time>2012-06-03T10:03:47Z</time>
      </trkpt>
      <trkpt lat="44.59211" lon="3.04656">
        <ele>1318.59</ele>
        <time>2012-06-03T10:03:55Z</time>
      </trkpt>
      <trkpt lat="44.59215" lon="3.04644">
        <ele>1318.1</ele>
        <time>2012-06-03T10:04:02Z</time>
      </trkpt>
      <trkpt lat="44.5922" lon="3.04632">
        <ele>1317.14</ele>
        <time>2012-06-03T10:04:10Z</time>
      </trkpt>
      <trkpt lat="44.59226" lon="3.04619">
        <ele>1316.18</ele>
        <time>2012-06-03T10:04:19Z</time>
      </trkpt>
      <trkpt lat="44.5923" lon="3.04606">
        <ele>1316.18</ele>
        <time>2012-06-03T10:04:27Z</time>
      </trkpt>
      <trkpt lat="44.59235" lon="3.04593">
        <ele>1315.22</ele>
        <time>2012-06-03T10:04:36Z</time>
      </trkpt>
      <trkpt lat="44.59241" lon="3.0458">
        <ele>1315.22</ele>
        <time>2012-06-03T10:04:44Z</time>
      </trkpt>
      <trkpt lat="44.59245" lon="3.04567">
        <ele>1314.74</ele>
        <time>2012-06-03T10:04:52Z</time>
      </trkpt>
      <trkpt lat="44.5925" lon="3.04554">
        <ele>1313.78</ele>
        <time>2012-06-03T10:05:00Z</time>
      </trkpt>
      <trkpt lat="44.59255" lon="3.04541">
        <ele>1313.78</ele>
        <time>2012-06-03T10:05:09Z</time>
      </trkpt>
      <trkpt lat="44.5926" lon="3.04528">
        <ele>1313.3</ele>
        <time>2012-06-03T10:05:17Z</time>
      </trkpt>
      <trkpt lat="44.59266" lon="3.04516">
        <ele>1313.3</ele>
        <time>2012-06-03T10:05:24Z</time>
      </trkpt>
      <trkpt lat="44.59271" lon="3.04504">
        <ele>1313.3</ele>
        <time>2012-06-03T10:05:32Z</time>
      </trkpt>
      <trkpt lat="44.59276" lon="3.0449">
        <ele>1312.82</ele>
        <time>2012-06-03T10:05:40Z</time>
      </trkpt>
      <trkpt lat="44.5928" lon="3.04477">
        <ele>1313.3</ele>
        <time>2012-06-03T10:05:48Z</time>
      </trkpt>
      <trkpt lat="44.59284" lon="3.04465">
        <ele>1312.82</ele>
        <time>2012-06-03T10:05:55Z</time>
      </trkpt>
      <trkpt lat="44.59289" lon="3.04451">
        <ele>1312.82</ele>
        <time>2012-06-03T10:06:04Z</time>
      </trkpt>
      <trkpt lat="44.59296" lon="3.0444">
        <ele>1313.3</ele>
        <time>2012-06-03T10:06:12Z</time>
      </trkpt>
      <trkpt lat="44.59302" lon="3.04428">
        <ele>1313.78</ele>
        <time>2012-06-03T10:06:21Z</time>
      </trkpt>
      <trkpt lat="44.59307" lon="3.04416">
        <ele>1313.78</ele>
        <time>2012-06-03T10:06:29Z</time>
      </trkpt>
      <trkpt lat="44.59312" lon="3.04404">
        <ele>1313.78</ele>
        <time>2012-06-03T10:06:38Z</time>
      </trkpt>
      <trkpt lat="44.59318" lon="3.04392">
        <ele>1314.26</ele>
        <time>2012-06-03T10:06:47Z</time>
      </trkpt>
      <trkpt lat="44.59324" lon="3.04381">
        <ele>1315.22</ele>
        <time>2012-06-03T10:06:55Z</time>
      </trkpt>
      <trkpt lat="44.59329" lon="3.04368">
        <ele>1316.18</ele>
        <time>2012-06-03T10:07:04Z</time>
      </trkpt>
      <trkpt lat="44.59333" lon="3.04356">
        <ele>1317.14</ele>
        <time>2012-06-03T10:07:12Z</time>
      </trkpt>
      <trkpt lat="44.59338" lon="3.04345">
        <ele>1317.62</ele>
        <time>2012-06-03T10:07:20Z</time>
      </trkpt>
      <trkpt lat="44.59344" lon="3.04333">
        <ele>1318.59</ele>
        <time>2012-06-03T10:07:29Z</time>
      </trkpt>
      <trkpt lat="44.59348" lon="3.04321">
        <ele>1318.59</ele>
        <time>2012-06-03T10:07:37Z</time>
      </trkpt>
      <trkpt lat="44.59352" lon="3.04308">
        <ele>1319.07</ele>
        <time>2012-06-03T10:07:46Z</time>
      </trkpt>
      <trkpt lat="44.59357" lon="3.04295">
        <ele>1320.03</ele>
        <time>2012-06-03T10:07:54Z</time>
      </trkpt>
      <trkpt lat="44.59362" lon="3.04284">
        <ele>1319.55</ele>
        <time>2012-06-03T10:08:01Z</time>
      </trkpt>
      <trkpt lat="44.59367" lon="3.04272">
        <ele>1320.03</ele>
        <time>2012-06-03T10:08:08Z</time>
      </trkpt>
      <trkpt lat="44.5937" lon="3.04261">
        <ele>1320.51</ele>
        <time>2012-06-03T10:08:15Z</time>
      </trkpt>
      <trkpt lat="44.59374" lon="3.04249">
        <ele>1320.03</ele>
        <time>2012-06-03T10:08:23Z</time>
      </trkpt>
      <trkpt lat="44.59379" lon="3.04237">
        <ele>1319.55</ele>
        <time>2012-06-03T10:08:31Z</time>
      </trkpt>
      <trkpt lat="44.59383" lon="3.04226">
        <ele>1319.07</ele>
        <time>2012-06-03T10:08:40Z</time>
      </trkpt>
      <trkpt lat="44.59386" lon="3.04214">
        <ele>1319.07</ele>
        <time>2012-06-03T10:08:47Z</time>
      </trkpt>
      <trkpt lat="44.59392" lon="3.04202">
        <ele>1319.07</ele>
        <time>2012-06-03T10:08:55Z</time>
      </trkpt>
      <trkpt lat="44.59396" lon="3.0419">
        <ele>1318.59</ele>
        <time>2012-06-03T10:09:03Z</time>
      </trkpt>
      <trkpt lat="44.594" lon="3.04178">
        <ele>1319.07</ele>
        <time>2012-06-03T10:09:11Z</time>
      </trkpt>
      <trkpt lat="44.59405" lon="3.04167">
        <ele>1319.55</ele>
        <time>2012-06-03T10:09:19Z</time>
      </trkpt>
      <trkpt lat="44.59409" lon="3.04154">
        <ele>1320.03</ele>
        <time>2012-06-03T10:09:27Z</time>
      </trkpt>
      <trkpt lat="44.59413" lon="3.04142">
        <ele>1319.55</ele>
        <time>2012-06-03T10:09:35Z</time>
      </trkpt>
      <trkpt lat="44.59416" lon="3.04128">
        <ele>1320.03</ele>
        <time>2012-06-03T10:09:43Z</time>
      </trkpt>
      <trkpt lat="44.59422" lon="3.04116">
        <ele>1320.51</ele>
        <time>2012-06-03T10:09:52Z</time>
      </trkpt>
      <trkpt lat="44.59426" lon="3.04104">
        <ele>1320.51</ele>
        <time>2012-06-03T10:09:59Z</time>
      </trkpt>
      <trkpt lat="44.59431" lon="3.0409">
        <ele>1320.03</ele>
        <time>2012-06-03T10:10:13Z</time>
      </trkpt>
      <trkpt lat="44.59436" lon="3.04078">
        <ele>1320.99</ele>
        <time>2012-06-03T10:10:20Z</time>
      </trkpt>
      <trkpt lat="44.59441" lon="3.04066">
        <ele>1320.99</ele>
        <time>2012-06-03T10:10:28Z</time>
      </trkpt>
      <trkpt lat="44.59445" lon="3.04053">
        <ele>1320.99</ele>
        <time>2012-06-03T10:10:36Z</time>
      </trkpt>
      <trkpt lat="44.5945" lon="3.04041">
        <ele>1321.47</ele>
        <time>2012-06-03T10:10:44Z</time>
      </trkpt>
      <trkpt lat="44.59454" lon="3.04028">
        <ele>1321.47</ele>
        <time>2012-06-03T10:10:52Z</time>
      </trkpt>
      <trkpt lat="44.59459" lon="3.04014">
        <ele>1321.95</ele>
        <time>2012-06-03T10:11:01Z</time>
      </trkpt>
      <trkpt lat="44.59464" lon="3.04002">
        <ele>1322.43</ele>
        <time>2012-06-03T10:11:09Z</time>
      </trkpt>
      <trkpt lat="44.59469" lon="3.0399">
        <ele>1322.91</ele>
        <time>2012-06-03T10:11:17Z</time>
      </trkpt>
      <trkpt lat="44.59474" lon="3.03977">
        <ele>1324.35</ele>
        <time>2012-06-03T10:11:26Z</time>
      </trkpt>
      <trkpt lat="44.59478" lon="3.03964">
        <ele>1324.35</ele>
        <time>2012-06-03T10:11:35Z</time>
      </trkpt>
      <trkpt lat="44.59483" lon="3.0395">
        <ele>1325.31</ele>
        <time>2012-06-03T10:11:44Z</time>
      </trkpt>
      <trkpt lat="44.59487" lon="3.03937">
        <ele>1325.8</ele>
        <time>2012-06-03T10:11:54Z</time>
      </trkpt>
      <trkpt lat="44.59492" lon="3.03923">
        <ele>1325.8</ele>
        <time>2012-06-03T10:12:03Z</time>
      </trkpt>
      <trkpt lat="44.59497" lon="3.03909">
        <ele>1327.24</ele>
        <time>2012-06-03T10:12:12Z</time>
      </trkpt>
      <trkpt lat="44.59501" lon="3.03897">
        <ele>1326.76</ele>
        <time>2012-06-03T10:12:20Z</time>
      </trkpt>
      <trkpt lat="44.59505" lon="3.03883">
        <ele>1327.24</ele>
        <time>2012-06-03T10:12:29Z</time>
      </trkpt>
      <trkpt lat="44.59509" lon="3.03869">
        <ele>1326.28</ele>
        <time>2012-06-03T10:12:37Z</time>
      </trkpt>
      <trkpt lat="44.59514" lon="3.03856">
        <ele>1326.76</ele>
        <time>2012-06-03T10:12:45Z</time>
      </trkpt>
      <trkpt lat="44.59518" lon="3.03842">
        <ele>1326.76</ele>
        <time>2012-06-03T10:12:53Z</time>
      </trkpt>
      <trkpt lat="44.59522" lon="3.03829">
        <ele>1325.8</ele>
        <time>2012-06-03T10:13:01Z</time>
      </trkpt>
      <trkpt lat="44.59527" lon="3.03817">
        <ele>1326.28</ele>
        <time>2012-06-03T10:13:09Z</time>
      </trkpt>
      <trkpt lat="44.59531" lon="3.03804">
        <ele>1326.76</ele>
        <time>2012-06-03T10:13:17Z</time>
      </trkpt>
      <trkpt lat="44.59535" lon="3.03791">
        <ele>1326.28</ele>
        <time>2012-06-03T10:13:24Z</time>
      </trkpt>
      <trkpt lat="44.59539" lon="3.03778">
        <ele>1326.76</ele>
        <time>2012-06-03T10:13:32Z</time>
      </trkpt>
      <trkpt lat="44.59543" lon="3.03764">
        <ele>1325.8</ele>
        <time>2012-06-03T10:13:40Z</time>
      </trkpt>
      <trkpt lat="44.59547" lon="3.03751">
        <ele>1325.8</ele>
        <time>2012-06-03T10:13:49Z</time>
      </trkpt>
      <trkpt lat="44.59553" lon="3.03737">
        <ele>1326.28</ele>
        <time>2012-06-03T10:13:59Z</time>
      </trkpt>
      <trkpt lat="44.59559" lon="3.03723">
        <ele>1326.76</ele>
        <time>2012-06-03T10:14:09Z</time>
      </trkpt>
      <trkpt lat="44.59563" lon="3.03708">
        <ele>1327.24</ele>
        <time>2012-06-03T10:14:18Z</time>
      </trkpt>
      <trkpt lat="44.59567" lon="3.03694">
        <ele>1328.2</ele>
        <time>2012-06-03T10:14:26Z</time>
      </trkpt>
      <trkpt lat="44.59571" lon="3.03677">
        <ele>1329.16</ele>
        <time>2012-06-03T10:14:36Z</time>
      </trkpt>
      <trkpt lat="44.59575" lon="3.03663">
        <ele>1330.12</ele>
        <time>2012-06-03T10:14:45Z</time>
      </trkpt>
      <trkpt lat="44.5958" lon="3.03651">
        <ele>1331.08</ele>
        <time>2012-06-03T10:14:54Z</time>
      </trkpt>
      <trkpt lat="44.59584" lon="3.03638">
        <ele>1332.04</ele>
        <time>2012-06-03T10:15:04Z</time>
      </trkpt>
      <trkpt lat="44.59588" lon="3.03623">
        <ele>1333.01</ele>
        <time>2012-06-03T10:15:14Z</time>
      </trkpt>
      <trkpt lat="44.59593" lon="3.03609">
        <ele>1334.45</ele>
        <time>2012-06-03T10:15:25Z</time>
      </trkpt>
      <trkpt lat="44.59598" lon="3.03594">
        <ele>1334.93</ele>
        <time>2012-06-03T10:15:35Z</time>
      </trkpt>
      <trkpt lat="44.59601" lon="3.0358">
        <ele>1335.89</ele>
        <time>2012-06-03T10:15:44Z</time>
      </trkpt>
      <trkpt lat="44.59605" lon="3.03568">
        <ele>1336.37</ele>
        <time>2012-06-03T10:15:52Z</time>
      </trkpt>
      <trkpt lat="44.5961" lon="3.03555">
        <ele>1336.37</ele>
        <time>2012-06-03T10:16:01Z</time>
      </trkpt>
      <trkpt lat="44.59614" lon="3.03541">
        <ele>1337.33</ele>
        <time>2012-06-03T10:16:09Z</time>
      </trkpt>
      <trkpt lat="44.59618" lon="3.03529">
        <ele>1337.33</ele>
        <time>2012-06-03T10:16:17Z</time>
      </trkpt>
      <trkpt lat="44.59623" lon="3.03515">
        <ele>1337.81</ele>
        <time>2012-06-03T10:16:26Z</time>
      </trkpt>
      <trkpt lat="44.59628" lon="3.03502">
        <ele>1338.29</ele>
        <time>2012-06-03T10:16:34Z</time>
      </trkpt>
      <trkpt lat="44.59633" lon="3.0349">
        <ele>1338.29</ele>
        <time>2012-06-03T10:16:42Z</time>
      </trkpt>
      <trkpt lat="44.59637" lon="3.03477">
        <ele>1338.77</ele>
        <time>2012-06-03T10:16:51Z</time>
      </trkpt>
      <trkpt lat="44.59642" lon="3.03463">
        <ele>1338.77</ele>
        <time>2012-06-03T10:17:00Z</time>
      </trkpt>
      <trkpt lat="44.59646" lon="3.03448">
        <ele>1339.25</ele>
        <time>2012-06-03T10:17:09Z</time>
      </trkpt>
      <trkpt lat="44.59651" lon="3.03434">
        <ele>1339.25</ele>
        <time>2012-06-03T10:17:17Z</time>
      </trkpt>
      <trkpt lat="44.59655" lon="3.0342">
        <ele>1340.22</ele>
        <time>2012-06-03T10:17:25Z</time>
      </trkpt>
      <trkpt lat="44.59659" lon="3.03406">
        <ele>1340.22</ele>
        <time>2012-06-03T10:17:33Z</time>
      </trkpt>
      <trkpt lat="44.59664" lon="3.03394">
        <ele>1340.7</ele>
        <time>2012-06-03T10:17:41Z</time>
      </trkpt>
      <trkpt lat="44.59668" lon="3.0338">
        <ele>1340.22</ele>
        <time>2012-06-03T10:18:57Z</time>
      </trkpt>
      <trkpt lat="44.59672" lon="3.03389">
        <ele>1340.22</ele>
        <time>2012-06-03T10:20:16Z</time>
      </trkpt>
      <trkpt lat="44.59678" lon="3.03385">
        <ele>1341.66</ele>
        <time>2012-06-03T10:20:45Z</time>
      </trkpt>
      <trkpt lat="44.59673" lon="3.03385">
        <ele>1341.18</ele>
        <time>2012-06-03T10:21:31Z</time>
      </trkpt>
      <trkpt lat="44.59668" lon="3.03378">
        <ele>1340.22</ele>
        <time>2012-06-03T10:21:49Z</time>
      </trkpt>
      <trkpt lat="44.59672" lon="3.03365">
        <ele>1339.73</ele>
        <time>2012-06-03T10:21:57Z</time>
      </trkpt>
      <trkpt lat="44.59678" lon="3.03354">
        <ele>1339.25</ele>
        <time>2012-06-03T10:22:05Z</time>
      </trkpt>
      <trkpt lat="44.59683" lon="3.03344">
        <ele>1339.25</ele>
        <time>2012-06-03T10:22:12Z</time>
      </trkpt>
      <trkpt lat="44.59687" lon="3.03333">
        <ele>1339.25</ele>
        <time>2012-06-03T10:22:19Z</time>
      </trkpt>
      <trkpt lat="44.59694" lon="3.03323">
        <ele>1337.81</ele>
        <time>2012-06-03T10:22:27Z</time>
      </trkpt>
      <trkpt lat="44.59701" lon="3.03312">
        <ele>1338.29</ele>
        <time>2012-06-03T10:22:35Z</time>
      </trkpt>
      <trkpt lat="44.59708" lon="3.033">
        <ele>1338.29</ele>
        <time>2012-06-03T10:22:43Z</time>
      </trkpt>
      <trkpt lat="44.59715" lon="3.03288">
        <ele>1338.29</ele>
        <time>2012-06-03T10:22:52Z</time>
      </trkpt>
      <trkpt lat="44.59722" lon="3.03277">
        <ele>1337.33</ele>
        <time>2012-06-03T10:23:01Z</time>
      </trkpt>
      <trkpt lat="44.59729" lon="3.03266">
        <ele>1336.37</ele>
        <time>2012-06-03T10:23:10Z</time>
      </trkpt>
      <trkpt lat="44.59735" lon="3.03256">
        <ele>1336.85</ele>
        <time>2012-06-03T10:23:17Z</time>
      </trkpt>
      <trkpt lat="44.59741" lon="3.03242">
        <ele>1336.85</ele>
        <time>2012-06-03T10:23:26Z</time>
      </trkpt>
      <trkpt lat="44.59748" lon="3.0323">
        <ele>1336.37</ele>
        <time>2012-06-03T10:23:34Z</time>
      </trkpt>
      <trkpt lat="44.59754" lon="3.03218">
        <ele>1335.41</ele>
        <time>2012-06-03T10:23:42Z</time>
      </trkpt>
      <trkpt lat="44.5976" lon="3.03207">
        <ele>1335.41</ele>
        <time>2012-06-03T10:23:51Z</time>
      </trkpt>
      <trkpt lat="44.59767" lon="3.03197">
        <ele>1335.41</ele>
        <time>2012-06-03T10:24:00Z</time>
      </trkpt>
      <trkpt lat="44.59771" lon="3.03184">
        <ele>1334.45</ele>
        <time>2012-06-03T10:24:52Z</time>
      </trkpt>
      <trkpt lat="44.59775" lon="3.03171">
        <ele>1333.01</ele>
        <time>2012-06-03T10:25:24Z</time>
      </trkpt>
      <trkpt lat="44.5978" lon="3.03159">
        <ele>1333.49</ele>
        <time>2012-06-03T10:25:34Z</time>
      </trkpt>
      <trkpt lat="44.59785" lon="3.03146">
        <ele>1333.01</ele>
        <time>2012-06-03T10:25:44Z</time>
      </trkpt>
      <trkpt lat="44.5979" lon="3.03134">
        <ele>1332.04</ele>
        <time>2012-06-03T10:25:55Z</time>
      </trkpt>
      <trkpt lat="44.59796" lon="3.0312">
        <ele>1331.08</ele>
        <time>2012-06-03T10:26:05Z</time>
      </trkpt>
      <trkpt lat="44.59802" lon="3.03107">
        <ele>1329.64</ele>
        <time>2012-06-03T10:26:15Z</time>
      </trkpt>
      <trkpt lat="44.59807" lon="3.03092">
        <ele>1329.16</ele>
        <time>2012-06-03T10:26:26Z</time>
      </trkpt>
      <trkpt lat="44.59811" lon="3.03076">
        <ele>1329.16</ele>
        <time>2012-06-03T10:26:36Z</time>
      </trkpt>
      <trkpt lat="44.59814" lon="3.0306">
        <ele>1329.64</ele>
        <time>2012-06-03T10:26:48Z</time>
      </trkpt>
      <trkpt lat="44.59814" lon="3.03044">
        <ele>1330.12</ele>
        <time>2012-06-03T10:26:58Z</time>
      </trkpt>
      <trkpt lat="44.59815" lon="3.03029">
        <ele>1329.16</ele>
        <time>2012-06-03T10:27:08Z</time>
      </trkpt>
      <trkpt lat="44.59816" lon="3.03014">
        <ele>1328.2</ele>
        <time>2012-06-03T10:27:17Z</time>
      </trkpt>
      <trkpt lat="44.59819" lon="3.02999">
        <ele>1327.24</ele>
        <time>2012-06-03T10:27:27Z</time>
      </trkpt>
      <trkpt lat="44.5982" lon="3.02982">
        <ele>1326.76</ele>
        <time>2012-06-03T10:27:37Z</time>
      </trkpt>
      <trkpt lat="44.59824" lon="3.02967">
        <ele>1325.8</ele>
        <time>2012-06-03T10:27:47Z</time>
      </trkpt>
      <trkpt lat="44.59829" lon="3.02952">
        <ele>1325.8</ele>
        <time>2012-06-03T10:27:57Z</time>
      </trkpt>
      <trkpt lat="44.59829" lon="3.02937">
        <ele>1326.76</ele>
        <time>2012-06-03T10:28:13Z</time>
      </trkpt>
      <trkpt lat="44.59828" lon="3.02922">
        <ele>1326.76</ele>
        <time>2012-06-03T10:28:23Z</time>
      </trkpt>
      <trkpt lat="44.59829" lon="3.02906">
        <ele>1326.76</ele>
        <time>2012-06-03T10:28:33Z</time>
      </trkpt>
      <trkpt lat="44.59831" lon="3.02892">
        <ele>1326.28</ele>
        <time>2012-06-03T10:28:42Z</time>
      </trkpt>
      <trkpt lat="44.59831" lon="3.02876">
        <ele>1326.76</ele>
        <time>2012-06-03T10:28:54Z</time>
      </trkpt>
      <trkpt lat="44.59831" lon="3.02857">
        <ele>1326.76</ele>
        <time>2012-06-03T10:29:06Z</time>
      </trkpt>
      <trkpt lat="44.59831" lon="3.02841">
        <ele>1326.76</ele>
        <time>2012-06-03T10:29:16Z</time>
      </trkpt>
      <trkpt lat="44.59831" lon="3.02824">
        <ele>1326.76</ele>
        <time>2012-06-03T10:29:27Z</time>
      </trkpt>
      <trkpt lat="44.59829" lon="3.02808">
        <ele>1325.8</ele>
        <time>2012-06-03T10:29:37Z</time>
      </trkpt>
      <trkpt lat="44.59828" lon="3.02789">
        <ele>1325.31</ele>
        <time>2012-06-03T10:29:46Z</time>
      </trkpt>
      <trkpt lat="44.59825" lon="3.02773">
        <ele>1324.83</ele>
        <time>2012-06-03T10:29:55Z</time>
      </trkpt>
      <trkpt lat="44.59822" lon="3.02759">
        <ele>1325.31</ele>
        <time>2012-06-03T10:30:04Z</time>
      </trkpt>
      <trkpt lat="44.59817" lon="3.02746">
        <ele>1325.8</ele>
        <time>2012-06-03T10:30:13Z</time>
      </trkpt>
      <trkpt lat="44.59812" lon="3.02729">
        <ele>1325.31</ele>
        <time>2012-06-03T10:31:15Z</time>
      </trkpt>
      <trkpt lat="44.59809" lon="3.02719">
        <ele>1325.8</ele>
        <time>2012-06-03T10:31:53Z</time>
      </trkpt>
      <trkpt lat="44.59804" lon="3.02706">
        <ele>1326.76</ele>
        <time>2012-06-03T10:32:03Z</time>
      </trkpt>
      <trkpt lat="44.59799" lon="3.02693">
        <ele>1328.2</ele>
        <time>2012-06-03T10:32:13Z</time>
      </trkpt>
      <trkpt lat="44.59794" lon="3.02679">
        <ele>1328.2</ele>
        <time>2012-06-03T10:32:26Z</time>
      </trkpt>
      <trkpt lat="44.59788" lon="3.02667">
        <ele>1328.2</ele>
        <time>2012-06-03T10:32:35Z</time>
      </trkpt>
      <trkpt lat="44.59783" lon="3.02654">
        <ele>1329.64</ele>
        <time>2012-06-03T10:32:52Z</time>
      </trkpt>
      <trkpt lat="44.59778" lon="3.0264">
        <ele>1329.64</ele>
        <time>2012-06-03T10:33:04Z</time>
      </trkpt>
      <trkpt lat="44.59772" lon="3.0263">
        <ele>1331.08</ele>
        <time>2012-06-03T10:33:12Z</time>
      </trkpt>
      <trkpt lat="44.59766" lon="3.02617">
        <ele>1331.56</ele>
        <time>2012-06-03T10:33:22Z</time>
      </trkpt>
      <trkpt lat="44.59762" lon="3.02606">
        <ele>1332.04</ele>
        <time>2012-06-03T10:33:48Z</time>
      </trkpt>
      <trkpt lat="44.59756" lon="3.02594">
        <ele>1332.04</ele>
        <time>2012-06-03T10:33:57Z</time>
      </trkpt>
      <trkpt lat="44.59752" lon="3.02581">
        <ele>1332.04</ele>
        <time>2012-06-03T10:34:07Z</time>
      </trkpt>
      <trkpt lat="44.59748" lon="3.02567">
        <ele>1332.52</ele>
        <time>2012-06-03T10:34:17Z</time>
      </trkpt>
      <trkpt lat="44.59742" lon="3.02554">
        <ele>1333.01</ele>
        <time>2012-06-03T10:34:26Z</time>
      </trkpt>
      <trkpt lat="44.59738" lon="3.02542">
        <ele>1332.04</ele>
        <time>2012-06-03T10:34:34Z</time>
      </trkpt>
      <trkpt lat="44.59732" lon="3.02528">
        <ele>1332.52</ele>
        <time>2012-06-03T10:34:43Z</time>
      </trkpt>
      <trkpt lat="44.59726" lon="3.02515">
        <ele>1333.49</ele>
        <time>2012-06-03T10:34:53Z</time>
      </trkpt>
      <trkpt lat="44.5972" lon="3.02503">
        <ele>1332.04</ele>
        <time>2012-06-03T10:35:03Z</time>
      </trkpt>
      <trkpt lat="44.59714" lon="3.02489">
        <ele>1333.49</ele>
        <time>2012-06-03T10:35:12Z</time>
      </trkpt>
      <trkpt lat="44.59708" lon="3.02477">
        <ele>1333.01</ele>
        <time>2012-06-03T10:35:21Z</time>
      </trkpt>
      <trkpt lat="44.59701" lon="3.02464">
        <ele>1333.97</ele>
        <time>2012-06-03T10:35:32Z</time>
      </trkpt>
      <trkpt lat="44.59692" lon="3.02455">
        <ele>1333.49</ele>
        <time>2012-06-03T10:35:42Z</time>
      </trkpt>
      <trkpt lat="44.59683" lon="3.02448">
        <ele>1333.97</ele>
        <time>2012-06-03T10:35:51Z</time>
      </trkpt>
      <trkpt lat="44.59674" lon="3.02439">
        <ele>1333.01</ele>
        <time>2012-06-03T10:36:00Z</time>
      </trkpt>
      <trkpt lat="44.59665" lon="3.02433">
        <ele>1333.01</ele>
        <time>2012-06-03T10:36:08Z</time>
      </trkpt>
      <trkpt lat="44.59656" lon="3.02427">
        <ele>1332.04</ele>
        <time>2012-06-03T10:36:16Z</time>
      </trkpt>
      <trkpt lat="44.59647" lon="3.02421">
        <ele>1331.56</ele>
        <time>2012-06-03T10:36:24Z</time>
      </trkpt>
      <trkpt lat="44.59638" lon="3.02416">
        <ele>1331.56</ele>
        <time>2012-06-03T10:36:31Z</time>
      </trkpt>
      <trkpt lat="44.59629" lon="3.02409">
        <ele>1331.56</ele>
        <time>2012-06-03T10:36:39Z</time>
      </trkpt>
      <trkpt lat="44.59621" lon="3.02404">
        <ele>1331.08</ele>
        <time>2012-06-03T10:36:48Z</time>
      </trkpt>
      <trkpt lat="44.59611" lon="3.02401">
        <ele>1331.56</ele>
        <time>2012-06-03T10:36:57Z</time>
      </trkpt>
      <trkpt lat="44.59603" lon="3.02395">
        <ele>1332.04</ele>
        <time>2012-06-03T10:37:06Z</time>
      </trkpt>
      <trkpt lat="44.59594" lon="3.02392">
        <ele>1332.04</ele>
        <time>2012-06-03T10:37:14Z</time>
      </trkpt>
      <trkpt lat="44.59585" lon="3.02385">
        <ele>1332.52</ele>
        <time>2012-06-03T10:37:24Z</time>
      </trkpt>
      <trkpt lat="44.5958" lon="3.02372">
        <ele>1332.52</ele>
        <time>2012-06-03T10:41:15Z</time>
      </trkpt>
      <trkpt lat="44.59578" lon="3.02371">
        <ele>1333.97</ele>
        <time>2012-06-03T11:00:20Z</time>
      </trkpt>
      <trkpt lat="44.59577" lon="3.02377">
        <ele>1334.93</ele>
        <time>2012-06-03T11:03:20Z</time>
      </trkpt>
      <trkpt lat="44.59569" lon="3.02377">
        <ele>1334.93</ele>
        <time>2012-06-03T11:04:06Z</time>
      </trkpt>
      <trkpt lat="44.59563" lon="3.02378">
        <ele>1334.93</ele>
        <time>2012-06-03T11:05:07Z</time>
      </trkpt>
      <trkpt lat="44.59556" lon="3.0237">
        <ele>1333.49</ele>
        <time>2012-06-03T11:06:59Z</time>
      </trkpt>
      <trkpt lat="44.59542" lon="3.02366">
        <ele>1333.49</ele>
        <time>2012-06-03T11:07:11Z</time>
      </trkpt>
      <trkpt lat="44.5953" lon="3.02359">
        <ele>1333.01</ele>
        <time>2012-06-03T11:07:23Z</time>
      </trkpt>
      <trkpt lat="44.5952" lon="3.02353">
        <ele>1332.04</ele>
        <time>2012-06-03T11:07:32Z</time>
      </trkpt>
      <trkpt lat="44.59508" lon="3.02349">
        <ele>1332.04</ele>
        <time>2012-06-03T11:07:43Z</time>
      </trkpt>
      <trkpt lat="44.59496" lon="3.02345">
        <ele>1332.04</ele>
        <time>2012-06-03T11:07:54Z</time>
      </trkpt>
      <trkpt lat="44.59484" lon="3.02342">
        <ele>1330.6</ele>
        <time>2012-06-03T11:08:04Z</time>
      </trkpt>
      <trkpt lat="44.59471" lon="3.02334">
        <ele>1331.08</ele>
        <time>2012-06-03T11:08:15Z</time>
      </trkpt>
      <trkpt lat="44.5946" lon="3.02329">
        <ele>1330.6</ele>
        <time>2012-06-03T11:08:25Z</time>
      </trkpt>
      <trkpt lat="44.5945" lon="3.02317">
        <ele>1330.6</ele>
        <time>2012-06-03T11:08:37Z</time>
      </trkpt>
      <trkpt lat="44.59439" lon="3.02309">
        <ele>1331.56</ele>
        <time>2012-06-03T11:08:48Z</time>
      </trkpt>
      <trkpt lat="44.59428" lon="3.023">
        <ele>1331.08</ele>
        <time>2012-06-03T11:08:58Z</time>
      </trkpt>
      <trkpt lat="44.59416" lon="3.02291">
        <ele>1331.56</ele>
        <time>2012-06-03T11:09:10Z</time>
      </trkpt>
      <trkpt lat="44.59404" lon="3.02282">
        <ele>1332.04</ele>
        <time>2012-06-03T11:09:21Z</time>
      </trkpt>
      <trkpt lat="44.59394" lon="3.02275">
        <ele>1331.56</ele>
        <time>2012-06-03T11:09:34Z</time>
      </trkpt>
      <trkpt lat="44.59382" lon="3.02265">
        <ele>1331.08</ele>
        <time>2012-06-03T11:09:46Z</time>
      </trkpt>
      <trkpt lat="44.59369" lon="3.02254">
        <ele>1331.08</ele>
        <time>2012-06-03T11:09:59Z</time>
      </trkpt>
      <trkpt lat="44.59357" lon="3.02246">
        <ele>1331.08</ele>
        <time>2012-06-03T11:10:10Z</time>
      </trkpt>
      <trkpt lat="44.59346" lon="3.02235">
        <ele>1331.08</ele>
        <time>2012-06-03T11:10:21Z</time>
      </trkpt>
      <trkpt lat="44.59335" lon="3.02228">
        <ele>1331.56</ele>
        <time>2012-06-03T11:10:56Z</time>
      </trkpt>
      <trkpt lat="44.59323" lon="3.02222">
        <ele>1331.56</ele>
        <time>2012-06-03T11:11:24Z</time>
      </trkpt>
      <trkpt lat="44.59311" lon="3.02214">
        <ele>1331.56</ele>
        <time>2012-06-03T11:12:39Z</time>
      </trkpt>
      <trkpt lat="44.59297" lon="3.02202">
        <ele>1330.6</ele>
        <time>2012-06-03T11:13:00Z</time>
      </trkpt>
      <trkpt lat="44.59285" lon="3.02191">
        <ele>1331.08</ele>
        <time>2012-06-03T11:13:15Z</time>
      </trkpt>
      <trkpt lat="44.59268" lon="3.0218">
        <ele>1330.6</ele>
        <time>2012-06-03T11:13:30Z</time>
      </trkpt>
      <trkpt lat="44.59249" lon="3.02167">
        <ele>1330.6</ele>
        <time>2012-06-03T11:13:49Z</time>
      </trkpt>
      <trkpt lat="44.59234" lon="3.0216">
        <ele>1330.12</ele>
        <time>2012-06-03T11:14:01Z</time>
      </trkpt>
      <trkpt lat="44.59225" lon="3.02151">
        <ele>1329.64</ele>
        <time>2012-06-03T11:14:12Z</time>
      </trkpt>
      <trkpt lat="44.59221" lon="3.0214">
        <ele>1329.16</ele>
        <time>2012-06-03T11:14:27Z</time>
      </trkpt>
      <trkpt lat="44.59221" lon="3.02121">
        <ele>1326.76</ele>
        <time>2012-06-03T11:14:44Z</time>
      </trkpt>
      <trkpt lat="44.59225" lon="3.02092">
        <ele>1325.31</ele>
        <time>2012-06-03T11:14:58Z</time>
      </trkpt>
      <trkpt lat="44.5923" lon="3.02073">
        <ele>1324.35</ele>
        <time>2012-06-03T11:15:10Z</time>
      </trkpt>
      <trkpt lat="44.59224" lon="3.02061">
        <ele>1325.31</ele>
        <time>2012-06-03T11:15:19Z</time>
      </trkpt>
      <trkpt lat="44.59215" lon="3.02055">
        <ele>1325.31</ele>
        <time>2012-06-03T11:15:28Z</time>
      </trkpt>
      <trkpt lat="44.59206" lon="3.02046">
        <ele>1324.83</ele>
        <time>2012-06-03T11:15:38Z</time>
      </trkpt>
      <trkpt lat="44.59195" lon="3.02038">
        <ele>1324.83</ele>
        <time>2012-06-03T11:15:47Z</time>
      </trkpt>
      <trkpt lat="44.59187" lon="3.0203">
        <ele>1325.31</ele>
        <time>2012-06-03T11:15:55Z</time>
      </trkpt>
      <trkpt lat="44.59179" lon="3.02019">
        <ele>1325.31</ele>
        <time>2012-06-03T11:16:06Z</time>
      </trkpt>
      <trkpt lat="44.59176" lon="3.02003">
        <ele>1324.83</ele>
        <time>2012-06-03T11:16:21Z</time>
      </trkpt>
      <trkpt lat="44.59169" lon="3.01979">
        <ele>1323.87</ele>
        <time>2012-06-03T11:16:40Z</time>
      </trkpt>
      <trkpt lat="44.59155" lon="3.01952">
        <ele>1321.95</ele>
        <time>2012-06-03T11:17:00Z</time>
      </trkpt>
      <trkpt lat="44.59147" lon="3.01929">
        <ele>1321.47</ele>
        <time>2012-06-03T11:17:13Z</time>
      </trkpt>
      <trkpt lat="44.59145" lon="3.01914">
        <ele>1320.51</ele>
        <time>2012-06-03T11:17:25Z</time>
      </trkpt>
      <trkpt lat="44.59141" lon="3.01891">
        <ele>1319.55</ele>
        <time>2012-06-03T11:17:42Z</time>
      </trkpt>
      <trkpt lat="44.59142" lon="3.01866">
        <ele>1318.59</ele>
        <time>2012-06-03T11:17:57Z</time>
      </trkpt>
      <trkpt lat="44.59147" lon="3.01845">
        <ele>1318.1</ele>
        <time>2012-06-03T11:18:11Z</time>
      </trkpt>
      <trkpt lat="44.59157" lon="3.01825">
        <ele>1316.66</ele>
        <time>2012-06-03T11:18:23Z</time>
      </trkpt>
      <trkpt lat="44.59168" lon="3.01813">
        <ele>1316.18</ele>
        <time>2012-06-03T11:18:34Z</time>
      </trkpt>
      <trkpt lat="44.59178" lon="3.01798">
        <ele>1314.74</ele>
        <time>2012-06-03T11:18:51Z</time>
      </trkpt>
      <trkpt lat="44.59188" lon="3.01785">
        <ele>1314.26</ele>
        <time>2012-06-03T11:19:03Z</time>
      </trkpt>
      <trkpt lat="44.59196" lon="3.01775">
        <ele>1314.74</ele>
        <time>2012-06-03T11:19:10Z</time>
      </trkpt>
      <trkpt lat="44.59197" lon="3.01763">
        <ele>1314.26</ele>
        <time>2012-06-03T11:19:19Z</time>
      </trkpt>
      <trkpt lat="44.59202" lon="3.01748">
        <ele>1314.26</ele>
        <time>2012-06-03T11:19:29Z</time>
      </trkpt>
      <trkpt lat="44.59215" lon="3.01736">
        <ele>1314.26</ele>
        <time>2012-06-03T11:19:50Z</time>
      </trkpt>
      <trkpt lat="44.59233" lon="3.01721">
        <ele>1314.26</ele>
        <time>2012-06-03T11:20:06Z</time>
      </trkpt>
      <trkpt lat="44.59246" lon="3.01695">
        <ele>1314.26</ele>
        <time>2012-06-03T11:20:26Z</time>
      </trkpt>
      <trkpt lat="44.59257" lon="3.01676">
        <ele>1313.78</ele>
        <time>2012-06-03T11:20:42Z</time>
      </trkpt>
      <trkpt lat="44.59258" lon="3.0165">
        <ele>1314.26</ele>
        <time>2012-06-03T11:21:02Z</time>
      </trkpt>
      <trkpt lat="44.59262" lon="3.01623">
        <ele>1315.22</ele>
        <time>2012-06-03T11:21:16Z</time>
      </trkpt>
      <trkpt lat="44.5927" lon="3.01601">
        <ele>1314.74</ele>
        <time>2012-06-03T11:21:34Z</time>
      </trkpt>
      <trkpt lat="44.59276" lon="3.01581">
        <ele>1312.82</ele>
        <time>2012-06-03T11:21:53Z</time>
      </trkpt>
      <trkpt lat="44.59286" lon="3.0155">
        <ele>1311.86</ele>
        <time>2012-06-03T11:22:08Z</time>
      </trkpt>
      <trkpt lat="44.59284" lon="3.01525">
        <ele>1311.38</ele>
        <time>2012-06-03T11:22:22Z</time>
      </trkpt>
      <trkpt lat="44.59278" lon="3.0151">
        <ele>1311.38</ele>
        <time>2012-06-03T11:22:30Z</time>
      </trkpt>
      <trkpt lat="44.59279" lon="3.01489">
        <ele>1310.9</ele>
        <time>2012-06-03T11:22:49Z</time>
      </trkpt>
      <trkpt lat="44.59275" lon="3.01466">
        <ele>1309.45</ele>
        <time>2012-06-03T11:23:04Z</time>
      </trkpt>
      <trkpt lat="44.59275" lon="3.01436">
        <ele>1307.53</ele>
        <time>2012-06-03T11:23:23Z</time>
      </trkpt>
      <trkpt lat="44.59273" lon="3.01414">
        <ele>1306.57</ele>
        <time>2012-06-03T11:23:36Z</time>
      </trkpt>
      <trkpt lat="44.59271" lon="3.01393">
        <ele>1307.05</ele>
        <time>2012-06-03T11:23:51Z</time>
      </trkpt>
      <trkpt lat="44.59261" lon="3.0138">
        <ele>1305.61</ele>
        <time>2012-06-03T11:24:03Z</time>
      </trkpt>
      <trkpt lat="44.59251" lon="3.01351">
        <ele>1304.65</ele>
        <time>2012-06-03T11:24:24Z</time>
      </trkpt>
      <trkpt lat="44.59238" lon="3.0133">
        <ele>1303.69</ele>
        <time>2012-06-03T11:24:42Z</time>
      </trkpt>
      <trkpt lat="44.59223" lon="3.0131">
        <ele>1302.24</ele>
        <time>2012-06-03T11:25:12Z</time>
      </trkpt>
      <trkpt lat="44.59197" lon="3.01283">
        <ele>1300.32</ele>
        <time>2012-06-03T11:25:33Z</time>
      </trkpt>
      <trkpt lat="44.59182" lon="3.01252">
        <ele>1299.36</ele>
        <time>2012-06-03T11:25:53Z</time>
      </trkpt>
      <trkpt lat="44.59166" lon="3.01225">
        <ele>1297.92</ele>
        <time>2012-06-03T11:26:08Z</time>
      </trkpt>
      <trkpt lat="44.5916" lon="3.0121">
        <ele>1298.4</ele>
        <time>2012-06-03T11:26:18Z</time>
      </trkpt>
      <trkpt lat="44.5916" lon="3.01186">
        <ele>1296.96</ele>
        <time>2012-06-03T11:26:39Z</time>
      </trkpt>
      <trkpt lat="44.59154" lon="3.01164">
        <ele>1295.51</ele>
        <time>2012-06-03T11:26:55Z</time>
      </trkpt>
      <trkpt lat="44.59145" lon="3.01135">
        <ele>1295.51</ele>
        <time>2012-06-03T11:27:11Z</time>
      </trkpt>
      <trkpt lat="44.59144" lon="3.01115">
        <ele>1294.55</ele>
        <time>2012-06-03T11:27:24Z</time>
      </trkpt>
      <trkpt lat="44.59151" lon="3.01091">
        <ele>1294.07</ele>
        <time>2012-06-03T11:27:34Z</time>
      </trkpt>
      <trkpt lat="44.59154" lon="3.01074">
        <ele>1294.55</ele>
        <time>2012-06-03T11:27:43Z</time>
      </trkpt>
      <trkpt lat="44.59157" lon="3.01057">
        <ele>1294.07</ele>
        <time>2012-06-03T11:27:53Z</time>
      </trkpt>
      <trkpt lat="44.59159" lon="3.01042">
        <ele>1295.51</ele>
        <time>2012-06-03T11:28:05Z</time>
      </trkpt>
      <trkpt lat="44.59163" lon="3.01028">
        <ele>1295.51</ele>
        <time>2012-06-03T11:28:14Z</time>
      </trkpt>
      <trkpt lat="44.59171" lon="3.01018">
        <ele>1295.99</ele>
        <time>2012-06-03T11:28:24Z</time>
      </trkpt>
      <trkpt lat="44.59178" lon="3.01009">
        <ele>1295.99</ele>
        <time>2012-06-03T11:28:32Z</time>
      </trkpt>
      <trkpt lat="44.59183" lon="3.01">
        <ele>1295.99</ele>
        <time>2012-06-03T11:28:39Z</time>
      </trkpt>
      <trkpt lat="44.59193" lon="3.00988">
        <ele>1296.96</ele>
        <time>2012-06-03T11:28:50Z</time>
      </trkpt>
      <trkpt lat="44.59199" lon="3.00979">
        <ele>1297.44</ele>
        <time>2012-06-03T11:28:58Z</time>
      </trkpt>
      <trkpt lat="44.59207" lon="3.00968">
        <ele>1298.4</ele>
        <time>2012-06-03T11:29:07Z</time>
      </trkpt>
      <trkpt lat="44.59217" lon="3.00956">
        <ele>1298.88</ele>
        <time>2012-06-03T11:29:18Z</time>
      </trkpt>
      <trkpt lat="44.59224" lon="3.00941">
        <ele>1299.36</ele>
        <time>2012-06-03T11:29:31Z</time>
      </trkpt>
      <trkpt lat="44.59232" lon="3.00927">
        <ele>1300.32</ele>
        <time>2012-06-03T11:29:46Z</time>
      </trkpt>
      <trkpt lat="44.59243" lon="3.00915">
        <ele>1300.8</ele>
        <time>2012-06-03T11:29:58Z</time>
      </trkpt>
      <trkpt lat="44.59252" lon="3.00906">
        <ele>1301.28</ele>
        <time>2012-06-03T11:30:06Z</time>
      </trkpt>
      <trkpt lat="44.59261" lon="3.00895">
        <ele>1301.28</ele>
        <time>2012-06-03T11:30:16Z</time>
      </trkpt>
      <trkpt lat="44.59275" lon="3.00881">
        <ele>1301.28</ele>
        <time>2012-06-03T11:30:29Z</time>
      </trkpt>
      <trkpt lat="44.59285" lon="3.0087">
        <ele>1301.76</ele>
        <time>2012-06-03T11:30:40Z</time>
      </trkpt>
      <trkpt lat="44.59294" lon="3.00858">
        <ele>1303.2</ele>
        <time>2012-06-03T11:30:51Z</time>
      </trkpt>
      <trkpt lat="44.59302" lon="3.00846">
        <ele>1303.69</ele>
        <time>2012-06-03T11:31:02Z</time>
      </trkpt>
      <trkpt lat="44.59312" lon="3.00831">
        <ele>1304.65</ele>
        <time>2012-06-03T11:31:14Z</time>
      </trkpt>
      <trkpt lat="44.59319" lon="3.00817">
        <ele>1304.65</ele>
        <time>2012-06-03T11:31:27Z</time>
      </trkpt>
      <trkpt lat="44.59328" lon="3.00807">
        <ele>1304.65</ele>
        <time>2012-06-03T11:31:40Z</time>
      </trkpt>
      <trkpt lat="44.59335" lon="3.00791">
        <ele>1304.17</ele>
        <time>2012-06-03T11:31:49Z</time>
      </trkpt>
      <trkpt lat="44.59343" lon="3.00774">
        <ele>1305.61</ele>
        <time>2012-06-03T11:32:01Z</time>
      </trkpt>
      <trkpt lat="44.5935" lon="3.00767">
        <ele>1305.61</ele>
        <time>2012-06-03T11:32:10Z</time>
      </trkpt>
      <trkpt lat="44.59359" lon="3.00755">
        <ele>1306.09</ele>
        <time>2012-06-03T11:32:19Z</time>
      </trkpt>
      <trkpt lat="44.59367" lon="3.00742">
        <ele>1307.05</ele>
        <time>2012-06-03T11:32:30Z</time>
      </trkpt>
      <trkpt lat="44.59369" lon="3.00725">
        <ele>1306.09</ele>
        <time>2012-06-03T11:32:41Z</time>
      </trkpt>
      <trkpt lat="44.59376" lon="3.00707">
        <ele>1306.57</ele>
        <time>2012-06-03T11:32:52Z</time>
      </trkpt>
      <trkpt lat="44.59387" lon="3.00687">
        <ele>1306.57</ele>
        <time>2012-06-03T11:33:02Z</time>
      </trkpt>
      <trkpt lat="44.59392" lon="3.00675">
        <ele>1306.09</ele>
        <time>2012-06-03T11:33:12Z</time>
      </trkpt>
      <trkpt lat="44.59401" lon="3.00664">
        <ele>1305.61</ele>
        <time>2012-06-03T11:33:22Z</time>
      </trkpt>
      <trkpt lat="44.59411" lon="3.00649">
        <ele>1305.61</ele>
        <time>2012-06-03T11:33:32Z</time>
      </trkpt>
      <trkpt lat="44.59415" lon="3.00633">
        <ele>1304.65</ele>
        <time>2012-06-03T11:33:43Z</time>
      </trkpt>
      <trkpt lat="44.59414" lon="3.00617">
        <ele>1304.17</ele>
        <time>2012-06-03T11:33:55Z</time>
      </trkpt>
      <trkpt lat="44.59411" lon="3.00604">
        <ele>1304.65</ele>
        <time>2012-06-03T11:34:02Z</time>
      </trkpt>
      <trkpt lat="44.59422" lon="3.00582">
        <ele>1304.65</ele>
        <time>2012-06-03T11:34:14Z</time>
      </trkpt>
      <trkpt lat="44.59427" lon="3.00559">
        <ele>1304.65</ele>
        <time>2012-06-03T11:34:25Z</time>
      </trkpt>
      <trkpt lat="44.59437" lon="3.00548">
        <ele>1306.09</ele>
        <time>2012-06-03T11:34:33Z</time>
      </trkpt>
      <trkpt lat="44.59448" lon="3.00531">
        <ele>1308.01</ele>
        <time>2012-06-03T11:34:50Z</time>
      </trkpt>
      <trkpt lat="44.59457" lon="3.00518">
        <ele>1308.97</ele>
        <time>2012-06-03T11:35:01Z</time>
      </trkpt>
      <trkpt lat="44.59458" lon="3.00498">
        <ele>1310.41</ele>
        <time>2012-06-03T11:35:13Z</time>
      </trkpt>
      <trkpt lat="44.59459" lon="3.00481">
        <ele>1311.86</ele>
        <time>2012-06-03T11:35:23Z</time>
      </trkpt>
      <trkpt lat="44.5946" lon="3.00463">
        <ele>1312.34</ele>
        <time>2012-06-03T11:35:34Z</time>
      </trkpt>
      <trkpt lat="44.59463" lon="3.00439">
        <ele>1311.38</ele>
        <time>2012-06-03T11:35:50Z</time>
      </trkpt>
      <trkpt lat="44.59466" lon="3.00422">
        <ele>1310.9</ele>
        <time>2012-06-03T11:36:32Z</time>
      </trkpt>
      <trkpt lat="44.59464" lon="3.00401">
        <ele>1310.9</ele>
        <time>2012-06-03T11:36:44Z</time>
      </trkpt>
      <trkpt lat="44.59464" lon="3.00375">
        <ele>1309.93</ele>
        <time>2012-06-03T11:36:59Z</time>
      </trkpt>
      <trkpt lat="44.5947" lon="3.00349">
        <ele>1308.49</ele>
        <time>2012-06-03T11:37:16Z</time>
      </trkpt>
      <trkpt lat="44.59471" lon="3.00318">
        <ele>1308.49</ele>
        <time>2012-06-03T11:37:33Z</time>
      </trkpt>
      <trkpt lat="44.59473" lon="3.0029">
        <ele>1308.49</ele>
        <time>2012-06-03T11:37:55Z</time>
      </trkpt>
      <trkpt lat="44.59474" lon="3.00261">
        <ele>1307.53</ele>
        <time>2012-06-03T11:38:11Z</time>
      </trkpt>
      <trkpt lat="44.59471" lon="3.00241">
        <ele>1307.53</ele>
        <time>2012-06-03T11:38:23Z</time>
      </trkpt>
      <trkpt lat="44.59477" lon="3.00217">
        <ele>1308.01</ele>
        <time>2012-06-03T11:38:37Z</time>
      </trkpt>
      <trkpt lat="44.59485" lon="3.00196">
        <ele>1308.97</ele>
        <time>2012-06-03T11:38:52Z</time>
      </trkpt>
      <trkpt lat="44.5948" lon="3.00177">
        <ele>1308.97</ele>
        <time>2012-06-03T11:39:02Z</time>
      </trkpt>
      <trkpt lat="44.5948" lon="3.00157">
        <ele>1308.49</ele>
        <time>2012-06-03T11:39:14Z</time>
      </trkpt>
      <trkpt lat="44.59483" lon="3.00143">
        <ele>1308.01</ele>
        <time>2012-06-03T11:39:23Z</time>
      </trkpt>
      <trkpt lat="44.59491" lon="3.00124">
        <ele>1307.53</ele>
        <time>2012-06-03T11:39:37Z</time>
      </trkpt>
      <trkpt lat="44.59491" lon="3.00106">
        <ele>1307.05</ele>
        <time>2012-06-03T11:39:50Z</time>
      </trkpt>
      <trkpt lat="44.59493" lon="3.0009">
        <ele>1306.57</ele>
        <time>2012-06-03T11:39:57Z</time>
      </trkpt>
      <trkpt lat="44.59491" lon="3.00073">
        <ele>1307.05</ele>
        <time>2012-06-03T11:40:09Z</time>
      </trkpt>
      <trkpt lat="44.59499" lon="3.00049">
        <ele>1307.53</ele>
        <time>2012-06-03T11:40:22Z</time>
      </trkpt>
      <trkpt lat="44.59506" lon="3.00028">
        <ele>1308.49</ele>
        <time>2012-06-03T11:40:35Z</time>
      </trkpt>
      <trkpt lat="44.59508" lon="3.00012">
        <ele>1308.49</ele>
        <time>2012-06-03T11:40:43Z</time>
      </trkpt>
      <trkpt lat="44.59513" lon="3.00002">
        <ele>1308.97</ele>
        <time>2012-06-03T11:40:55Z</time>
      </trkpt>
      <trkpt lat="44.59526" lon="2.99981">
        <ele>1309.93</ele>
        <time>2012-06-03T11:41:08Z</time>
      </trkpt>
      <trkpt lat="44.59533" lon="2.99966">
        <ele>1309.93</ele>
        <time>2012-06-03T11:41:18Z</time>
      </trkpt>
      <trkpt lat="44.59543" lon="2.99956">
        <ele>1308.97</ele>
        <time>2012-06-03T11:41:27Z</time>
      </trkpt>
      <trkpt lat="44.59548" lon="2.99939">
        <ele>1309.45</ele>
        <time>2012-06-03T11:41:36Z</time>
      </trkpt>
      <trkpt lat="44.59559" lon="2.99921">
        <ele>1308.49</ele>
        <time>2012-06-03T11:41:49Z</time>
      </trkpt>
      <trkpt lat="44.59564" lon="2.99904">
        <ele>1308.49</ele>
        <time>2012-06-03T11:42:01Z</time>
      </trkpt>
      <trkpt lat="44.59574" lon="2.99887">
        <ele>1307.53</ele>
        <time>2012-06-03T11:42:16Z</time>
      </trkpt>
      <trkpt lat="44.59584" lon="2.99872">
        <ele>1307.53</ele>
        <time>2012-06-03T11:42:34Z</time>
      </trkpt>
      <trkpt lat="44.59592" lon="2.9986">
        <ele>1306.09</ele>
        <time>2012-06-03T11:42:41Z</time>
      </trkpt>
      <trkpt lat="44.59601" lon="2.99843">
        <ele>1306.57</ele>
        <time>2012-06-03T11:42:51Z</time>
      </trkpt>
      <trkpt lat="44.59606" lon="2.99832">
        <ele>1306.09</ele>
        <time>2012-06-03T11:42:59Z</time>
      </trkpt>
      <trkpt lat="44.59614" lon="2.99825">
        <ele>1305.61</ele>
        <time>2012-06-03T11:43:06Z</time>
      </trkpt>
      <trkpt lat="44.59622" lon="2.99813">
        <ele>1306.09</ele>
        <time>2012-06-03T11:43:14Z</time>
      </trkpt>
      <trkpt lat="44.59629" lon="2.99804">
        <ele>1306.57</ele>
        <time>2012-06-03T11:43:21Z</time>
      </trkpt>
      <trkpt lat="44.59633" lon="2.99786">
        <ele>1306.09</ele>
        <time>2012-06-03T11:43:30Z</time>
      </trkpt>
      <trkpt lat="44.59636" lon="2.9977">
        <ele>1305.61</ele>
        <time>2012-06-03T11:43:39Z</time>
      </trkpt>
      <trkpt lat="44.59636" lon="2.99752">
        <ele>1305.61</ele>
        <time>2012-06-03T11:43:49Z</time>
      </trkpt>
      <trkpt lat="44.59635" lon="2.99731">
        <ele>1305.61</ele>
        <time>2012-06-03T11:44:02Z</time>
      </trkpt>
      <trkpt lat="44.59647" lon="2.99706">
        <ele>1304.65</ele>
        <time>2012-06-03T11:44:16Z</time>
      </trkpt>
      <trkpt lat="44.59662" lon="2.99698">
        <ele>1305.61</ele>
        <time>2012-06-03T11:44:24Z</time>
      </trkpt>
      <trkpt lat="44.59662" lon="2.99678">
        <ele>1305.13</ele>
        <time>2012-06-03T11:44:35Z</time>
      </trkpt>
      <trkpt lat="44.59667" lon="2.99655">
        <ele>1305.13</ele>
        <time>2012-06-03T11:44:51Z</time>
      </trkpt>
      <trkpt lat="44.59667" lon="2.99641">
        <ele>1305.13</ele>
        <time>2012-06-03T11:45:02Z</time>
      </trkpt>
      <trkpt lat="44.59675" lon="2.99621">
        <ele>1306.57</ele>
        <time>2012-06-03T11:45:13Z</time>
      </trkpt>
      <trkpt lat="44.5967" lon="2.99603">
        <ele>1304.65</ele>
        <time>2012-06-03T11:45:23Z</time>
      </trkpt>
      <trkpt lat="44.59672" lon="2.99583">
        <ele>1304.65</ele>
        <time>2012-06-03T11:45:35Z</time>
      </trkpt>
      <trkpt lat="44.59684" lon="2.99561">
        <ele>1305.61</ele>
        <time>2012-06-03T11:45:48Z</time>
      </trkpt>
      <trkpt lat="44.59697" lon="2.99553">
        <ele>1304.65</ele>
        <time>2012-06-03T11:45:59Z</time>
      </trkpt>
      <trkpt lat="44.59703" lon="2.99534">
        <ele>1304.65</ele>
        <time>2012-06-03T11:46:09Z</time>
      </trkpt>
      <trkpt lat="44.59708" lon="2.99515">
        <ele>1304.65</ele>
        <time>2012-06-03T11:46:25Z</time>
      </trkpt>
      <trkpt lat="44.59711" lon="2.99493">
        <ele>1304.65</ele>
        <time>2012-06-03T11:46:38Z</time>
      </trkpt>
      <trkpt lat="44.59716" lon="2.99471">
        <ele>1305.61</ele>
        <time>2012-06-03T11:46:54Z</time>
      </trkpt>
      <trkpt lat="44.5973" lon="2.99454">
        <ele>1305.61</ele>
        <time>2012-06-03T11:47:05Z</time>
      </trkpt>
      <trkpt lat="44.59742" lon="2.99446">
        <ele>1306.57</ele>
        <time>2012-06-03T11:47:13Z</time>
      </trkpt>
      <trkpt lat="44.59749" lon="2.99434">
        <ele>1306.57</ele>
        <time>2012-06-03T11:47:21Z</time>
      </trkpt>
      <trkpt lat="44.59755" lon="2.99414">
        <ele>1308.01</ele>
        <time>2012-06-03T11:47:35Z</time>
      </trkpt>
      <trkpt lat="44.59766" lon="2.99399">
        <ele>1308.49</ele>
        <time>2012-06-03T11:47:48Z</time>
      </trkpt>
      <trkpt lat="44.59775" lon="2.99391">
        <ele>1308.49</ele>
        <time>2012-06-03T11:47:58Z</time>
      </trkpt>
      <trkpt lat="44.59782" lon="2.99378">
        <ele>1309.93</ele>
        <time>2012-06-03T11:48:10Z</time>
      </trkpt>
      <trkpt lat="44.59795" lon="2.99365">
        <ele>1310.9</ele>
        <time>2012-06-03T11:48:19Z</time>
      </trkpt>
      <trkpt lat="44.59802" lon="2.99349">
        <ele>1310.9</ele>
        <time>2012-06-03T11:48:30Z</time>
      </trkpt>
      <trkpt lat="44.59811" lon="2.99336">
        <ele>1310.41</ele>
        <time>2012-06-03T11:48:40Z</time>
      </trkpt>
      <trkpt lat="44.5982" lon="2.99325">
        <ele>1309.93</ele>
        <time>2012-06-03T11:51:37Z</time>
      </trkpt>
      <trkpt lat="44.59829" lon="2.99311">
        <ele>1309.45</ele>
        <time>2012-06-03T11:51:50Z</time>
      </trkpt>
      <trkpt lat="44.59835" lon="2.9929">
        <ele>1308.49</ele>
        <time>2012-06-03T11:52:10Z</time>
      </trkpt>
      <trkpt lat="44.59843" lon="2.99273">
        <ele>1308.01</ele>
        <time>2012-06-03T11:52:26Z</time>
      </trkpt>
      <trkpt lat="44.59865" lon="2.99249">
        <ele>1307.53</ele>
        <time>2012-06-03T11:52:40Z</time>
      </trkpt>
      <trkpt lat="44.59878" lon="2.99227">
        <ele>1307.05</ele>
        <time>2012-06-03T11:52:56Z</time>
      </trkpt>
      <trkpt lat="44.59886" lon="2.9921">
        <ele>1306.09</ele>
        <time>2012-06-03T11:53:15Z</time>
      </trkpt>
      <trkpt lat="44.59906" lon="2.99186">
        <ele>1307.05</ele>
        <time>2012-06-03T11:53:33Z</time>
      </trkpt>
      <trkpt lat="44.5992" lon="2.99168">
        <ele>1306.57</ele>
        <time>2012-06-03T11:53:47Z</time>
      </trkpt>
      <trkpt lat="44.59933" lon="2.99148">
        <ele>1306.57</ele>
        <time>2012-06-03T11:54:08Z</time>
      </trkpt>
      <trkpt lat="44.59943" lon="2.99131">
        <ele>1304.17</ele>
        <time>2012-06-03T11:54:34Z</time>
      </trkpt>
      <trkpt lat="44.59948" lon="2.99116">
        <ele>1304.17</ele>
        <time>2012-06-03T11:55:13Z</time>
      </trkpt>
      <trkpt lat="44.59957" lon="2.99097">
        <ele>1303.2</ele>
        <time>2012-06-03T11:56:19Z</time>
      </trkpt>
      <trkpt lat="44.59959" lon="2.99086">
        <ele>1303.69</ele>
        <time>2012-06-03T11:56:31Z</time>
      </trkpt>
      <trkpt lat="44.59965" lon="2.99074">
        <ele>1303.2</ele>
        <time>2012-06-03T11:56:46Z</time>
      </trkpt>
      <trkpt lat="44.59969" lon="2.99066">
        <ele>1303.69</ele>
        <time>2012-06-03T11:57:01Z</time>
      </trkpt>
      <trkpt lat="44.59974" lon="2.99046">
        <ele>1304.17</ele>
        <time>2012-06-03T11:57:24Z</time>
      </trkpt>
      <trkpt lat="44.59974" lon="2.99027">
        <ele>1304.17</ele>
        <time>2012-06-03T11:57:32Z</time>
      </trkpt>
      <trkpt lat="44.5997" lon="2.99009">
        <ele>1304.65</ele>
        <time>2012-06-03T11:57:40Z</time>
      </trkpt>
      <trkpt lat="44.59972" lon="2.98998">
        <ele>1304.65</ele>
        <time>2012-06-03T11:57:47Z</time>
      </trkpt>
      <trkpt lat="44.59969" lon="2.9897">
        <ele>1303.2</ele>
        <time>2012-06-03T11:58:01Z</time>
      </trkpt>
      <trkpt lat="44.59967" lon="2.98949">
        <ele>1303.2</ele>
        <time>2012-06-03T11:58:11Z</time>
      </trkpt>
      <trkpt lat="44.59964" lon="2.98927">
        <ele>1302.24</ele>
        <time>2012-06-03T11:58:25Z</time>
      </trkpt>
      <trkpt lat="44.59957" lon="2.98908">
        <ele>1300.8</ele>
        <time>2012-06-03T11:58:35Z</time>
      </trkpt>
      <trkpt lat="44.59954" lon="2.98888">
        <ele>1300.8</ele>
        <time>2012-06-03T11:58:46Z</time>
      </trkpt>
      <trkpt lat="44.59951" lon="2.98869">
        <ele>1300.32</ele>
        <time>2012-06-03T11:58:57Z</time>
      </trkpt>
      <trkpt lat="44.59948" lon="2.98851">
        <ele>1300.32</ele>
        <time>2012-06-03T11:59:07Z</time>
      </trkpt>
      <trkpt lat="44.59951" lon="2.98832">
        <ele>1299.84</ele>
        <time>2012-06-03T11:59:20Z</time>
      </trkpt>
      <trkpt lat="44.59955" lon="2.98819">
        <ele>1300.32</ele>
        <time>2012-06-03T11:59:47Z</time>
      </trkpt>
      <trkpt lat="44.59949" lon="2.98804">
        <ele>1299.84</ele>
        <time>2012-06-03T11:59:57Z</time>
      </trkpt>
      <trkpt lat="44.59949" lon="2.98774">
        <ele>1300.32</ele>
        <time>2012-06-03T12:00:10Z</time>
      </trkpt>
      <trkpt lat="44.59949" lon="2.98749">
        <ele>1301.28</ele>
        <time>2012-06-03T12:00:25Z</time>
      </trkpt>
      <trkpt lat="44.59946" lon="2.98726">
        <ele>1301.28</ele>
        <time>2012-06-03T12:00:46Z</time>
      </trkpt>
      <trkpt lat="44.59942" lon="2.98701">
        <ele>1300.8</ele>
        <time>2012-06-03T12:00:58Z</time>
      </trkpt>
      <trkpt lat="44.59936" lon="2.98683">
        <ele>1299.84</ele>
        <time>2012-06-03T12:01:10Z</time>
      </trkpt>
      <trkpt lat="44.5993" lon="2.98666">
        <ele>1299.84</ele>
        <time>2012-06-03T12:01:25Z</time>
      </trkpt>
      <trkpt lat="44.59921" lon="2.98641">
        <ele>1299.84</ele>
        <time>2012-06-03T12:01:37Z</time>
      </trkpt>
      <trkpt lat="44.59917" lon="2.9862">
        <ele>1299.36</ele>
        <time>2012-06-03T12:01:52Z</time>
      </trkpt>
      <trkpt lat="44.59914" lon="2.98598">
        <ele>1298.88</ele>
        <time>2012-06-03T12:02:02Z</time>
      </trkpt>
      <trkpt lat="44.59912" lon="2.98578">
        <ele>1297.92</ele>
        <time>2012-06-03T12:02:17Z</time>
      </trkpt>
      <trkpt lat="44.59907" lon="2.98562">
        <ele>1296.48</ele>
        <time>2012-06-03T12:02:31Z</time>
      </trkpt>
      <trkpt lat="44.59903" lon="2.98526">
        <ele>1295.51</ele>
        <time>2012-06-03T12:02:45Z</time>
      </trkpt>
      <trkpt lat="44.59899" lon="2.985">
        <ele>1294.07</ele>
        <time>2012-06-03T12:02:57Z</time>
      </trkpt>
      <trkpt lat="44.59894" lon="2.98479">
        <ele>1293.59</ele>
        <time>2012-06-03T12:03:12Z</time>
      </trkpt>
      <trkpt lat="44.59888" lon="2.98465">
        <ele>1293.11</ele>
        <time>2012-06-03T12:03:24Z</time>
      </trkpt>
      <trkpt lat="44.59879" lon="2.98445">
        <ele>1292.63</ele>
        <time>2012-06-03T12:03:39Z</time>
      </trkpt>
      <trkpt lat="44.5987" lon="2.98429">
        <ele>1292.15</ele>
        <time>2012-06-03T12:03:48Z</time>
      </trkpt>
      <trkpt lat="44.59863" lon="2.9842">
        <ele>1292.63</ele>
        <time>2012-06-03T12:03:54Z</time>
      </trkpt>
      <trkpt lat="44.5986" lon="2.9841">
        <ele>1294.07</ele>
        <time>2012-06-03T12:04:07Z</time>
      </trkpt>
      <trkpt lat="44.59858" lon="2.98401">
        <ele>1295.99</ele>
        <time>2012-06-03T12:04:30Z</time>
      </trkpt>
      <trkpt lat="44.59848" lon="2.98387">
        <ele>1295.99</ele>
        <time>2012-06-03T12:04:50Z</time>
      </trkpt>
      <trkpt lat="44.59831" lon="2.9837">
        <ele>1295.51</ele>
        <time>2012-06-03T12:05:05Z</time>
      </trkpt>
      <trkpt lat="44.59814" lon="2.98354">
        <ele>1295.03</ele>
        <time>2012-06-03T12:05:18Z</time>
      </trkpt>
      <trkpt lat="44.59807" lon="2.98344">
        <ele>1294.07</ele>
        <time>2012-06-03T12:05:28Z</time>
      </trkpt>
      <trkpt lat="44.59797" lon="2.98332">
        <ele>1294.07</ele>
        <time>2012-06-03T12:05:36Z</time>
      </trkpt>
      <trkpt lat="44.59784" lon="2.98313">
        <ele>1293.11</ele>
        <time>2012-06-03T12:05:49Z</time>
      </trkpt>
      <trkpt lat="44.59772" lon="2.98298">
        <ele>1292.63</ele>
        <time>2012-06-03T12:05:57Z</time>
      </trkpt>
      <trkpt lat="44.59762" lon="2.98283">
        <ele>1293.11</ele>
        <time>2012-06-03T12:06:04Z</time>
      </trkpt>
      <trkpt lat="44.59751" lon="2.98266">
        <ele>1292.63</ele>
        <time>2012-06-03T12:06:18Z</time>
      </trkpt>
      <trkpt lat="44.59742" lon="2.98254">
        <ele>1292.15</ele>
        <time>2012-06-03T12:06:43Z</time>
      </trkpt>
      <trkpt lat="44.59732" lon="2.98243">
        <ele>1291.19</ele>
        <time>2012-06-03T12:06:54Z</time>
      </trkpt>
      <trkpt lat="44.59711" lon="2.9822">
        <ele>1291.67</ele>
        <time>2012-06-03T12:07:47Z</time>
      </trkpt>
      <trkpt lat="44.59701" lon="2.98207">
        <ele>1290.71</ele>
        <time>2012-06-03T12:07:55Z</time>
      </trkpt>
      <trkpt lat="44.59689" lon="2.98192">
        <ele>1290.23</ele>
        <time>2012-06-03T12:08:05Z</time>
      </trkpt>
      <trkpt lat="44.5968" lon="2.98185">
        <ele>1289.75</ele>
        <time>2012-06-03T12:08:14Z</time>
      </trkpt>
      <trkpt lat="44.59672" lon="2.98177">
        <ele>1289.27</ele>
        <time>2012-06-03T12:08:24Z</time>
      </trkpt>
      <trkpt lat="44.59663" lon="2.98169">
        <ele>1289.27</ele>
        <time>2012-06-03T12:08:34Z</time>
      </trkpt>
      <trkpt lat="44.59652" lon="2.98164">
        <ele>1289.27</ele>
        <time>2012-06-03T12:08:48Z</time>
      </trkpt>
      <trkpt lat="44.59643" lon="2.98162">
        <ele>1289.27</ele>
        <time>2012-06-03T12:08:58Z</time>
      </trkpt>
      <trkpt lat="44.59633" lon="2.98153">
        <ele>1289.75</ele>
        <time>2012-06-03T12:09:08Z</time>
      </trkpt>
      <trkpt lat="44.59624" lon="2.98143">
        <ele>1288.78</ele>
        <time>2012-06-03T12:09:18Z</time>
      </trkpt>
      <trkpt lat="44.59613" lon="2.98136">
        <ele>1289.27</ele>
        <time>2012-06-03T12:09:29Z</time>
      </trkpt>
      <trkpt lat="44.59602" lon="2.98128">
        <ele>1289.75</ele>
        <time>2012-06-03T12:09:40Z</time>
      </trkpt>
      <trkpt lat="44.59592" lon="2.98118">
        <ele>1289.75</ele>
        <time>2012-06-03T12:09:52Z</time>
      </trkpt>
      <trkpt lat="44.5958" lon="2.9811">
        <ele>1290.71</ele>
        <time>2012-06-03T12:10:03Z</time>
      </trkpt>
      <trkpt lat="44.59568" lon="2.98103">
        <ele>1290.71</ele>
        <time>2012-06-03T12:10:15Z</time>
      </trkpt>
      <trkpt lat="44.59557" lon="2.98093">
        <ele>1291.67</ele>
        <time>2012-06-03T12:10:26Z</time>
      </trkpt>
      <trkpt lat="44.59546" lon="2.98086">
        <ele>1291.67</ele>
        <time>2012-06-03T12:10:37Z</time>
      </trkpt>
      <trkpt lat="44.59536" lon="2.98078">
        <ele>1292.15</ele>
        <time>2012-06-03T12:10:47Z</time>
      </trkpt>
      <trkpt lat="44.59526" lon="2.98074">
        <ele>1291.67</ele>
        <time>2012-06-03T12:10:57Z</time>
      </trkpt>
      <trkpt lat="44.59517" lon="2.98066">
        <ele>1291.67</ele>
        <time>2012-06-03T12:11:07Z</time>
      </trkpt>
      <trkpt lat="44.59507" lon="2.9806">
        <ele>1291.67</ele>
        <time>2012-06-03T12:11:16Z</time>
      </trkpt>
      <trkpt lat="44.59496" lon="2.98055">
        <ele>1292.15</ele>
        <time>2012-06-03T12:11:25Z</time>
      </trkpt>
      <trkpt lat="44.59486" lon="2.9805">
        <ele>1292.15</ele>
        <time>2012-06-03T12:11:35Z</time>
      </trkpt>
      <trkpt lat="44.59472" lon="2.9804">
        <ele>1292.15</ele>
        <time>2012-06-03T12:11:47Z</time>
      </trkpt>
      <trkpt lat="44.59458" lon="2.98034">
        <ele>1293.11</ele>
        <time>2012-06-03T12:11:58Z</time>
      </trkpt>
      <trkpt lat="44.59449" lon="2.98026">
        <ele>1292.63</ele>
        <time>2012-06-03T12:12:09Z</time>
      </trkpt>
      <trkpt lat="44.59439" lon="2.98022">
        <ele>1292.63</ele>
        <time>2012-06-03T12:12:18Z</time>
      </trkpt>
      <trkpt lat="44.59429" lon="2.98018">
        <ele>1292.63</ele>
        <time>2012-06-03T12:12:32Z</time>
      </trkpt>
      <trkpt lat="44.59419" lon="2.98013">
        <ele>1292.15</ele>
        <time>2012-06-03T12:12:44Z</time>
      </trkpt>
      <trkpt lat="44.594" lon="2.98004">
        <ele>1291.67</ele>
        <time>2012-06-03T12:13:03Z</time>
      </trkpt>
      <trkpt lat="44.59384" lon="2.97998">
        <ele>1291.19</ele>
        <time>2012-06-03T12:13:21Z</time>
      </trkpt>
      <trkpt lat="44.5937" lon="2.97994">
        <ele>1290.71</ele>
        <time>2012-06-03T12:13:36Z</time>
      </trkpt>
      <trkpt lat="44.59352" lon="2.9799">
        <ele>1291.67</ele>
        <time>2012-06-03T12:13:51Z</time>
      </trkpt>
      <trkpt lat="44.59334" lon="2.97986">
        <ele>1291.19</ele>
        <time>2012-06-03T12:14:05Z</time>
      </trkpt>
      <trkpt lat="44.59316" lon="2.97982">
        <ele>1291.19</ele>
        <time>2012-06-03T12:14:22Z</time>
      </trkpt>
      <trkpt lat="44.593" lon="2.97978">
        <ele>1290.71</ele>
        <time>2012-06-03T12:14:34Z</time>
      </trkpt>
      <trkpt lat="44.59285" lon="2.97973">
        <ele>1290.71</ele>
        <time>2012-06-03T12:14:42Z</time>
      </trkpt>
      <trkpt lat="44.59269" lon="2.97972">
        <ele>1290.71</ele>
        <time>2012-06-03T12:14:55Z</time>
      </trkpt>
      <trkpt lat="44.59256" lon="2.9797">
        <ele>1289.75</ele>
        <time>2012-06-03T12:15:05Z</time>
      </trkpt>
      <trkpt lat="44.59237" lon="2.97962">
        <ele>1289.27</ele>
        <time>2012-06-03T12:15:16Z</time>
      </trkpt>
      <trkpt lat="44.59224" lon="2.97961">
        <ele>1289.27</ele>
        <time>2012-06-03T12:15:29Z</time>
      </trkpt>
      <trkpt lat="44.59207" lon="2.97956">
        <ele>1288.3</ele>
        <time>2012-06-03T12:15:41Z</time>
      </trkpt>
      <trkpt lat="44.59194" lon="2.97953">
        <ele>1288.3</ele>
        <time>2012-06-03T12:15:51Z</time>
      </trkpt>
      <trkpt lat="44.5918" lon="2.97954">
        <ele>1287.82</ele>
        <time>2012-06-03T12:16:04Z</time>
      </trkpt>
      <trkpt lat="44.59163" lon="2.97955">
        <ele>1288.3</ele>
        <time>2012-06-03T12:16:18Z</time>
      </trkpt>
      <trkpt lat="44.59147" lon="2.97956">
        <ele>1288.3</ele>
        <time>2012-06-03T12:16:32Z</time>
      </trkpt>
      <trkpt lat="44.59132" lon="2.97958">
        <ele>1288.78</ele>
        <time>2012-06-03T12:16:46Z</time>
      </trkpt>
      <trkpt lat="44.59114" lon="2.97957">
        <ele>1288.78</ele>
        <time>2012-06-03T12:16:58Z</time>
      </trkpt>
      <trkpt lat="44.59101" lon="2.9796">
        <ele>1289.27</ele>
        <time>2012-06-03T12:17:10Z</time>
      </trkpt>
      <trkpt lat="44.59084" lon="2.97961">
        <ele>1289.27</ele>
        <time>2012-06-03T12:17:24Z</time>
      </trkpt>
      <trkpt lat="44.59068" lon="2.9796">
        <ele>1288.3</ele>
        <time>2012-06-03T12:17:37Z</time>
      </trkpt>
      <trkpt lat="44.59054" lon="2.97962">
        <ele>1287.82</ele>
        <time>2012-06-03T12:17:50Z</time>
      </trkpt>
      <trkpt lat="44.59042" lon="2.97964">
        <ele>1287.34</ele>
        <time>2012-06-03T12:18:02Z</time>
      </trkpt>
      <trkpt lat="44.59025" lon="2.97964">
        <ele>1287.82</ele>
        <time>2012-06-03T12:18:14Z</time>
      </trkpt>
      <trkpt lat="44.5901" lon="2.97964">
        <ele>1287.34</ele>
        <time>2012-06-03T12:18:24Z</time>
      </trkpt>
      <trkpt lat="44.58996" lon="2.97967">
        <ele>1287.34</ele>
        <time>2012-06-03T12:18:32Z</time>
      </trkpt>
      <trkpt lat="44.58983" lon="2.97966">
        <ele>1286.86</ele>
        <time>2012-06-03T12:18:42Z</time>
      </trkpt>
      <trkpt lat="44.58972" lon="2.97966">
        <ele>1286.86</ele>
        <time>2012-06-03T12:18:53Z</time>
      </trkpt>
      <trkpt lat="44.58956" lon="2.97968">
        <ele>1286.38</ele>
        <time>2012-06-03T12:19:09Z</time>
      </trkpt>
      <trkpt lat="44.58941" lon="2.97967">
        <ele>1285.42</ele>
        <time>2012-06-03T12:19:21Z</time>
      </trkpt>
      <trkpt lat="44.58929" lon="2.9797">
        <ele>1284.94</ele>
        <time>2012-06-03T12:19:33Z</time>
      </trkpt>
      <trkpt lat="44.58914" lon="2.97973">
        <ele>1285.42</ele>
        <time>2012-06-03T12:19:46Z</time>
      </trkpt>
      <trkpt lat="44.58897" lon="2.97973">
        <ele>1284.94</ele>
        <time>2012-06-03T12:19:56Z</time>
      </trkpt>
      <trkpt lat="44.58883" lon="2.97974">
        <ele>1285.9</ele>
        <time>2012-06-03T12:20:08Z</time>
      </trkpt>
      <trkpt lat="44.58869" lon="2.97975">
        <ele>1285.42</ele>
        <time>2012-06-03T12:20:18Z</time>
      </trkpt>
      <trkpt lat="44.58859" lon="2.97976">
        <ele>1285.42</ele>
        <time>2012-06-03T12:20:28Z</time>
      </trkpt>
      <trkpt lat="44.58848" lon="2.97978">
        <ele>1285.42</ele>
        <time>2012-06-03T12:20:40Z</time>
      </trkpt>
      <trkpt lat="44.58833" lon="2.97978">
        <ele>1284.94</ele>
        <time>2012-06-03T12:20:51Z</time>
      </trkpt>
      <trkpt lat="44.58818" lon="2.97977">
        <ele>1284.94</ele>
        <time>2012-06-03T12:21:02Z</time>
      </trkpt>
      <trkpt lat="44.58805" lon="2.97978">
        <ele>1284.46</ele>
        <time>2012-06-03T12:21:14Z</time>
      </trkpt>
      <trkpt lat="44.58793" lon="2.97979">
        <ele>1284.46</ele>
        <time>2012-06-03T12:21:25Z</time>
      </trkpt>
      <trkpt lat="44.5878" lon="2.97979">
        <ele>1284.94</ele>
        <time>2012-06-03T12:21:34Z</time>
      </trkpt>
      <trkpt lat="44.58768" lon="2.97979">
        <ele>1283.98</ele>
        <time>2012-06-03T12:21:48Z</time>
      </trkpt>
      <trkpt lat="44.58755" lon="2.97974">
        <ele>1283.02</ele>
        <time>2012-06-03T12:22:03Z</time>
      </trkpt>
      <trkpt lat="44.58743" lon="2.97966">
        <ele>1282.06</ele>
        <time>2012-06-03T12:22:14Z</time>
      </trkpt>
      <trkpt lat="44.58733" lon="2.97956">
        <ele>1281.09</ele>
        <time>2012-06-03T12:22:26Z</time>
      </trkpt>
      <trkpt lat="44.5872" lon="2.97941">
        <ele>1280.13</ele>
        <time>2012-06-03T12:22:38Z</time>
      </trkpt>
      <trkpt lat="44.58709" lon="2.9793">
        <ele>1279.17</ele>
        <time>2012-06-03T12:22:48Z</time>
      </trkpt>
      <trkpt lat="44.58702" lon="2.97919">
        <ele>1278.69</ele>
        <time>2012-06-03T12:22:57Z</time>
      </trkpt>
      <trkpt lat="44.58692" lon="2.97904">
        <ele>1278.21</ele>
        <time>2012-06-03T12:23:19Z</time>
      </trkpt>
      <trkpt lat="44.58686" lon="2.97894">
        <ele>1278.21</ele>
        <time>2012-06-03T12:23:27Z</time>
      </trkpt>
      <trkpt lat="44.58679" lon="2.97884">
        <ele>1278.21</ele>
        <time>2012-06-03T12:23:35Z</time>
      </trkpt>
      <trkpt lat="44.58672" lon="2.97875">
        <ele>1277.25</ele>
        <time>2012-06-03T12:23:44Z</time>
      </trkpt>
      <trkpt lat="44.58665" lon="2.97864">
        <ele>1276.29</ele>
        <time>2012-06-03T12:23:53Z</time>
      </trkpt>
      <trkpt lat="44.58657" lon="2.97855">
        <ele>1275.33</ele>
        <time>2012-06-03T12:24:03Z</time>
      </trkpt>
      <trkpt lat="44.5865" lon="2.97845">
        <ele>1274.85</ele>
        <time>2012-06-03T12:24:14Z</time>
      </trkpt>
      <trkpt lat="44.58643" lon="2.97833">
        <ele>1273.88</ele>
        <time>2012-06-03T12:24:25Z</time>
      </trkpt>
      <trkpt lat="44.58634" lon="2.97823">
        <ele>1273.88</ele>
        <time>2012-06-03T12:24:35Z</time>
      </trkpt>
      <trkpt lat="44.58627" lon="2.9781">
        <ele>1271.96</ele>
        <time>2012-06-03T12:24:46Z</time>
      </trkpt>
      <trkpt lat="44.58618" lon="2.97798">
        <ele>1271.96</ele>
        <time>2012-06-03T12:24:56Z</time>
      </trkpt>
      <trkpt lat="44.58609" lon="2.97785">
        <ele>1271</ele>
        <time>2012-06-03T12:25:14Z</time>
      </trkpt>
      <trkpt lat="44.58599" lon="2.97771">
        <ele>1270.04</ele>
        <time>2012-06-03T12:25:25Z</time>
      </trkpt>
      <trkpt lat="44.58591" lon="2.97762">
        <ele>1270.04</ele>
        <time>2012-06-03T12:25:35Z</time>
      </trkpt>
      <trkpt lat="44.58583" lon="2.97751">
        <ele>1269.56</ele>
        <time>2012-06-03T12:25:44Z</time>
      </trkpt>
      <trkpt lat="44.58575" lon="2.9774">
        <ele>1268.12</ele>
        <time>2012-06-03T12:25:53Z</time>
      </trkpt>
      <trkpt lat="44.58565" lon="2.9773">
        <ele>1267.64</ele>
        <time>2012-06-03T12:26:02Z</time>
      </trkpt>
      <trkpt lat="44.58559" lon="2.97717">
        <ele>1267.64</ele>
        <time>2012-06-03T12:26:10Z</time>
      </trkpt>
      <trkpt lat="44.58551" lon="2.97709">
        <ele>1268.12</ele>
        <time>2012-06-03T12:26:18Z</time>
      </trkpt>
      <trkpt lat="44.58544" lon="2.97698">
        <ele>1266.67</ele>
        <time>2012-06-03T12:26:26Z</time>
      </trkpt>
      <trkpt lat="44.58537" lon="2.97688">
        <ele>1267.64</ele>
        <time>2012-06-03T12:26:35Z</time>
      </trkpt>
      <trkpt lat="44.5853" lon="2.97678">
        <ele>1266.67</ele>
        <time>2012-06-03T12:26:44Z</time>
      </trkpt>
      <trkpt lat="44.58522" lon="2.97667">
        <ele>1266.67</ele>
        <time>2012-06-03T12:26:52Z</time>
      </trkpt>
      <trkpt lat="44.58515" lon="2.97657">
        <ele>1266.19</ele>
        <time>2012-06-03T12:27:00Z</time>
      </trkpt>
      <trkpt lat="44.58508" lon="2.97648">
        <ele>1266.19</ele>
        <time>2012-06-03T12:27:08Z</time>
      </trkpt>
      <trkpt lat="44.58502" lon="2.97638">
        <ele>1266.19</ele>
        <time>2012-06-03T12:27:15Z</time>
      </trkpt>
      <trkpt lat="44.58495" lon="2.97632">
        <ele>1266.19</ele>
        <time>2012-06-03T12:27:32Z</time>
      </trkpt>
      <trkpt lat="44.58487" lon="2.97626">
        <ele>1266.67</ele>
        <time>2012-06-03T12:27:45Z</time>
      </trkpt>
      <trkpt lat="44.58483" lon="2.97615">
        <ele>1265.71</ele>
        <time>2012-06-03T12:27:55Z</time>
      </trkpt>
      <trkpt lat="44.58477" lon="2.97604">
        <ele>1266.19</ele>
        <time>2012-06-03T12:28:04Z</time>
      </trkpt>
      <trkpt lat="44.58469" lon="2.97594">
        <ele>1265.71</ele>
        <time>2012-06-03T12:28:15Z</time>
      </trkpt>
      <trkpt lat="44.58461" lon="2.97583">
        <ele>1266.19</ele>
        <time>2012-06-03T12:28:23Z</time>
      </trkpt>
      <trkpt lat="44.58453" lon="2.97573">
        <ele>1265.71</ele>
        <time>2012-06-03T12:28:31Z</time>
      </trkpt>
      <trkpt lat="44.58446" lon="2.97563">
        <ele>1265.71</ele>
        <time>2012-06-03T12:28:40Z</time>
      </trkpt>
      <trkpt lat="44.58438" lon="2.9755">
        <ele>1265.23</ele>
        <time>2012-06-03T12:29:11Z</time>
      </trkpt>
      <trkpt lat="44.58431" lon="2.9754">
        <ele>1264.75</ele>
        <time>2012-06-03T12:29:20Z</time>
      </trkpt>
      <trkpt lat="44.58424" lon="2.9753">
        <ele>1265.23</ele>
        <time>2012-06-03T12:29:29Z</time>
      </trkpt>
      <trkpt lat="44.58416" lon="2.9752">
        <ele>1264.75</ele>
        <time>2012-06-03T12:29:38Z</time>
      </trkpt>
      <trkpt lat="44.58411" lon="2.9751">
        <ele>1264.75</ele>
        <time>2012-06-03T12:30:41Z</time>
      </trkpt>
      <trkpt lat="44.58404" lon="2.975">
        <ele>1265.23</ele>
        <time>2012-06-03T12:30:51Z</time>
      </trkpt>
      <trkpt lat="44.58396" lon="2.97491">
        <ele>1264.75</ele>
        <time>2012-06-03T12:31:00Z</time>
      </trkpt>
      <trkpt lat="44.58388" lon="2.97482">
        <ele>1265.71</ele>
        <time>2012-06-03T12:31:09Z</time>
      </trkpt>
      <trkpt lat="44.5838" lon="2.97473">
        <ele>1265.71</ele>
        <time>2012-06-03T12:31:18Z</time>
      </trkpt>
      <trkpt lat="44.58374" lon="2.97463">
        <ele>1265.23</ele>
        <time>2012-06-03T12:31:26Z</time>
      </trkpt>
      <trkpt lat="44.58367" lon="2.97454">
        <ele>1266.19</ele>
        <time>2012-06-03T12:31:35Z</time>
      </trkpt>
      <trkpt lat="44.58361" lon="2.97444">
        <ele>1265.71</ele>
        <time>2012-06-03T12:31:43Z</time>
      </trkpt>
      <trkpt lat="44.58356" lon="2.97433">
        <ele>1266.67</ele>
        <time>2012-06-03T12:31:51Z</time>
      </trkpt>
      <trkpt lat="44.58351" lon="2.9742">
        <ele>1266.19</ele>
        <time>2012-06-03T12:32:00Z</time>
      </trkpt>
      <trkpt lat="44.5835" lon="2.97407">
        <ele>1266.19</ele>
        <time>2012-06-03T12:32:08Z</time>
      </trkpt>
      <trkpt lat="44.58348" lon="2.97393">
        <ele>1266.19</ele>
        <time>2012-06-03T12:32:17Z</time>
      </trkpt>
      <trkpt lat="44.58346" lon="2.97379">
        <ele>1265.23</ele>
        <time>2012-06-03T12:32:25Z</time>
      </trkpt>
      <trkpt lat="44.58345" lon="2.97365">
        <ele>1265.71</ele>
        <time>2012-06-03T12:32:34Z</time>
      </trkpt>
      <trkpt lat="44.58344" lon="2.9735">
        <ele>1265.71</ele>
        <time>2012-06-03T12:32:45Z</time>
      </trkpt>
      <trkpt lat="44.58342" lon="2.97336">
        <ele>1265.23</ele>
        <time>2012-06-03T12:32:54Z</time>
      </trkpt>
      <trkpt lat="44.58341" lon="2.9732">
        <ele>1264.75</ele>
        <time>2012-06-03T12:33:04Z</time>
      </trkpt>
      <trkpt lat="44.58339" lon="2.97305">
        <ele>1265.23</ele>
        <time>2012-06-03T12:33:12Z</time>
      </trkpt>
      <trkpt lat="44.58338" lon="2.9729">
        <ele>1264.75</ele>
        <time>2012-06-03T12:33:21Z</time>
      </trkpt>
      <trkpt lat="44.58337" lon="2.97276">
        <ele>1264.27</ele>
        <time>2012-06-03T12:33:29Z</time>
      </trkpt>
      <trkpt lat="44.58335" lon="2.97262">
        <ele>1263.79</ele>
        <time>2012-06-03T12:33:37Z</time>
      </trkpt>
      <trkpt lat="44.58335" lon="2.97247">
        <ele>1263.31</ele>
        <time>2012-06-03T12:33:46Z</time>
      </trkpt>
      <trkpt lat="44.58334" lon="2.97232">
        <ele>1262.83</ele>
        <time>2012-06-03T12:33:55Z</time>
      </trkpt>
      <trkpt lat="44.58332" lon="2.97218">
        <ele>1262.35</ele>
        <time>2012-06-03T12:34:03Z</time>
      </trkpt>
      <trkpt lat="44.5833" lon="2.97204">
        <ele>1262.83</ele>
        <time>2012-06-03T12:34:11Z</time>
      </trkpt>
      <trkpt lat="44.58329" lon="2.97191">
        <ele>1261.87</ele>
        <time>2012-06-03T12:34:19Z</time>
      </trkpt>
      <trkpt lat="44.58327" lon="2.97177">
        <ele>1260.91</ele>
        <time>2012-06-03T12:34:27Z</time>
      </trkpt>
      <trkpt lat="44.58326" lon="2.97164">
        <ele>1259.94</ele>
        <time>2012-06-03T12:34:35Z</time>
      </trkpt>
      <trkpt lat="44.58325" lon="2.9715">
        <ele>1259.46</ele>
        <time>2012-06-03T12:34:43Z</time>
      </trkpt>
      <trkpt lat="44.58323" lon="2.97137">
        <ele>1258.5</ele>
        <time>2012-06-03T12:34:51Z</time>
      </trkpt>
      <trkpt lat="44.58322" lon="2.97122">
        <ele>1259.46</ele>
        <time>2012-06-03T12:34:59Z</time>
      </trkpt>
      <trkpt lat="44.58321" lon="2.97109">
        <ele>1258.02</ele>
        <time>2012-06-03T12:35:06Z</time>
      </trkpt>
      <trkpt lat="44.5832" lon="2.97096">
        <ele>1257.54</ele>
        <time>2012-06-03T12:35:14Z</time>
      </trkpt>
      <trkpt lat="44.58318" lon="2.97081">
        <ele>1257.06</ele>
        <time>2012-06-03T12:35:22Z</time>
      </trkpt>
      <trkpt lat="44.58317" lon="2.97068">
        <ele>1257.06</ele>
        <time>2012-06-03T12:35:30Z</time>
      </trkpt>
      <trkpt lat="44.58316" lon="2.97054">
        <ele>1257.06</ele>
        <time>2012-06-03T12:35:38Z</time>
      </trkpt>
      <trkpt lat="44.58314" lon="2.9704">
        <ele>1256.1</ele>
        <time>2012-06-03T12:35:46Z</time>
      </trkpt>
      <trkpt lat="44.58312" lon="2.97025">
        <ele>1256.58</ele>
        <time>2012-06-03T12:35:54Z</time>
      </trkpt>
      <trkpt lat="44.58311" lon="2.97012">
        <ele>1256.1</ele>
        <time>2012-06-03T12:36:02Z</time>
      </trkpt>
      <trkpt lat="44.5831" lon="2.96998">
        <ele>1255.14</ele>
        <time>2012-06-03T12:36:10Z</time>
      </trkpt>
      <trkpt lat="44.58309" lon="2.96986">
        <ele>1255.62</ele>
        <time>2012-06-03T12:36:18Z</time>
      </trkpt>
      <trkpt lat="44.58308" lon="2.96972">
        <ele>1254.66</ele>
        <time>2012-06-03T12:36:26Z</time>
      </trkpt>
      <trkpt lat="44.58306" lon="2.96958">
        <ele>1254.18</ele>
        <time>2012-06-03T12:36:35Z</time>
      </trkpt>
      <trkpt lat="44.58305" lon="2.96942">
        <ele>1254.18</ele>
        <time>2012-06-03T12:36:43Z</time>
      </trkpt>
      <trkpt lat="44.58303" lon="2.96929">
        <ele>1253.7</ele>
        <time>2012-06-03T12:36:51Z</time>
      </trkpt>
      <trkpt lat="44.58302" lon="2.96914">
        <ele>1253.7</ele>
        <time>2012-06-03T12:37:00Z</time>
      </trkpt>
      <trkpt lat="44.583" lon="2.96901">
        <ele>1252.74</ele>
        <time>2012-06-03T12:37:08Z</time>
      </trkpt>
      <trkpt lat="44.58299" lon="2.96888">
        <ele>1253.22</ele>
        <time>2012-06-03T12:37:15Z</time>
      </trkpt>
      <trkpt lat="44.58297" lon="2.96875">
        <ele>1251.77</ele>
        <time>2012-06-03T12:37:23Z</time>
      </trkpt>
      <trkpt lat="44.58295" lon="2.96861">
        <ele>1251.29</ele>
        <time>2012-06-03T12:37:31Z</time>
      </trkpt>
      <trkpt lat="44.58294" lon="2.96849">
        <ele>1249.85</ele>
        <time>2012-06-03T12:37:39Z</time>
      </trkpt>
      <trkpt lat="44.58293" lon="2.96835">
        <ele>1248.89</ele>
        <time>2012-06-03T12:37:47Z</time>
      </trkpt>
      <trkpt lat="44.58292" lon="2.96822">
        <ele>1249.37</ele>
        <time>2012-06-03T12:37:54Z</time>
      </trkpt>
      <trkpt lat="44.58293" lon="2.96808">
        <ele>1248.41</ele>
        <time>2012-06-03T12:38:04Z</time>
      </trkpt>
      <trkpt lat="44.58294" lon="2.96794">
        <ele>1247.93</ele>
        <time>2012-06-03T12:38:12Z</time>
      </trkpt>
      <trkpt lat="44.58295" lon="2.96783">
        <ele>1248.89</ele>
        <time>2012-06-03T12:38:24Z</time>
      </trkpt>
      <trkpt lat="44.58295" lon="2.9677">
        <ele>1246.97</ele>
        <time>2012-06-03T12:38:32Z</time>
      </trkpt>
      <trkpt lat="44.58297" lon="2.96756">
        <ele>1246.01</ele>
        <time>2012-06-03T12:38:40Z</time>
      </trkpt>
      <trkpt lat="44.58299" lon="2.96742">
        <ele>1245.53</ele>
        <time>2012-06-03T12:38:48Z</time>
      </trkpt>
      <trkpt lat="44.58302" lon="2.9673">
        <ele>1245.04</ele>
        <time>2012-06-03T12:38:56Z</time>
      </trkpt>
      <trkpt lat="44.58304" lon="2.96717">
        <ele>1245.04</ele>
        <time>2012-06-03T12:39:04Z</time>
      </trkpt>
      <trkpt lat="44.58307" lon="2.96704">
        <ele>1244.56</ele>
        <time>2012-06-03T12:39:12Z</time>
      </trkpt>
      <trkpt lat="44.58309" lon="2.96693">
        <ele>1243.6</ele>
        <time>2012-06-03T12:39:19Z</time>
      </trkpt>
      <trkpt lat="44.58311" lon="2.96679">
        <ele>1242.16</ele>
        <time>2012-06-03T12:39:27Z</time>
      </trkpt>
      <trkpt lat="44.58314" lon="2.96666">
        <ele>1242.16</ele>
        <time>2012-06-03T12:39:36Z</time>
      </trkpt>
      <trkpt lat="44.58316" lon="2.96652">
        <ele>1241.2</ele>
        <time>2012-06-03T12:39:44Z</time>
      </trkpt>
      <trkpt lat="44.5832" lon="2.9664">
        <ele>1240.24</ele>
        <time>2012-06-03T12:39:52Z</time>
      </trkpt>
      <trkpt lat="44.58322" lon="2.96627">
        <ele>1240.24</ele>
        <time>2012-06-03T12:40:00Z</time>
      </trkpt>
      <trkpt lat="44.58324" lon="2.96613">
        <ele>1239.28</ele>
        <time>2012-06-03T12:40:08Z</time>
      </trkpt>
      <trkpt lat="44.58327" lon="2.966">
        <ele>1237.83</ele>
        <time>2012-06-03T12:40:15Z</time>
      </trkpt>
      <trkpt lat="44.5833" lon="2.96587">
        <ele>1237.83</ele>
        <time>2012-06-03T12:40:24Z</time>
      </trkpt>
      <trkpt lat="44.58332" lon="2.96574">
        <ele>1236.39</ele>
        <time>2012-06-03T12:40:32Z</time>
      </trkpt>
      <trkpt lat="44.58334" lon="2.96559">
        <ele>1235.91</ele>
        <time>2012-06-03T12:40:41Z</time>
      </trkpt>
      <trkpt lat="44.58336" lon="2.96544">
        <ele>1234.47</ele>
        <time>2012-06-03T12:40:50Z</time>
      </trkpt>
      <trkpt lat="44.58339" lon="2.96531">
        <ele>1234.47</ele>
        <time>2012-06-03T12:40:58Z</time>
      </trkpt>
      <trkpt lat="44.58342" lon="2.96518">
        <ele>1233.03</ele>
        <time>2012-06-03T12:41:06Z</time>
      </trkpt>
      <trkpt lat="44.58345" lon="2.96505">
        <ele>1232.07</ele>
        <time>2012-06-03T12:41:14Z</time>
      </trkpt>
      <trkpt lat="44.58346" lon="2.9649">
        <ele>1231.59</ele>
        <time>2012-06-03T12:41:23Z</time>
      </trkpt>
      <trkpt lat="44.5835" lon="2.96476">
        <ele>1229.66</ele>
        <time>2012-06-03T12:41:32Z</time>
      </trkpt>
      <trkpt lat="44.58351" lon="2.96462">
        <ele>1230.14</ele>
        <time>2012-06-03T12:41:40Z</time>
      </trkpt>
      <trkpt lat="44.58353" lon="2.96449">
        <ele>1229.66</ele>
        <time>2012-06-03T12:41:49Z</time>
      </trkpt>
      <trkpt lat="44.58355" lon="2.96434">
        <ele>1229.18</ele>
        <time>2012-06-03T12:41:58Z</time>
      </trkpt>
      <trkpt lat="44.58358" lon="2.9642">
        <ele>1227.26</ele>
        <time>2012-06-03T12:42:07Z</time>
      </trkpt>
      <trkpt lat="44.5836" lon="2.96407">
        <ele>1226.78</ele>
        <time>2012-06-03T12:42:15Z</time>
      </trkpt>
      <trkpt lat="44.58363" lon="2.96394">
        <ele>1226.3</ele>
        <time>2012-06-03T12:42:23Z</time>
      </trkpt>
      <trkpt lat="44.58365" lon="2.96379">
        <ele>1225.34</ele>
        <time>2012-06-03T12:42:33Z</time>
      </trkpt>
      <trkpt lat="44.58367" lon="2.96364">
        <ele>1224.38</ele>
        <time>2012-06-03T12:42:41Z</time>
      </trkpt>
      <trkpt lat="44.5837" lon="2.96352">
        <ele>1222.45</ele>
        <time>2012-06-03T12:42:48Z</time>
      </trkpt>
      <trkpt lat="44.58373" lon="2.96339">
        <ele>1221.49</ele>
        <time>2012-06-03T12:42:56Z</time>
      </trkpt>
      <trkpt lat="44.58375" lon="2.96324">
        <ele>1220.53</ele>
        <time>2012-06-03T12:43:04Z</time>
      </trkpt>
      <trkpt lat="44.58377" lon="2.96311">
        <ele>1219.09</ele>
        <time>2012-06-03T12:43:12Z</time>
      </trkpt>
      <trkpt lat="44.5838" lon="2.96299">
        <ele>1218.61</ele>
        <time>2012-06-03T12:43:21Z</time>
      </trkpt>
      <trkpt lat="44.58383" lon="2.96286">
        <ele>1217.65</ele>
        <time>2012-06-03T12:43:29Z</time>
      </trkpt>
      <trkpt lat="44.58385" lon="2.96273">
        <ele>1217.17</ele>
        <time>2012-06-03T12:43:38Z</time>
      </trkpt>
      <trkpt lat="44.58389" lon="2.96258">
        <ele>1215.72</ele>
        <time>2012-06-03T12:43:48Z</time>
      </trkpt>
      <trkpt lat="44.58391" lon="2.96243">
        <ele>1215.24</ele>
        <time>2012-06-03T12:43:57Z</time>
      </trkpt>
      <trkpt lat="44.58395" lon="2.96228">
        <ele>1213.8</ele>
        <time>2012-06-03T12:44:07Z</time>
      </trkpt>
      <trkpt lat="44.58395" lon="2.96214">
        <ele>1213.32</ele>
        <time>2012-06-03T12:44:14Z</time>
      </trkpt>
      <trkpt lat="44.58397" lon="2.96201">
        <ele>1212.36</ele>
        <time>2012-06-03T12:44:22Z</time>
      </trkpt>
      <trkpt lat="44.58401" lon="2.96188">
        <ele>1210.44</ele>
        <time>2012-06-03T12:44:30Z</time>
      </trkpt>
      <trkpt lat="44.58404" lon="2.96174">
        <ele>1210.92</ele>
        <time>2012-06-03T12:44:38Z</time>
      </trkpt>
      <trkpt lat="44.58406" lon="2.96161">
        <ele>1208.51</ele>
        <time>2012-06-03T12:44:45Z</time>
      </trkpt>
      <trkpt lat="44.58409" lon="2.96148">
        <ele>1209</ele>
        <time>2012-06-03T12:44:52Z</time>
      </trkpt>
      <trkpt lat="44.5841" lon="2.96136">
        <ele>1207.55</ele>
        <time>2012-06-03T12:45:00Z</time>
      </trkpt>
      <trkpt lat="44.58413" lon="2.96121">
        <ele>1207.07</ele>
        <time>2012-06-03T12:45:09Z</time>
      </trkpt>
      <trkpt lat="44.58416" lon="2.96109">
        <ele>1206.11</ele>
        <time>2012-06-03T12:45:16Z</time>
      </trkpt>
      <trkpt lat="44.58417" lon="2.96096">
        <ele>1205.63</ele>
        <time>2012-06-03T12:45:24Z</time>
      </trkpt>
      <trkpt lat="44.58421" lon="2.96083">
        <ele>1204.67</ele>
        <time>2012-06-03T12:45:32Z</time>
      </trkpt>
      <trkpt lat="44.58423" lon="2.96069">
        <ele>1203.23</ele>
        <time>2012-06-03T12:45:41Z</time>
      </trkpt>
      <trkpt lat="44.58426" lon="2.96054">
        <ele>1202.75</ele>
        <time>2012-06-03T12:45:50Z</time>
      </trkpt>
      <trkpt lat="44.58428" lon="2.9604">
        <ele>1201.3</ele>
        <time>2012-06-03T12:45:58Z</time>
      </trkpt>
      <trkpt lat="44.58431" lon="2.96028">
        <ele>1200.82</ele>
        <time>2012-06-03T12:46:05Z</time>
      </trkpt>
      <trkpt lat="44.58434" lon="2.96015">
        <ele>1199.86</ele>
        <time>2012-06-03T12:46:14Z</time>
      </trkpt>
      <trkpt lat="44.58437" lon="2.96001">
        <ele>1198.9</ele>
        <time>2012-06-03T12:46:23Z</time>
      </trkpt>
      <trkpt lat="44.58439" lon="2.95986">
        <ele>1197.46</ele>
        <time>2012-06-03T12:46:31Z</time>
      </trkpt>
      <trkpt lat="44.58442" lon="2.95972">
        <ele>1196.98</ele>
        <time>2012-06-03T12:46:39Z</time>
      </trkpt>
      <trkpt lat="44.58442" lon="2.9596">
        <ele>1196.5</ele>
        <time>2012-06-03T12:46:46Z</time>
      </trkpt>
      <trkpt lat="44.58445" lon="2.95946">
        <ele>1196.02</ele>
        <time>2012-06-03T12:46:54Z</time>
      </trkpt>
      <trkpt lat="44.58448" lon="2.95932">
        <ele>1196.5</ele>
        <time>2012-06-03T12:47:02Z</time>
      </trkpt>
      <trkpt lat="44.58452" lon="2.95921">
        <ele>1195.54</ele>
        <time>2012-06-03T12:47:09Z</time>
      </trkpt>
      <trkpt lat="44.58457" lon="2.95909">
        <ele>1195.54</ele>
        <time>2012-06-03T12:47:17Z</time>
      </trkpt>
      <trkpt lat="44.58461" lon="2.95899">
        <ele>1194.58</ele>
        <time>2012-06-03T12:47:46Z</time>
      </trkpt>
      <trkpt lat="44.58466" lon="2.95888">
        <ele>1194.09</ele>
        <time>2012-06-03T12:47:54Z</time>
      </trkpt>
      <trkpt lat="44.58471" lon="2.95877">
        <ele>1193.61</ele>
        <time>2012-06-03T12:48:02Z</time>
      </trkpt>
      <trkpt lat="44.58476" lon="2.95865">
        <ele>1193.13</ele>
        <time>2012-06-03T12:48:10Z</time>
      </trkpt>
      <trkpt lat="44.58481" lon="2.95855">
        <ele>1192.65</ele>
        <time>2012-06-03T12:48:19Z</time>
      </trkpt>
      <trkpt lat="44.58485" lon="2.95843">
        <ele>1191.69</ele>
        <time>2012-06-03T12:48:27Z</time>
      </trkpt>
      <trkpt lat="44.58489" lon="2.95831">
        <ele>1191.69</ele>
        <time>2012-06-03T12:48:36Z</time>
      </trkpt>
      <trkpt lat="44.58492" lon="2.95819">
        <ele>1191.21</ele>
        <time>2012-06-03T12:48:44Z</time>
      </trkpt>
      <trkpt lat="44.58496" lon="2.95804">
        <ele>1190.73</ele>
        <time>2012-06-03T12:48:53Z</time>
      </trkpt>
      <trkpt lat="44.585" lon="2.9579">
        <ele>1188.81</ele>
        <time>2012-06-03T12:49:01Z</time>
      </trkpt>
      <trkpt lat="44.58503" lon="2.95778">
        <ele>1189.29</ele>
        <time>2012-06-03T12:49:08Z</time>
      </trkpt>
      <trkpt lat="44.58507" lon="2.95766">
        <ele>1187.85</ele>
        <time>2012-06-03T12:49:17Z</time>
      </trkpt>
      <trkpt lat="44.58509" lon="2.95754">
        <ele>1187.85</ele>
        <time>2012-06-03T12:49:25Z</time>
      </trkpt>
      <trkpt lat="44.58513" lon="2.95742">
        <ele>1187.85</ele>
        <time>2012-06-03T12:49:33Z</time>
      </trkpt>
      <trkpt lat="44.58515" lon="2.9573">
        <ele>1186.4</ele>
        <time>2012-06-03T12:49:40Z</time>
      </trkpt>
      <trkpt lat="44.58519" lon="2.95717">
        <ele>1186.88</ele>
        <time>2012-06-03T12:49:47Z</time>
      </trkpt>
      <trkpt lat="44.58522" lon="2.95705">
        <ele>1185.44</ele>
        <time>2012-06-03T12:49:55Z</time>
      </trkpt>
      <trkpt lat="44.58527" lon="2.95694">
        <ele>1184.96</ele>
        <time>2012-06-03T12:50:05Z</time>
      </trkpt>
      <trkpt lat="44.58533" lon="2.95682">
        <ele>1183.04</ele>
        <time>2012-06-03T12:50:15Z</time>
      </trkpt>
      <trkpt lat="44.58538" lon="2.95667">
        <ele>1184</ele>
        <time>2012-06-03T12:50:24Z</time>
      </trkpt>
      <trkpt lat="44.58544" lon="2.95654">
        <ele>1182.56</ele>
        <time>2012-06-03T12:50:34Z</time>
      </trkpt>
      <trkpt lat="44.5855" lon="2.95641">
        <ele>1181.6</ele>
        <time>2012-06-03T12:50:43Z</time>
      </trkpt>
      <trkpt lat="44.58556" lon="2.9563">
        <ele>1181.12</ele>
        <time>2012-06-03T12:50:51Z</time>
      </trkpt>
      <trkpt lat="44.58564" lon="2.95622">
        <ele>1180.64</ele>
        <time>2012-06-03T12:50:59Z</time>
      </trkpt>
      <trkpt lat="44.58572" lon="2.95614">
        <ele>1180.64</ele>
        <time>2012-06-03T12:51:06Z</time>
      </trkpt>
      <trkpt lat="44.5858" lon="2.95606">
        <ele>1179.19</ele>
        <time>2012-06-03T12:51:14Z</time>
      </trkpt>
      <trkpt lat="44.58587" lon="2.95596">
        <ele>1179.67</ele>
        <time>2012-06-03T12:51:23Z</time>
      </trkpt>
      <trkpt lat="44.58597" lon="2.95591">
        <ele>1178.23</ele>
        <time>2012-06-03T12:51:32Z</time>
      </trkpt>
      <trkpt lat="44.58605" lon="2.95586">
        <ele>1178.23</ele>
        <time>2012-06-03T12:51:40Z</time>
      </trkpt>
      <trkpt lat="44.58614" lon="2.95581">
        <ele>1177.27</ele>
        <time>2012-06-03T12:51:48Z</time>
      </trkpt>
      <trkpt lat="44.58625" lon="2.95578">
        <ele>1176.31</ele>
        <time>2012-06-03T12:51:57Z</time>
      </trkpt>
      <trkpt lat="44.58636" lon="2.95575">
        <ele>1175.83</ele>
        <time>2012-06-03T12:52:06Z</time>
      </trkpt>
      <trkpt lat="44.58646" lon="2.95576">
        <ele>1174.87</ele>
        <time>2012-06-03T12:52:15Z</time>
      </trkpt>
      <trkpt lat="44.58656" lon="2.95576">
        <ele>1174.39</ele>
        <time>2012-06-03T12:52:24Z</time>
      </trkpt>
      <trkpt lat="44.58665" lon="2.9557">
        <ele>1173.43</ele>
        <time>2012-06-03T12:52:32Z</time>
      </trkpt>
      <trkpt lat="44.58671" lon="2.9556">
        <ele>1171.5</ele>
        <time>2012-06-03T12:52:40Z</time>
      </trkpt>
      <trkpt lat="44.58672" lon="2.95546">
        <ele>1171.02</ele>
        <time>2012-06-03T12:52:48Z</time>
      </trkpt>
      <trkpt lat="44.58667" lon="2.95533">
        <ele>1171.02</ele>
        <time>2012-06-03T12:52:57Z</time>
      </trkpt>
      <trkpt lat="44.58658" lon="2.95526">
        <ele>1170.06</ele>
        <time>2012-06-03T12:53:06Z</time>
      </trkpt>
      <trkpt lat="44.58648" lon="2.95521">
        <ele>1168.62</ele>
        <time>2012-06-03T12:53:15Z</time>
      </trkpt>
      <trkpt lat="44.58639" lon="2.95515">
        <ele>1168.14</ele>
        <time>2012-06-03T12:53:24Z</time>
      </trkpt>
      <trkpt lat="44.58629" lon="2.95513">
        <ele>1167.18</ele>
        <time>2012-06-03T12:53:32Z</time>
      </trkpt>
      <trkpt lat="44.58619" lon="2.9551">
        <ele>1166.7</ele>
        <time>2012-06-03T12:53:41Z</time>
      </trkpt>
      <trkpt lat="44.58609" lon="2.95505">
        <ele>1164.77</ele>
        <time>2012-06-03T12:53:51Z</time>
      </trkpt>
      <trkpt lat="44.58599" lon="2.95501">
        <ele>1163.81</ele>
        <time>2012-06-03T12:54:00Z</time>
      </trkpt>
      <trkpt lat="44.58588" lon="2.95497">
        <ele>1162.37</ele>
        <time>2012-06-03T12:54:09Z</time>
      </trkpt>
      <trkpt lat="44.58579" lon="2.95494">
        <ele>1161.41</ele>
        <time>2012-06-03T12:54:17Z</time>
      </trkpt>
      <trkpt lat="44.58568" lon="2.9549">
        <ele>1160.45</ele>
        <time>2012-06-03T12:54:26Z</time>
      </trkpt>
      <trkpt lat="44.58558" lon="2.95487">
        <ele>1159.49</ele>
        <time>2012-06-03T12:54:36Z</time>
      </trkpt>
      <trkpt lat="44.58548" lon="2.95484">
        <ele>1159.01</ele>
        <time>2012-06-03T12:54:45Z</time>
      </trkpt>
      <trkpt lat="44.58537" lon="2.9548">
        <ele>1157.56</ele>
        <time>2012-06-03T12:54:54Z</time>
      </trkpt>
      <trkpt lat="44.58526" lon="2.95479">
        <ele>1156.12</ele>
        <time>2012-06-03T12:55:04Z</time>
      </trkpt>
      <trkpt lat="44.58515" lon="2.95481">
        <ele>1155.64</ele>
        <time>2012-06-03T12:55:24Z</time>
      </trkpt>
      <trkpt lat="44.58506" lon="2.95479">
        <ele>1154.2</ele>
        <time>2012-06-03T12:55:39Z</time>
      </trkpt>
      <trkpt lat="44.58495" lon="2.95477">
        <ele>1153.24</ele>
        <time>2012-06-03T12:55:50Z</time>
      </trkpt>
      <trkpt lat="44.58485" lon="2.95476">
        <ele>1151.8</ele>
        <time>2012-06-03T12:56:02Z</time>
      </trkpt>
      <trkpt lat="44.58475" lon="2.95468">
        <ele>1150.84</ele>
        <time>2012-06-03T12:56:16Z</time>
      </trkpt>
      <trkpt lat="44.58479" lon="2.95457">
        <ele>1149.87</ele>
        <time>2012-06-03T12:56:27Z</time>
      </trkpt>
      <trkpt lat="44.58484" lon="2.95443">
        <ele>1146.99</ele>
        <time>2012-06-03T12:56:43Z</time>
      </trkpt>
      <trkpt lat="44.58492" lon="2.95433">
        <ele>1143.14</ele>
        <time>2012-06-03T12:57:03Z</time>
      </trkpt>
      <trkpt lat="44.58501" lon="2.95418">
        <ele>1139.3</ele>
        <time>2012-06-03T12:57:25Z</time>
      </trkpt>
      <trkpt lat="44.58504" lon="2.95396">
        <ele>1136.42</ele>
        <time>2012-06-03T12:57:40Z</time>
      </trkpt>
      <trkpt lat="44.58504" lon="2.95377">
        <ele>1134.49</ele>
        <time>2012-06-03T12:57:52Z</time>
      </trkpt>
      <trkpt lat="44.585" lon="2.95361">
        <ele>1131.61</ele>
        <time>2012-06-03T12:58:09Z</time>
      </trkpt>
      <trkpt lat="44.58496" lon="2.95346">
        <ele>1129.69</ele>
        <time>2012-06-03T12:58:22Z</time>
      </trkpt>
      <trkpt lat="44.5849" lon="2.9533">
        <ele>1126.8</ele>
        <time>2012-06-03T12:58:35Z</time>
      </trkpt>
      <trkpt lat="44.5848" lon="2.95313">
        <ele>1123.92</ele>
        <time>2012-06-03T12:58:55Z</time>
      </trkpt>
      <trkpt lat="44.58471" lon="2.95296">
        <ele>1120.55</ele>
        <time>2012-06-03T12:59:30Z</time>
      </trkpt>
      <trkpt lat="44.58466" lon="2.95272">
        <ele>1118.63</ele>
        <time>2012-06-03T12:59:46Z</time>
      </trkpt>
      <trkpt lat="44.58473" lon="2.95261">
        <ele>1118.15</ele>
        <time>2012-06-03T13:00:12Z</time>
      </trkpt>
      <trkpt lat="44.5848" lon="2.95252">
        <ele>1118.15</ele>
        <time>2012-06-03T13:00:31Z</time>
      </trkpt>
      <trkpt lat="44.58486" lon="2.9524">
        <ele>1117.67</ele>
        <time>2012-06-03T13:00:43Z</time>
      </trkpt>
      <trkpt lat="44.58493" lon="2.95226">
        <ele>1116.23</ele>
        <time>2012-06-03T13:00:55Z</time>
      </trkpt>
      <trkpt lat="44.58502" lon="2.95212">
        <ele>1114.31</ele>
        <time>2012-06-03T13:01:10Z</time>
      </trkpt>
      <trkpt lat="44.58514" lon="2.95204">
        <ele>1111.9</ele>
        <time>2012-06-03T13:01:23Z</time>
      </trkpt>
      <trkpt lat="44.58523" lon="2.95191">
        <ele>1110.46</ele>
        <time>2012-06-03T13:01:36Z</time>
      </trkpt>
      <trkpt lat="44.58529" lon="2.95173">
        <ele>1110.46</ele>
        <time>2012-06-03T13:01:47Z</time>
      </trkpt>
      <trkpt lat="44.58529" lon="2.95156">
        <ele>1108.54</ele>
        <time>2012-06-03T13:02:06Z</time>
      </trkpt>
      <trkpt lat="44.58524" lon="2.95141">
        <ele>1108.06</ele>
        <time>2012-06-03T13:02:25Z</time>
      </trkpt>
      <trkpt lat="44.5852" lon="2.95123">
        <ele>1107.1</ele>
        <time>2012-06-03T13:02:34Z</time>
      </trkpt>
      <trkpt lat="44.58516" lon="2.95111">
        <ele>1105.17</ele>
        <time>2012-06-03T13:02:48Z</time>
      </trkpt>
      <trkpt lat="44.58509" lon="2.95098">
        <ele>1104.21</ele>
        <time>2012-06-03T13:02:58Z</time>
      </trkpt>
      <trkpt lat="44.58501" lon="2.95083">
        <ele>1103.25</ele>
        <time>2012-06-03T13:03:13Z</time>
      </trkpt>
      <trkpt lat="44.5851" lon="2.95076">
        <ele>1102.29</ele>
        <time>2012-06-03T13:03:29Z</time>
      </trkpt>
      <trkpt lat="44.58519" lon="2.95067">
        <ele>1102.29</ele>
        <time>2012-06-03T13:03:38Z</time>
      </trkpt>
      <trkpt lat="44.58528" lon="2.95057">
        <ele>1102.77</ele>
        <time>2012-06-03T13:03:47Z</time>
      </trkpt>
      <trkpt lat="44.58537" lon="2.95049">
        <ele>1102.29</ele>
        <time>2012-06-03T13:03:57Z</time>
      </trkpt>
      <trkpt lat="44.58543" lon="2.95035">
        <ele>1101.33</ele>
        <time>2012-06-03T13:04:07Z</time>
      </trkpt>
      <trkpt lat="44.5855" lon="2.95022">
        <ele>1100.37</ele>
        <time>2012-06-03T13:04:19Z</time>
      </trkpt>
      <trkpt lat="44.5856" lon="2.95004">
        <ele>1097.48</ele>
        <time>2012-06-03T13:04:36Z</time>
      </trkpt>
      <trkpt lat="44.58578" lon="2.94984">
        <ele>1094.6</ele>
        <time>2012-06-03T13:05:00Z</time>
      </trkpt>
      <trkpt lat="44.58594" lon="2.94975">
        <ele>1091.71</ele>
        <time>2012-06-03T13:05:27Z</time>
      </trkpt>
      <trkpt lat="44.58616" lon="2.9496">
        <ele>1090.75</ele>
        <time>2012-06-03T13:05:46Z</time>
      </trkpt>
      <trkpt lat="44.58637" lon="2.9495">
        <ele>1090.75</ele>
        <time>2012-06-03T13:06:11Z</time>
      </trkpt>
      <trkpt lat="44.58656" lon="2.94943">
        <ele>1091.23</ele>
        <time>2012-06-03T13:06:28Z</time>
      </trkpt>
      <trkpt lat="44.58667" lon="2.94934">
        <ele>1090.27</ele>
        <time>2012-06-03T13:06:38Z</time>
      </trkpt>
      <trkpt lat="44.58672" lon="2.94914">
        <ele>1086.91</ele>
        <time>2012-06-03T13:07:11Z</time>
      </trkpt>
      <trkpt lat="44.58694" lon="2.94896">
        <ele>1084.02</ele>
        <time>2012-06-03T13:07:40Z</time>
      </trkpt>
      <trkpt lat="44.58714" lon="2.9487">
        <ele>1082.1</ele>
        <time>2012-06-03T13:08:02Z</time>
      </trkpt>
      <trkpt lat="44.58732" lon="2.94866">
        <ele>1081.14</ele>
        <time>2012-06-03T13:08:20Z</time>
      </trkpt>
      <trkpt lat="44.5875" lon="2.94866">
        <ele>1079.7</ele>
        <time>2012-06-03T13:08:42Z</time>
      </trkpt>
      <trkpt lat="44.58766" lon="2.94871">
        <ele>1077.78</ele>
        <time>2012-06-03T13:09:01Z</time>
      </trkpt>
      <trkpt lat="44.58786" lon="2.94869">
        <ele>1076.33</ele>
        <time>2012-06-03T13:09:22Z</time>
      </trkpt>
      <trkpt lat="44.58797" lon="2.94858">
        <ele>1076.33</ele>
        <time>2012-06-03T13:09:35Z</time>
      </trkpt>
      <trkpt lat="44.58806" lon="2.9485">
        <ele>1075.85</ele>
        <time>2012-06-03T13:09:45Z</time>
      </trkpt>
      <trkpt lat="44.58813" lon="2.94839">
        <ele>1076.33</ele>
        <time>2012-06-03T13:09:54Z</time>
      </trkpt>
      <trkpt lat="44.5882" lon="2.94828">
        <ele>1075.85</ele>
        <time>2012-06-03T13:10:04Z</time>
      </trkpt>
      <trkpt lat="44.58821" lon="2.94815">
        <ele>1074.89</ele>
        <time>2012-06-03T13:10:15Z</time>
      </trkpt>
      <trkpt lat="44.58817" lon="2.94802">
        <ele>1073.93</ele>
        <time>2012-06-03T13:10:25Z</time>
      </trkpt>
      <trkpt lat="44.58811" lon="2.94787">
        <ele>1072.01</ele>
        <time>2012-06-03T13:10:40Z</time>
      </trkpt>
      <trkpt lat="44.58809" lon="2.94769">
        <ele>1069.6</ele>
        <time>2012-06-03T13:10:57Z</time>
      </trkpt>
      <trkpt lat="44.58804" lon="2.94749">
        <ele>1067.2</ele>
        <time>2012-06-03T13:11:10Z</time>
      </trkpt>
      <trkpt lat="44.5881" lon="2.9474">
        <ele>1065.28</ele>
        <time>2012-06-03T13:11:24Z</time>
      </trkpt>
      <trkpt lat="44.58818" lon="2.94729">
        <ele>1060.47</ele>
        <time>2012-06-03T13:12:29Z</time>
      </trkpt>
      <trkpt lat="44.58831" lon="2.94719">
        <ele>1055.67</ele>
        <time>2012-06-03T13:13:01Z</time>
      </trkpt>
      <trkpt lat="44.58844" lon="2.94705">
        <ele>1051.34</ele>
        <time>2012-06-03T13:13:26Z</time>
      </trkpt>
      <trkpt lat="44.58857" lon="2.94714">
        <ele>1049.42</ele>
        <time>2012-06-03T13:13:48Z</time>
      </trkpt>
      <trkpt lat="44.58865" lon="2.94726">
        <ele>1046.05</ele>
        <time>2012-06-03T13:14:16Z</time>
      </trkpt>
      <trkpt lat="44.5888" lon="2.94743">
        <ele>1042.69</ele>
        <time>2012-06-03T13:14:36Z</time>
      </trkpt>
      <trkpt lat="44.58913" lon="2.94751">
        <ele>1039.32</ele>
        <time>2012-06-03T13:15:02Z</time>
      </trkpt>
      <trkpt lat="44.58935" lon="2.94749">
        <ele>1035.96</ele>
        <time>2012-06-03T13:15:30Z</time>
      </trkpt>
      <trkpt lat="44.58953" lon="2.94749">
        <ele>1030.67</ele>
        <time>2012-06-03T13:16:06Z</time>
      </trkpt>
      <trkpt lat="44.5898" lon="2.94743">
        <ele>1027.31</ele>
        <time>2012-06-03T13:16:31Z</time>
      </trkpt>
      <trkpt lat="44.58999" lon="2.94724">
        <ele>1022.98</ele>
        <time>2012-06-03T13:17:20Z</time>
      </trkpt>
      <trkpt lat="44.5901" lon="2.94706">
        <ele>1020.58</ele>
        <time>2012-06-03T13:17:37Z</time>
      </trkpt>
      <trkpt lat="44.5902" lon="2.94687">
        <ele>1018.17</ele>
        <time>2012-06-03T13:17:52Z</time>
      </trkpt>
      <trkpt lat="44.59016" lon="2.94673">
        <ele>1016.73</ele>
        <time>2012-06-03T13:18:09Z</time>
      </trkpt>
      <trkpt lat="44.59004" lon="2.94667">
        <ele>1015.77</ele>
        <time>2012-06-03T13:18:22Z</time>
      </trkpt>
      <trkpt lat="44.58996" lon="2.94652">
        <ele>1013.37</ele>
        <time>2012-06-03T13:18:36Z</time>
      </trkpt>
      <trkpt lat="44.58986" lon="2.94635">
        <ele>1011.93</ele>
        <time>2012-06-03T13:18:51Z</time>
      </trkpt>
      <trkpt lat="44.58976" lon="2.94627">
        <ele>1011.44</ele>
        <time>2012-06-03T13:19:39Z</time>
      </trkpt>
      <trkpt lat="44.58969" lon="2.94618">
        <ele>1011.44</ele>
        <time>2012-06-03T13:19:56Z</time>
      </trkpt>
      <trkpt lat="44.58961" lon="2.94602">
        <ele>1010.96</ele>
        <time>2012-06-03T13:20:08Z</time>
      </trkpt>
      <trkpt lat="44.58954" lon="2.94585">
        <ele>1011.44</ele>
        <time>2012-06-03T13:20:19Z</time>
      </trkpt>
      <trkpt lat="44.58951" lon="2.9457">
        <ele>1011.44</ele>
        <time>2012-06-03T13:20:31Z</time>
      </trkpt>
      <trkpt lat="44.58947" lon="2.94557">
        <ele>1011.93</ele>
        <time>2012-06-03T13:20:39Z</time>
      </trkpt>
      <trkpt lat="44.58944" lon="2.94542">
        <ele>1010.96</ele>
        <time>2012-06-03T13:20:51Z</time>
      </trkpt>
      <trkpt lat="44.58937" lon="2.94515">
        <ele>1010.96</ele>
        <time>2012-06-03T13:21:06Z</time>
      </trkpt>
      <trkpt lat="44.58934" lon="2.945">
        <ele>1010.48</ele>
        <time>2012-06-03T13:21:15Z</time>
      </trkpt>
      <trkpt lat="44.58932" lon="2.94479">
        <ele>1010.96</ele>
        <time>2012-06-03T13:21:34Z</time>
      </trkpt>
      <trkpt lat="44.58927" lon="2.94456">
        <ele>1010.48</ele>
        <time>2012-06-03T13:22:06Z</time>
      </trkpt>
      <trkpt lat="44.58918" lon="2.9444">
        <ele>1010.48</ele>
        <time>2012-06-03T13:22:24Z</time>
      </trkpt>
      <trkpt lat="44.58908" lon="2.94426">
        <ele>1009.04</ele>
        <time>2012-06-03T13:22:39Z</time>
      </trkpt>
      <trkpt lat="44.58902" lon="2.94397">
        <ele>1009.52</ele>
        <time>2012-06-03T13:23:14Z</time>
      </trkpt>
      <trkpt lat="44.58906" lon="2.94379">
        <ele>1009.52</ele>
        <time>2012-06-03T13:23:31Z</time>
      </trkpt>
      <trkpt lat="44.5891" lon="2.94359">
        <ele>1005.2</ele>
        <time>2012-06-03T13:24:02Z</time>
      </trkpt>
      <trkpt lat="44.58909" lon="2.94336">
        <ele>1002.79</ele>
        <time>2012-06-03T13:24:19Z</time>
      </trkpt>
      <trkpt lat="44.58915" lon="2.94297">
        <ele>1000.39</ele>
        <time>2012-06-03T13:24:36Z</time>
      </trkpt>
      <trkpt lat="44.58921" lon="2.94275">
        <ele>997.99</ele>
        <time>2012-06-03T13:24:53Z</time>
      </trkpt>
      <trkpt lat="44.58925" lon="2.94258">
        <ele>995.1</ele>
        <time>2012-06-03T13:25:17Z</time>
      </trkpt>
      <trkpt lat="44.58928" lon="2.94246">
        <ele>992.22</ele>
        <time>2012-06-03T13:25:40Z</time>
      </trkpt>
      <trkpt lat="44.58937" lon="2.94211">
        <ele>988.85</ele>
        <time>2012-06-03T13:26:05Z</time>
      </trkpt>
      <trkpt lat="44.58952" lon="2.94189">
        <ele>984.53</ele>
        <time>2012-06-03T13:26:35Z</time>
      </trkpt>
      <trkpt lat="44.58962" lon="2.94167">
        <ele>980.2</ele>
        <time>2012-06-03T13:27:07Z</time>
      </trkpt>
      <trkpt lat="44.58971" lon="2.94147">
        <ele>975.88</ele>
        <time>2012-06-03T13:27:35Z</time>
      </trkpt>
      <trkpt lat="44.58981" lon="2.9411">
        <ele>969.63</ele>
        <time>2012-06-03T13:28:14Z</time>
      </trkpt>
      <trkpt lat="44.5899" lon="2.94088">
        <ele>966.26</ele>
        <time>2012-06-03T13:28:51Z</time>
      </trkpt>
      <trkpt lat="44.58999" lon="2.94066">
        <ele>963.86</ele>
        <time>2012-06-03T13:29:40Z</time>
      </trkpt>
      <trkpt lat="44.59008" lon="2.94048">
        <ele>958.57</ele>
        <time>2012-06-03T13:30:11Z</time>
      </trkpt>
      <trkpt lat="44.5902" lon="2.94008">
        <ele>953.77</ele>
        <time>2012-06-03T13:30:39Z</time>
      </trkpt>
      <trkpt lat="44.59024" lon="2.93981">
        <ele>951.84</ele>
        <time>2012-06-03T13:31:00Z</time>
      </trkpt>
      <trkpt lat="44.59024" lon="2.93953">
        <ele>948.48</ele>
        <time>2012-06-03T13:31:25Z</time>
      </trkpt>
      <trkpt lat="44.59027" lon="2.9391">
        <ele>943.67</ele>
        <time>2012-06-03T13:31:59Z</time>
      </trkpt>
      <trkpt lat="44.59033" lon="2.93881">
        <ele>940.31</ele>
        <time>2012-06-03T13:32:25Z</time>
      </trkpt>
      <trkpt lat="44.59032" lon="2.93863">
        <ele>937.42</ele>
        <time>2012-06-03T13:32:41Z</time>
      </trkpt>
      <trkpt lat="44.59036" lon="2.9384">
        <ele>934.06</ele>
        <time>2012-06-03T13:32:59Z</time>
      </trkpt>
      <trkpt lat="44.59037" lon="2.93819">
        <ele>931.17</ele>
        <time>2012-06-03T13:33:21Z</time>
      </trkpt>
      <trkpt lat="44.59041" lon="2.93797">
        <ele>928.77</ele>
        <time>2012-06-03T13:33:42Z</time>
      </trkpt>
      <trkpt lat="44.59046" lon="2.93778">
        <ele>925.89</ele>
        <time>2012-06-03T13:34:00Z</time>
      </trkpt>
      <trkpt lat="44.59044" lon="2.93758">
        <ele>922.52</ele>
        <time>2012-06-03T13:34:27Z</time>
      </trkpt>
      <trkpt lat="44.59038" lon="2.93736">
        <ele>917.24</ele>
        <time>2012-06-03T13:34:58Z</time>
      </trkpt>
      <trkpt lat="44.5904" lon="2.937">
        <ele>911.95</ele>
        <time>2012-06-03T13:35:30Z</time>
      </trkpt>
      <trkpt lat="44.59036" lon="2.93665">
        <ele>907.62</ele>
        <time>2012-06-03T13:35:58Z</time>
      </trkpt>
      <trkpt lat="44.59035" lon="2.9363">
        <ele>905.22</ele>
        <time>2012-06-03T13:36:19Z</time>
      </trkpt>
      <trkpt lat="44.59035" lon="2.93601">
        <ele>903.3</ele>
        <time>2012-06-03T13:36:38Z</time>
      </trkpt>
      <trkpt lat="44.59035" lon="2.93582">
        <ele>899.45</ele>
        <time>2012-06-03T13:37:41Z</time>
      </trkpt>
      <trkpt lat="44.59032" lon="2.93554">
        <ele>896.09</ele>
        <time>2012-06-03T13:38:10Z</time>
      </trkpt>
      <trkpt lat="44.5903" lon="2.93525">
        <ele>892.24</ele>
        <time>2012-06-03T13:38:32Z</time>
      </trkpt>
      <trkpt lat="44.59013" lon="2.93508">
        <ele>888.4</ele>
        <time>2012-06-03T13:38:58Z</time>
      </trkpt>
      <trkpt lat="44.59012" lon="2.93491">
        <ele>885.51</ele>
        <time>2012-06-03T13:39:25Z</time>
      </trkpt>
      <trkpt lat="44.59018" lon="2.93452">
        <ele>880.71</ele>
        <time>2012-06-03T13:40:09Z</time>
      </trkpt>
      <trkpt lat="44.59021" lon="2.93418">
        <ele>874.94</ele>
        <time>2012-06-03T13:40:47Z</time>
      </trkpt>
      <trkpt lat="44.59023" lon="2.93365">
        <ele>872.05</ele>
        <time>2012-06-03T13:41:15Z</time>
      </trkpt>
      <trkpt lat="44.59021" lon="2.93326">
        <ele>870.13</ele>
        <time>2012-06-03T13:41:40Z</time>
      </trkpt>
      <trkpt lat="44.59022" lon="2.93297">
        <ele>867.73</ele>
        <time>2012-06-03T13:41:57Z</time>
      </trkpt>
      <trkpt lat="44.59013" lon="2.93262">
        <ele>865.32</ele>
        <time>2012-06-03T13:42:34Z</time>
      </trkpt>
      <trkpt lat="44.59005" lon="2.9323">
        <ele>862.44</ele>
        <time>2012-06-03T13:42:56Z</time>
      </trkpt>
      <trkpt lat="44.58989" lon="2.932">
        <ele>859.08</ele>
        <time>2012-06-03T13:43:27Z</time>
      </trkpt>
      <trkpt lat="44.58983" lon="2.93176">
        <ele>857.63</ele>
        <time>2012-06-03T13:43:51Z</time>
      </trkpt>
      <trkpt lat="44.58986" lon="2.93141">
        <ele>856.67</ele>
        <time>2012-06-03T13:44:21Z</time>
      </trkpt>
      <trkpt lat="44.58983" lon="2.93113">
        <ele>857.15</ele>
        <time>2012-06-03T13:44:39Z</time>
      </trkpt>
      <trkpt lat="44.5898" lon="2.93081">
        <ele>856.67</ele>
        <time>2012-06-03T13:45:10Z</time>
      </trkpt>
      <trkpt lat="44.58974" lon="2.93032">
        <ele>857.15</ele>
        <time>2012-06-03T13:45:42Z</time>
      </trkpt>
      <trkpt lat="44.5898" lon="2.92996">
        <ele>859.08</ele>
        <time>2012-06-03T13:46:10Z</time>
      </trkpt>
      <trkpt lat="44.5899" lon="2.92961">
        <ele>861</ele>
        <time>2012-06-03T13:46:43Z</time>
      </trkpt>
      <trkpt lat="44.58992" lon="2.92938">
        <ele>859.08</ele>
        <time>2012-06-03T13:47:01Z</time>
      </trkpt>
      <trkpt lat="44.5899" lon="2.92918">
        <ele>858.11</ele>
        <time>2012-06-03T13:47:13Z</time>
      </trkpt>
      <trkpt lat="44.58989" lon="2.92886">
        <ele>856.19</ele>
        <time>2012-06-03T13:47:28Z</time>
      </trkpt>
      <trkpt lat="44.58984" lon="2.92863">
        <ele>855.23</ele>
        <time>2012-06-03T13:47:49Z</time>
      </trkpt>
      <trkpt lat="44.58969" lon="2.92848">
        <ele>855.23</ele>
        <time>2012-06-03T13:48:08Z</time>
      </trkpt>
      <trkpt lat="44.58958" lon="2.92824">
        <ele>855.71</ele>
        <time>2012-06-03T13:48:30Z</time>
      </trkpt>
      <trkpt lat="44.58958" lon="2.9279">
        <ele>854.75</ele>
        <time>2012-06-03T13:48:56Z</time>
      </trkpt>
      <trkpt lat="44.58956" lon="2.92753">
        <ele>853.31</ele>
        <time>2012-06-03T13:49:26Z</time>
      </trkpt>
      <trkpt lat="44.58956" lon="2.92708">
        <ele>852.35</ele>
        <time>2012-06-03T13:49:54Z</time>
      </trkpt>
      <trkpt lat="44.58951" lon="2.92667">
        <ele>846.58</ele>
        <time>2012-06-03T13:50:37Z</time>
      </trkpt>
      <trkpt lat="44.58943" lon="2.92614">
        <ele>845.62</ele>
        <time>2012-06-03T13:51:02Z</time>
      </trkpt>
      <trkpt lat="44.58937" lon="2.92588">
        <ele>842.73</ele>
        <time>2012-06-03T13:51:22Z</time>
      </trkpt>
      <trkpt lat="44.58934" lon="2.92569">
        <ele>838.41</ele>
        <time>2012-06-03T13:51:57Z</time>
      </trkpt>
      <trkpt lat="44.58927" lon="2.92526">
        <ele>835.04</ele>
        <time>2012-06-03T13:52:29Z</time>
      </trkpt>
      <trkpt lat="44.58922" lon="2.92489">
        <ele>833.6</ele>
        <time>2012-06-03T13:52:47Z</time>
      </trkpt>
      <trkpt lat="44.58917" lon="2.92448">
        <ele>831.2</ele>
        <time>2012-06-03T13:53:08Z</time>
      </trkpt>
      <trkpt lat="44.58907" lon="2.92427">
        <ele>827.35</ele>
        <time>2012-06-03T13:53:36Z</time>
      </trkpt>
      <trkpt lat="44.58909" lon="2.92414">
        <ele>826.39</ele>
        <time>2012-06-03T13:54:01Z</time>
      </trkpt>
      <trkpt lat="44.58909" lon="2.92418">
        <ele>826.87</ele>
        <time>2012-06-03T13:54:32Z</time>
      </trkpt>
      <trkpt lat="44.58916" lon="2.92446">
        <ele>825.43</ele>
        <time>2012-06-03T13:54:50Z</time>
      </trkpt>
      <trkpt lat="44.58919" lon="2.92465">
        <ele>824.95</ele>
        <time>2012-06-03T13:55:04Z</time>
      </trkpt>
      <trkpt lat="44.58918" lon="2.92481">
        <ele>823.99</ele>
        <time>2012-06-03T13:55:16Z</time>
      </trkpt>
      <trkpt lat="44.58922" lon="2.92494">
        <ele>822.55</ele>
        <time>2012-06-03T13:55:31Z</time>
      </trkpt>
      <trkpt lat="44.58923" lon="2.92512">
        <ele>821.1</ele>
        <time>2012-06-03T13:55:44Z</time>
      </trkpt>
      <trkpt lat="44.5892" lon="2.92525">
        <ele>820.62</ele>
        <time>2012-06-03T13:55:52Z</time>
      </trkpt>
      <trkpt lat="44.58923" lon="2.92545">
        <ele>819.18</ele>
        <time>2012-06-03T13:56:08Z</time>
      </trkpt>
      <trkpt lat="44.58923" lon="2.92563">
        <ele>818.22</ele>
        <time>2012-06-03T13:56:19Z</time>
      </trkpt>
      <trkpt lat="44.58935" lon="2.92579">
        <ele>817.26</ele>
        <time>2012-06-03T13:56:30Z</time>
      </trkpt>
      <trkpt lat="44.58944" lon="2.92592">
        <ele>815.82</ele>
        <time>2012-06-03T13:56:41Z</time>
      </trkpt>
      <trkpt lat="44.58957" lon="2.92603">
        <ele>814.85</ele>
        <time>2012-06-03T13:56:54Z</time>
      </trkpt>
      <trkpt lat="44.58964" lon="2.92615">
        <ele>813.89</ele>
        <time>2012-06-03T13:57:06Z</time>
      </trkpt>
      <trkpt lat="44.5897" lon="2.92628">
        <ele>812.45</ele>
        <time>2012-06-03T13:57:17Z</time>
      </trkpt>
      <trkpt lat="44.58976" lon="2.92644">
        <ele>811.49</ele>
        <time>2012-06-03T13:57:28Z</time>
      </trkpt>
      <trkpt lat="44.58979" lon="2.92659">
        <ele>810.53</ele>
        <time>2012-06-03T13:57:39Z</time>
      </trkpt>
      <trkpt lat="44.58993" lon="2.92672">
        <ele>809.57</ele>
        <time>2012-06-03T13:57:49Z</time>
      </trkpt>
      <trkpt lat="44.58999" lon="2.92683">
        <ele>808.61</ele>
        <time>2012-06-03T13:57:58Z</time>
      </trkpt>
      <trkpt lat="44.59008" lon="2.92693">
        <ele>808.13</ele>
        <time>2012-06-03T13:58:08Z</time>
      </trkpt>
      <trkpt lat="44.59019" lon="2.92703">
        <ele>807.16</ele>
        <time>2012-06-03T13:58:18Z</time>
      </trkpt>
      <trkpt lat="44.59037" lon="2.92712">
        <ele>806.2</ele>
        <time>2012-06-03T13:58:30Z</time>
      </trkpt>
      <trkpt lat="44.59051" lon="2.92717">
        <ele>805.24</ele>
        <time>2012-06-03T13:58:39Z</time>
      </trkpt>
      <trkpt lat="44.59069" lon="2.92719">
        <ele>804.76</ele>
        <time>2012-06-03T13:58:47Z</time>
      </trkpt>
      <trkpt lat="44.59081" lon="2.92723">
        <ele>804.28</ele>
        <time>2012-06-03T13:58:57Z</time>
      </trkpt>
      <trkpt lat="44.59091" lon="2.92725">
        <ele>803.8</ele>
        <time>2012-06-03T13:59:11Z</time>
      </trkpt>
      <trkpt lat="44.59106" lon="2.92723">
        <ele>803.8</ele>
        <time>2012-06-03T13:59:22Z</time>
      </trkpt>
      <trkpt lat="44.59119" lon="2.9272">
        <ele>803.32</ele>
        <time>2012-06-03T13:59:33Z</time>
      </trkpt>
      <trkpt lat="44.59132" lon="2.92715">
        <ele>802.84</ele>
        <time>2012-06-03T13:59:42Z</time>
      </trkpt>
      <trkpt lat="44.59144" lon="2.92706">
        <ele>802.84</ele>
        <time>2012-06-03T13:59:52Z</time>
      </trkpt>
      <trkpt lat="44.59154" lon="2.92698">
        <ele>803.32</ele>
        <time>2012-06-03T14:00:01Z</time>
      </trkpt>
      <trkpt lat="44.59161" lon="2.92687">
        <ele>802.84</ele>
        <time>2012-06-03T14:00:11Z</time>
      </trkpt>
      <trkpt lat="44.59166" lon="2.92672">
        <ele>802.36</ele>
        <time>2012-06-03T14:00:21Z</time>
      </trkpt>
      <trkpt lat="44.59174" lon="2.92664">
        <ele>803.8</ele>
        <time>2012-06-03T14:00:36Z</time>
      </trkpt>
      <trkpt lat="44.59179" lon="2.9265">
        <ele>803.32</ele>
        <time>2012-06-03T14:00:46Z</time>
      </trkpt>
      <trkpt lat="44.59177" lon="2.92636">
        <ele>803.8</ele>
        <time>2012-06-03T14:01:13Z</time>
      </trkpt>
      <trkpt lat="44.59174" lon="2.92622">
        <ele>803.32</ele>
        <time>2012-06-03T14:01:22Z</time>
      </trkpt>
      <trkpt lat="44.5917" lon="2.92608">
        <ele>804.28</ele>
        <time>2012-06-03T14:01:31Z</time>
      </trkpt>
      <trkpt lat="44.59161" lon="2.92592">
        <ele>804.76</ele>
        <time>2012-06-03T14:01:42Z</time>
      </trkpt>
      <trkpt lat="44.59155" lon="2.92576">
        <ele>803.8</ele>
        <time>2012-06-03T14:01:54Z</time>
      </trkpt>
      <trkpt lat="44.59154" lon="2.92557">
        <ele>804.28</ele>
        <time>2012-06-03T14:02:04Z</time>
      </trkpt>
      <trkpt lat="44.59154" lon="2.9254">
        <ele>805.24</ele>
        <time>2012-06-03T14:02:13Z</time>
      </trkpt>
      <trkpt lat="44.59157" lon="2.92523">
        <ele>805.24</ele>
        <time>2012-06-03T14:02:24Z</time>
      </trkpt>
      <trkpt lat="44.5916" lon="2.92508">
        <ele>805.72</ele>
        <time>2012-06-03T14:02:35Z</time>
      </trkpt>
      <trkpt lat="44.59164" lon="2.92489">
        <ele>806.68</ele>
        <time>2012-06-03T14:02:47Z</time>
      </trkpt>
      <trkpt lat="44.59168" lon="2.92476">
        <ele>807.64</ele>
        <time>2012-06-03T14:02:57Z</time>
      </trkpt>
      <trkpt lat="44.59167" lon="2.92458">
        <ele>808.13</ele>
        <time>2012-06-03T14:03:07Z</time>
      </trkpt>
      <trkpt lat="44.59163" lon="2.92443">
        <ele>808.61</ele>
        <time>2012-06-03T14:03:16Z</time>
      </trkpt>
      <trkpt lat="44.59156" lon="2.92428">
        <ele>809.09</ele>
        <time>2012-06-03T14:03:25Z</time>
      </trkpt>
      <trkpt lat="44.5915" lon="2.92415">
        <ele>810.05</ele>
        <time>2012-06-03T14:03:35Z</time>
      </trkpt>
      <trkpt lat="44.59144" lon="2.92399">
        <ele>810.53</ele>
        <time>2012-06-03T14:03:47Z</time>
      </trkpt>
      <trkpt lat="44.59153" lon="2.92399">
        <ele>812.45</ele>
        <time>2012-06-03T14:04:03Z</time>
      </trkpt>
      <trkpt lat="44.59165" lon="2.92407">
        <ele>814.37</ele>
        <time>2012-06-03T14:04:18Z</time>
      </trkpt>
      <trkpt lat="44.59175" lon="2.92417">
        <ele>815.34</ele>
        <time>2012-06-03T14:04:31Z</time>
      </trkpt>
      <trkpt lat="44.59184" lon="2.92426">
        <ele>815.34</ele>
        <time>2012-06-03T14:04:41Z</time>
      </trkpt>
      <trkpt lat="44.59193" lon="2.92434">
        <ele>816.3</ele>
        <time>2012-06-03T14:04:50Z</time>
      </trkpt>
      <trkpt lat="44.59203" lon="2.92439">
        <ele>817.26</ele>
        <time>2012-06-03T14:05:00Z</time>
      </trkpt>
      <trkpt lat="44.59212" lon="2.9245">
        <ele>818.7</ele>
        <time>2012-06-03T14:05:10Z</time>
      </trkpt>
      <trkpt lat="44.59221" lon="2.92462">
        <ele>819.18</ele>
        <time>2012-06-03T14:05:22Z</time>
      </trkpt>
      <trkpt lat="44.59231" lon="2.92477">
        <ele>820.62</ele>
        <time>2012-06-03T14:05:34Z</time>
      </trkpt>
      <trkpt lat="44.59238" lon="2.92491">
        <ele>821.58</ele>
        <time>2012-06-03T14:05:44Z</time>
      </trkpt>
      <trkpt lat="44.59248" lon="2.92509">
        <ele>823.99</ele>
        <time>2012-06-03T14:06:00Z</time>
      </trkpt>
      <trkpt lat="44.59253" lon="2.92528">
        <ele>825.43</ele>
        <time>2012-06-03T14:06:16Z</time>
      </trkpt>
      <trkpt lat="44.59251" lon="2.92549">
        <ele>825.91</ele>
        <time>2012-06-03T14:06:32Z</time>
      </trkpt>
      <trkpt lat="44.59251" lon="2.92557">
        <ele>826.87</ele>
        <time>2012-06-03T14:06:48Z</time>
      </trkpt>
      <trkpt lat="44.59259" lon="2.92577">
        <ele>827.83</ele>
        <time>2012-06-03T14:07:03Z</time>
      </trkpt>
      <trkpt lat="44.59264" lon="2.92592">
        <ele>828.79</ele>
        <time>2012-06-03T14:07:13Z</time>
      </trkpt>
      <trkpt lat="44.59265" lon="2.9261">
        <ele>829.76</ele>
        <time>2012-06-03T14:07:22Z</time>
      </trkpt>
      <trkpt lat="44.59269" lon="2.92625">
        <ele>830.72</ele>
        <time>2012-06-03T14:07:31Z</time>
      </trkpt>
      <trkpt lat="44.59271" lon="2.92638">
        <ele>831.68</ele>
        <time>2012-06-03T14:07:52Z</time>
      </trkpt>
      <trkpt lat="44.59272" lon="2.9265">
        <ele>832.16</ele>
        <time>2012-06-03T14:08:03Z</time>
      </trkpt>
      <trkpt lat="44.59274" lon="2.92665">
        <ele>833.6</ele>
        <time>2012-06-03T14:08:13Z</time>
      </trkpt>
      <trkpt lat="44.59278" lon="2.92679">
        <ele>834.08</ele>
        <time>2012-06-03T14:08:20Z</time>
      </trkpt>
      <trkpt lat="44.59282" lon="2.92696">
        <ele>835.52</ele>
        <time>2012-06-03T14:08:32Z</time>
      </trkpt>
      <trkpt lat="44.59286" lon="2.92716">
        <ele>836.48</ele>
        <time>2012-06-03T14:08:44Z</time>
      </trkpt>
      <trkpt lat="44.59291" lon="2.92731">
        <ele>837.93</ele>
        <time>2012-06-03T14:08:55Z</time>
      </trkpt>
      <trkpt lat="44.59296" lon="2.92747">
        <ele>838.89</ele>
        <time>2012-06-03T14:09:09Z</time>
      </trkpt>
      <trkpt lat="44.59297" lon="2.92757">
        <ele>839.85</ele>
        <time>2012-06-03T14:09:23Z</time>
      </trkpt>
      <trkpt lat="44.59303" lon="2.92773">
        <ele>841.29</ele>
        <time>2012-06-03T14:09:35Z</time>
      </trkpt>
      <trkpt lat="44.59311" lon="2.9279">
        <ele>842.73</ele>
        <time>2012-06-03T14:09:52Z</time>
      </trkpt>
      <trkpt lat="44.59323" lon="2.92811">
        <ele>844.18</ele>
        <time>2012-06-03T14:10:08Z</time>
      </trkpt>
      <trkpt lat="44.59319" lon="2.92808">
        <ele>843.21</ele>
        <time>2012-06-03T14:10:36Z</time>
      </trkpt>
      <trkpt lat="44.59308" lon="2.92805">
        <ele>839.85</ele>
        <time>2012-06-03T14:11:07Z</time>
      </trkpt>
      <trkpt lat="44.59301" lon="2.92812">
        <ele>836.96</ele>
        <time>2012-06-03T14:11:26Z</time>
      </trkpt>
      <trkpt lat="44.59294" lon="2.92811">
        <ele>833.6</ele>
        <time>2012-06-03T14:11:54Z</time>
      </trkpt>
      <trkpt lat="44.59283" lon="2.92821">
        <ele>832.16</ele>
        <time>2012-06-03T14:12:09Z</time>
      </trkpt>
      <trkpt lat="44.59271" lon="2.928">
        <ele>829.27</ele>
        <time>2012-06-03T14:12:52Z</time>
      </trkpt>
      <trkpt lat="44.59262" lon="2.92787">
        <ele>826.87</ele>
        <time>2012-06-03T14:13:06Z</time>
      </trkpt>
      <trkpt lat="44.59254" lon="2.9278">
        <ele>824.95</ele>
        <time>2012-06-03T14:13:20Z</time>
      </trkpt>
      <trkpt lat="44.59247" lon="2.92773">
        <ele>823.03</ele>
        <time>2012-06-03T14:13:33Z</time>
      </trkpt>
      <trkpt lat="44.59239" lon="2.92753">
        <ele>818.22</ele>
        <time>2012-06-03T14:14:08Z</time>
      </trkpt>
      <trkpt lat="44.59227" lon="2.9273">
        <ele>814.85</ele>
        <time>2012-06-03T14:14:30Z</time>
      </trkpt>
      <trkpt lat="44.59214" lon="2.92706">
        <ele>811.97</ele>
        <time>2012-06-03T14:14:51Z</time>
      </trkpt>
      <trkpt lat="44.59202" lon="2.92694">
        <ele>810.05</ele>
        <time>2012-06-03T14:15:04Z</time>
      </trkpt>
      <trkpt lat="44.59192" lon="2.92681">
        <ele>807.16</ele>
        <time>2012-06-03T14:15:18Z</time>
      </trkpt>
      <trkpt lat="44.59185" lon="2.92667">
        <ele>804.76</ele>
        <time>2012-06-03T14:15:28Z</time>
      </trkpt>
      <trkpt lat="44.5918" lon="2.92654">
        <ele>804.28</ele>
        <time>2012-06-03T14:15:36Z</time>
      </trkpt>
      <trkpt lat="44.59176" lon="2.9264">
        <ele>804.76</ele>
        <time>2012-06-03T14:15:47Z</time>
      </trkpt>
      <trkpt lat="44.59173" lon="2.92626">
        <ele>804.76</ele>
        <time>2012-06-03T14:15:56Z</time>
      </trkpt>
      <trkpt lat="44.59171" lon="2.92613">
        <ele>804.76</ele>
        <time>2012-06-03T14:16:06Z</time>
      </trkpt>
      <trkpt lat="44.59166" lon="2.92602">
        <ele>804.76</ele>
        <time>2012-06-03T14:16:15Z</time>
      </trkpt>
      <trkpt lat="44.59161" lon="2.92588">
        <ele>804.76</ele>
        <time>2012-06-03T14:16:23Z</time>
      </trkpt>
      <trkpt lat="44.59158" lon="2.92573">
        <ele>804.76</ele>
        <time>2012-06-03T14:16:33Z</time>
      </trkpt>
      <trkpt lat="44.59156" lon="2.92558">
        <ele>805.24</ele>
        <time>2012-06-03T14:16:42Z</time>
      </trkpt>
      <trkpt lat="44.59155" lon="2.92541">
        <ele>805.24</ele>
        <time>2012-06-03T14:16:51Z</time>
      </trkpt>
      <trkpt lat="44.59155" lon="2.92526">
        <ele>806.2</ele>
        <time>2012-06-03T14:16:59Z</time>
      </trkpt>
      <trkpt lat="44.59157" lon="2.92512">
        <ele>806.2</ele>
        <time>2012-06-03T14:17:07Z</time>
      </trkpt>
      <trkpt lat="44.59158" lon="2.92498">
        <ele>807.16</ele>
        <time>2012-06-03T14:17:16Z</time>
      </trkpt>
      <trkpt lat="44.5916" lon="2.92482">
        <ele>807.16</ele>
        <time>2012-06-03T14:17:25Z</time>
      </trkpt>
      <trkpt lat="44.59161" lon="2.92465">
        <ele>807.64</ele>
        <time>2012-06-03T14:17:34Z</time>
      </trkpt>
      <trkpt lat="44.5916" lon="2.92449">
        <ele>808.13</ele>
        <time>2012-06-03T14:17:42Z</time>
      </trkpt>
      <trkpt lat="44.59156" lon="2.92435">
        <ele>809.57</ele>
        <time>2012-06-03T14:17:51Z</time>
      </trkpt>
      <trkpt lat="44.5915" lon="2.92424">
        <ele>809.09</ele>
        <time>2012-06-03T14:17:59Z</time>
      </trkpt>
      <trkpt lat="44.59143" lon="2.92413">
        <ele>810.05</ele>
        <time>2012-06-03T14:18:07Z</time>
      </trkpt>
      <trkpt lat="44.59139" lon="2.92402">
        <ele>810.05</ele>
        <time>2012-06-03T14:18:28Z</time>
      </trkpt>
      <trkpt lat="44.59136" lon="2.92389">
        <ele>810.53</ele>
        <time>2012-06-03T14:18:38Z</time>
      </trkpt>
      <trkpt lat="44.59127" lon="2.92375">
        <ele>811.49</ele>
        <time>2012-06-03T14:18:48Z</time>
      </trkpt>
      <trkpt lat="44.59121" lon="2.92362">
        <ele>811.49</ele>
        <time>2012-06-03T14:18:58Z</time>
      </trkpt>
      <trkpt lat="44.59119" lon="2.92347">
        <ele>812.45</ele>
        <time>2012-06-03T14:19:07Z</time>
      </trkpt>
      <trkpt lat="44.59116" lon="2.92332">
        <ele>812.93</ele>
        <time>2012-06-03T14:19:15Z</time>
      </trkpt>
      <trkpt lat="44.59114" lon="2.92317">
        <ele>812.93</ele>
        <time>2012-06-03T14:19:33Z</time>
      </trkpt>
      <trkpt lat="44.59111" lon="2.92303">
        <ele>813.41</ele>
        <time>2012-06-03T14:19:44Z</time>
      </trkpt>
      <trkpt lat="44.59108" lon="2.92288">
        <ele>812.93</ele>
        <time>2012-06-03T14:19:56Z</time>
      </trkpt>
      <trkpt lat="44.59106" lon="2.92267">
        <ele>812.45</ele>
        <time>2012-06-03T14:20:19Z</time>
      </trkpt>
      <trkpt lat="44.59096" lon="2.92264">
        <ele>812.45</ele>
        <time>2012-06-03T14:20:40Z</time>
      </trkpt>
      <trkpt lat="44.59101" lon="2.92266">
        <ele>811.49</ele>
        <time>2012-06-03T14:23:41Z</time>
      </trkpt>
      <trkpt lat="44.59106" lon="2.92264">
        <ele>811.49</ele>
        <time>2012-06-03T14:26:35Z</time>
      </trkpt>
      <trkpt lat="44.59107" lon="2.92265">
        <ele>811.97</ele>
        <time>2012-06-03T14:28:07Z</time>
      </trkpt>
      <trkpt lat="44.59109" lon="2.92261">
        <ele>811.97</ele>
        <time>2012-06-03T14:29:20Z</time>
      </trkpt>
      <trkpt lat="44.59103" lon="2.92239">
        <ele>810.53</ele>
        <time>2012-06-03T14:29:36Z</time>
      </trkpt>
      <trkpt lat="44.59099" lon="2.92219">
        <ele>810.05</ele>
        <time>2012-06-03T14:29:51Z</time>
      </trkpt>
      <trkpt lat="44.59094" lon="2.92204">
        <ele>810.05</ele>
        <time>2012-06-03T14:30:01Z</time>
      </trkpt>
      <trkpt lat="44.59093" lon="2.92184">
        <ele>809.57</ele>
        <time>2012-06-03T14:30:10Z</time>
      </trkpt>
      <trkpt lat="44.59089" lon="2.92179">
        <ele>808.61</ele>
        <time>2012-06-03T14:30:22Z</time>
      </trkpt>
      <trkpt lat="44.59075" lon="2.92173">
        <ele>808.13</ele>
        <time>2012-06-03T14:30:37Z</time>
      </trkpt>
      <trkpt lat="44.59062" lon="2.92164">
        <ele>806.68</ele>
        <time>2012-06-03T14:30:50Z</time>
      </trkpt>
      <trkpt lat="44.59053" lon="2.92152">
        <ele>805.24</ele>
        <time>2012-06-03T14:31:00Z</time>
      </trkpt>
      <trkpt lat="44.59046" lon="2.92139">
        <ele>805.24</ele>
        <time>2012-06-03T14:31:10Z</time>
      </trkpt>
      <trkpt lat="44.59039" lon="2.92122">
        <ele>805.24</ele>
        <time>2012-06-03T14:31:21Z</time>
      </trkpt>
      <trkpt lat="44.59037" lon="2.92105">
        <ele>804.76</ele>
        <time>2012-06-03T14:31:35Z</time>
      </trkpt>
      <trkpt lat="44.59035" lon="2.92074">
        <ele>806.2</ele>
        <time>2012-06-03T14:31:55Z</time>
      </trkpt>
      <trkpt lat="44.59036" lon="2.92058">
        <ele>806.2</ele>
        <time>2012-06-03T14:32:04Z</time>
      </trkpt>
      <trkpt lat="44.59044" lon="2.92035">
        <ele>805.72</ele>
        <time>2012-06-03T14:32:18Z</time>
      </trkpt>
      <trkpt lat="44.59056" lon="2.9203">
        <ele>805.72</ele>
        <time>2012-06-03T14:32:43Z</time>
      </trkpt>
      <trkpt lat="44.59054" lon="2.92027">
        <ele>805.24</ele>
        <time>2012-06-03T14:33:37Z</time>
      </trkpt>
    </trkseg>
  </trk>
</gpx>